[[{"header":{"parameterUnit":"m.s-1","parameterCategory":1,"la1":31.0,"la2":29.5877,"lo1":-88.7671,"lo2":-86.6584,"dy":0.0162,"dx":0.0185,"nx":115,"ny":88,"refTime":"2024-06-20T06:00:00:Z","depth":0,"parameterNumber":2,"parameterNumberName":"U-component_of_WINDS"},"data":[0.0,0.0,0.0,0.0,0.0,0.0,0.0,0.0,0.0,0.0,0.0,0.0,0.0,0.0,0.0,0.0,0.0,0.0,0.0,0.0,0.0,0.0,0.0,0.0,0.0,0.0,0.0,0.0,0.0,0.0,0.0,0.0,0.0,0.0,0.0,0.0,0.0,0.0,0.0,0.0,0.0,0.0,0.0,0.0,0.0,0.0,0.0,0.0,0.0,0.0,0.0,0.0,0.0,0.0,0.0,0.0,0.0,0.0,0.0,0.0,0.0,0.0,0.0,0.0,0.0,0.0,0.0,0.0,0.0,0.0,0.0,0.0,0.0,0.0,0.0,0.0,0.0,0.0,0.0,0.0,0.0,0.0,0.0,0.0,0.0,0.0,0.0,0.0,0.0,0.0,0.0,0.0,0.0,0.0,0.0,0.0,0.0,0.0,0.0,0.0,0.0,0.0,0.0,0.0,0.0,0.0,0.0,0.0,0.0,0.0,0.0,0.0,0.0,0.0,0.0,0.0,0.0,0.0,0.0,0.0,0.0,0.0,0.0,0.0,0.0,0.0,0.0,0.0,0.0,0.0,0.0,0.0,0.0,0.0,0.0,0.0,0.0,0.0,0.0,0.0,0.0,0.0,0.0,0.0,0.0,0.0,0.0,0.0,0.0,0.0,0.0,0.0,0.0,0.0,0.0,0.0,0.0,0.0,0.0,0.0,0.0,0.0,0.0,0.0,0.0,0.0,0.0,0.0,0.0,0.0,0.0,0.0,0.0,0.0,0.0,0.0,0.0,0.0,0.0,0.0,0.0,0.0,0.0,0.0,0.0,0.0,0.0,0.0,0.0,0.0,0.0,0.0,0.0,0.0,0.0,0.0,0.0,0.0,0.0,0.0,0.0,0.0,0.0,0.0,0.0,0.0,0.0,0.0,0.0,0.0,0.0,0.0,0.0,0.0,0.0,0.0,0.0,0.0,0.0,0.0,0.0,0.0,0.0,0.0,0.0,0.0,0.0,0.0,0.0,0.0,0.0,0.0,0.0,0.0,0.0,0.0,0.0,0.0,0.0,0.0,0.0,0.0,0.0,0.0,0.0,0.0,0.0,0.0,0.0,0.0,0.0,0.0,0.0,0.0,0.0,0.0,0.0,0.0,0.0,0.0,0.0,0.0,0.0,0.0,0.0,0.0,0.0,0.0,0.0,0.0,0.0,0.0,0.0,0.0,0.0,0.0,0.0,0.0,0.0,0.0,0.0,0.0,0.0,0.0,0.0,0.0,0.0,0.0,0.0,0.0,0.0,0.0,0.0,0.0,0.0,0.0,0.0,0.0,0.0,0.0,0.0,0.0,0.0,0.0,0.0,0.0,0.0,0.0,0.0,0.0,0.0,0.0,0.0,0.0,0.0,0.0,0.0,0.0,0.0,0.0,0.0,0.0,0.0,0.0,0.0,0.0,0.0,0.0,0.0,0.0,0.0,0.0,0.0,0.0,0.0,0.0,0.0,0.0,0.0,0.0,0.0,0.0,0.0,0.0,0.0,0.0,0.0,0.0,0.0,0.0,0.0,0.0,0.0,0.0,0.0,0.0,0.0,0.0,0.0,0.0,0.0,0.0,0.0,0.0,0.0,0.0,0.0,0.0,0.0,0.0,0.0,0.0,0.0,0.0,0.0,0.0,0.0,0.0,0.0,0.0,0.0,0.0,0.0,0.0,0.0,0.0,0.0,0.0,0.0,0.0,0.0,0.0,0.0,0.0,0.0,0.0,0.0,0.0,0.0,0.0,0.0,0.0,0.0,0.0,0.0,0.0,0.0,0.0,0.0,0.0,0.0,0.0,0.0,0.0,0.0,0.0,0.0,0.0,0.0,0.0,0.0,0.0,0.0,0.0,0.0,0.0,0.0,0.0,0.0,0.0,0.0,0.0,0.0,0.0,0.0,0.0,0.0,0.0,0.0,0.0,0.0,0.0,0.0,0.0,0.0,0.0,0.0,0.0,0.0,0.0,0.0,0.0,0.0,0.0,0.0,0.0,0.0,0.0,0.0,0.0,0.0,0.0,0.0,0.0,0.0,0.0,0.0,0.0,0.0,0.0,0.0,0.0,0.0,0.0,0.0,0.0,0.0,0.0,0.0,0.0,0.0,0.0,0.0,0.0,0.0,0.0,0.0,0.0,0.0,0.0,0.0,0.0,0.0,0.0,0.0,0.0,0.0,0.0,0.0,0.0,0.0,0.0,0.0,0.0,0.0,0.0,0.0,0.0,0.0,0.0,0.0,0.0,0.0,0.0,0.0,0.0,0.0,0.0,0.0,0.0,0.0,0.0,0.0,0.0,0.0,0.0,0.0,0.0,0.0,0.0,0.0,0.0,0.0,0.0,0.0,0.0,0.0,0.0,0.0,0.0,0.0,0.0,0.0,0.0,0.0,0.0,0.0,0.0,0.0,0.0,0.0,0.0,0.0,0.0,0.0,0.0,0.0,0.0,0.0,0.0,0.0,0.0,0.0,0.0,0.0,0.0,0.0,0.0,0.0,0.0,0.0,0.0,0.0,0.0,0.0,0.0,0.0,0.0,0.0,0.0,0.0,0.0,0.0,0.0,0.0,0.0,0.0,0.0,0.0,0.0,0.0,0.0,0.0,0.0,0.0,0.0,0.0,0.0,0.0,0.0,0.0,0.0,0.0,0.0,0.0,0.0,0.0,0.0,0.0,0.0,0.0,0.0,0.0,0.0,0.0,0.0,0.0,0.0,0.0,0.0,0.0,0.0,0.0,0.0,0.0,0.0,0.0,0.0,0.0,0.0,0.0,0.0,0.0,0.0,0.0,0.0,0.0,0.0,0.0,0.0,0.0,0.0,0.0,0.0,0.0,0.0,0.0,0.0,0.0,0.0,0.0,0.0,0.0,0.0,0.0,0.0,0.0,0.0,0.0,0.0,0.0,0.0,0.0,0.0,0.0,0.0,0.0,0.0,0.0,0.0,0.0,0.0,0.0,0.0,0.0,0.0,0.0,0.0,0.0,0.0,0.0,0.0,0.0,0.0,0.0,0.0,0.0,0.0,0.0,0.0,0.0,0.0,0.0,0.0,0.0,0.0,0.0,0.0,0.0,0.0,0.0,0.0,0.0,0.0,0.0,0.0,0.0,0.0,0.0,0.0,0.0,0.0,0.0,0.0,0.0,0.0,0.0,0.0,0.0,0.0,0.0,0.0,0.0,0.0,0.0,0.0,0.0,0.0,0.0,0.0,0.0,0.0,0.0,0.0,0.0,0.0,0.0,0.0,0.0,0.0,0.0,0.0,0.0,0.0,0.0,0.0,0.0,0.0,0.0,0.0,0.0,0.0,0.0,0.0,0.0,0.0,0.0,0.0,0.0,0.0,0.0,0.0,0.0,0.0,0.0,0.0,0.0,0.0,0.0,0.0,0.0,0.0,0.0,0.0,0.0,0.0,0.0,0.0,0.0,0.0,0.0,0.0,0.0,0.0,0.0,0.0,0.0,0.0,0.0,0.0,0.0,0.0,0.0,0.0,0.0,0.0,0.0,0.0,0.0,0.0,0.0,0.0,0.0,0.0,0.0,0.0,0.0,0.0,0.0,0.0,0.0,0.0,0.0,0.0,0.0,0.0,0.0,0.0,0.0,0.0,0.0,0.0,0.0,0.0,0.0,0.0,0.0,0.0,0.0,0.0,0.0,0.0,0.0,0.0,0.0,0.0,0.0,0.0,0.0,0.0,0.0,0.0,0.0,0.0,0.0,0.0,0.0,0.0,0.0,0.0,0.0,0.0,0.0,0.0,0.0,0.0,0.0,0.0,0.0,0.0,0.0,0.0,0.0,0.0,0.0,0.0,0.0,0.0,0.0,0.0,0.0,0.0,0.0,0.0,0.0,0.0,0.0,0.0,0.0,0.0,0.0,0.0,0.0,0.0,0.0,0.0,0.0,0.0,0.0,0.0,0.0,0.0,0.0,0.0,0.0,0.0,0.0,0.0,0.0,0.0,0.0,0.0,0.0,0.0,0.0,0.0,0.0,0.0,0.0,0.0,0.0,0.0,0.0,0.0,0.0,0.0,0.0,0.0,0.0,0.0,0.0,0.0,0.0,0.0,0.0,0.0,0.0,0.0,0.0,0.0,0.0,0.0,0.0,0.0,0.0,0.0,0.0,0.0,0.0,0.0,0.0,0.0,0.0,0.0,0.0,0.0,0.0,0.0,0.0,0.0,0.0,0.0,0.0,0.0,0.0,0.0,0.0,0.0,0.0,0.0,0.0,0.0,0.0,0.0,0.0,0.0,0.9606,0.0,0.0,0.0,0.0,0.0,0.0,0.0,0.0,0.0,0.0,0.0,0.0,0.0,0.0,0.0,0.0,0.0,0.0,0.0,0.0,0.0,0.0,0.0,0.0,0.0,0.0,0.0,0.0,0.0,0.0,0.0,0.0,0.0,0.0,0.0,0.0,0.0,0.0,0.0,0.0,0.0,0.0,0.0,0.0,0.0,0.0,0.0,0.0,0.0,0.0,0.0,0.0,0.0,0.0,0.0,0.0,0.0,0.0,0.0,0.0,0.0,0.0,0.0,0.0,0.0,0.0,0.0,0.0,0.0,0.0,0.0,0.0,0.0,0.0,0.0,0.0,0.0,0.0,0.0,0.0,0.0,0.0,0.0,0.0,0.0,0.0,0.0,0.0,0.0,0.0,0.0,0.0,0.0,0.0,0.0,0.0,0.0,0.0,0.0,0.0,0.0,0.0,0.0,0.0,0.0,0.0,0.0,0.0,0.0,0.0,1.0016,1.0016,1.0016,0.9925,0.9809,0.0,0.0,0.0,0.0,0.0,0.0,0.0,0.0,0.0,0.0,0.0,0.0,0.0,0.0,0.0,0.0,0.0,0.0,0.0,0.0,0.0,0.0,0.0,0.0,0.0,0.0,0.0,0.0,0.0,0.0,0.0,0.0,0.0,0.0,0.0,0.0,0.0,0.0,0.0,0.0,0.0,0.0,0.0,0.0,0.0,0.0,0.0,0.0,0.0,0.0,0.0,0.0,0.0,0.0,0.0,0.0,0.0,0.0,0.0,0.0,0.0,0.0,0.0,0.0,0.0,0.0,0.0,0.0,0.0,0.0,0.0,0.0,0.0,0.0,0.0,0.0,0.0,0.0,0.0,0.0,0.0,0.0,0.0,0.0,0.0,0.0,0.0,0.0,0.0,0.0,0.0,0.0,0.0,0.0,0.0,0.0,0.0,0.0,0.0,0.0,0.0,0.0,0.0,0.0,0.0,0.0,0.0,0.0,0.0,0.0,0.0,0.0,1.0023,0.9947,0.9852,0.0,0.0,0.0,0.0,0.0,0.0,0.0,0.0,0.0,0.0,0.0,0.0,0.0,0.0,0.0,0.0,0.0,0.0,0.0,0.0,0.0,0.0,0.0,0.0,0.0,0.0,0.0,0.0,0.0,0.0,0.0,0.0,0.0,0.0,0.0,0.0,0.0,0.0,0.0,0.0,0.0,0.0,0.0,0.0,0.0,0.0,0.0,0.0,0.0,0.0,0.0,0.0,0.0,0.0,0.0,0.0,0.0,0.0,0.0,0.0,0.0,0.0,0.0,0.0,0.0,0.0,0.0,0.0,0.0,0.0,0.0,0.0,0.0,0.0,0.0,0.0,0.0,0.0,0.0,0.0,0.0,0.0,0.0,0.0,0.0,0.0,0.0,0.0,0.0,0.0,0.0,0.0,0.0,0.0,0.0,0.0,0.0,0.0,0.0,0.0,0.0,0.0,0.0,0.0,0.0,0.0,0.0,0.0,0.0,0.0,1.0266,1.0266,1.0099,0.0,0.9382,0.0,0.0,0.0,0.0,0.0,0.0,0.0,0.0,0.0,0.0,0.0,0.0,0.0,0.0,0.0,0.0,0.0,0.0,0.0,0.0,0.0,0.0,0.0,0.0,0.0,0.0,0.0,0.0,0.0,0.0,0.0,0.0,0.0,0.0,0.0,0.0,0.0,0.0,0.0,0.0,0.0,0.0,0.0,0.0,0.0,0.0,0.0,0.0,0.0,0.0,0.0,0.0,0.0,0.0,0.0,0.0,0.0,0.0,0.0,0.0,0.0,0.0,0.0,0.0,0.0,0.0,0.0,0.0,0.0,0.0,0.0,0.0,0.0,0.0,0.0,0.0,0.0,0.0,0.0,0.0,0.0,0.0,0.0,0.0,0.0,0.0,0.0,0.0,0.0,0.0,0.0,0.0,0.0,0.0,0.0,0.0,0.0,0.0,0.0,0.0,0.0,0.0,0.0,0.0,0.0,0.0,0.0,0.0,0.0,0.0,1.0317,1.0317,1.0108,0.9774,0.0,0.0,0.0,0.0,0.0,0.0,0.0,0.0,0.0,0.0,0.0,0.0,0.0,0.0,0.0,0.0,0.0,0.0,0.0,0.0,0.0,0.0,0.0,0.0,0.0,0.0,0.0,0.0,0.0,0.0,0.0,0.0,0.0,0.0,0.0,0.0,0.0,0.0,0.0,0.0,0.0,0.0,0.0,0.0,0.0,0.0,0.0,0.0,0.0,0.0,0.0,0.0,0.0,0.0,0.0,0.0,0.0,0.0,0.0,0.0,0.0,0.0,0.0,0.0,0.0,0.0,0.0,0.0,0.0,0.0,0.0,0.0,0.0,0.0,0.0,0.0,0.0,0.0,0.0,0.0,0.0,0.0,0.0,0.0,0.0,0.0,0.0,0.0,0.0,0.0,0.0,0.0,0.0,0.0,0.0,0.0,0.0,0.0,0.0,0.0,0.0,0.0,0.0,0.0,0.0,0.0,0.0,0.0,0.0,0.0,1.0181,1.0247,1.0124,0.9973,0.962,0.9071,0.0,0.0,0.0,0.0,0.0,0.0,0.0,0.0,0.0,0.0,0.0,0.0,0.0,0.0,0.0,0.0,0.0,0.0,0.0,0.0,0.0,0.0,0.0,0.0,0.0,0.0,0.0,0.0,0.0,0.0,0.0,0.0,0.0,0.0,0.0,0.0,0.0,0.0,0.0,0.0,0.0,0.0,0.0,0.0,0.0,0.0,0.0,0.0,0.0,0.0,0.0,0.0,0.0,0.0,0.0,0.0,0.0,0.0,0.0,0.0,0.0,0.0,0.0,0.0,0.0,0.0,0.0,0.0,0.0,0.0,0.0,0.0,0.0,0.0,0.0,0.0,0.0,0.0,0.0,0.0,0.0,0.0,0.0,0.0,0.0,0.0,0.0,0.0,0.0,0.0,0.0,0.0,0.0,0.0,0.0,0.0,0.0,0.0,0.0,0.0,0.0,0.0,0.0,0.0,0.0,0.0,0.0,0.0,1.0016,1.0203,1.0083,0.9653,0.9625,0.9239,0.0,0.0,0.0,0.0,0.0,0.0,0.0,0.0,0.0,0.0,0.0,0.0,0.0,0.0,0.0,0.0,0.0,0.0,0.0,0.0,0.0,0.0,0.0,0.0,0.0,0.0,0.0,0.0,0.0,0.0,0.0,0.0,0.0,0.0,0.0,0.0,0.0,0.0,0.0,0.0,0.0,0.0,0.0,0.0,0.0,0.0,0.0,0.0,0.0,0.0,0.0,0.0,0.0,0.0,0.0,0.0,0.0,0.0,0.0,0.0,0.0,0.0,0.0,0.0,0.0,0.0,0.0,0.0,0.0,0.0,0.0,0.0,0.0,0.0,0.0,0.0,0.0,0.0,0.0,0.0,0.0,0.0,0.0,0.0,0.0,0.0,0.0,0.0,0.0,0.0,0.0,0.0,0.0,0.0,0.0,0.0,0.0,0.0,0.0,0.0,0.0,0.0,0.0,0.0,0.0,0.0,0.0,0.0,0.0,0.9771,1.0113,1.0214,1.0059,1.0039,0.9656,0.0,0.0,0.0,0.0,0.0,0.0,0.0,0.0,0.0,0.0,0.0,0.0,0.0,0.0,0.0,0.0,0.0,0.0,0.0,0.0,0.0,0.0,0.0,0.0,0.0,0.0,0.0,0.0,0.0,0.0,0.0,0.0,0.0,0.0,0.0,0.0,0.0,0.0,0.0,0.0,0.0,0.0,0.0,0.0,0.0,0.0,0.0,0.0,0.0,0.0,0.0,0.0,0.0,0.0,0.0,0.0,0.0,0.0,0.0,0.0,0.0,0.0,0.0,0.0,0.0,0.0,0.0,0.0,0.0,0.0,0.0,0.0,0.0,0.0,0.0,0.0,0.0,0.0,0.0,0.0,0.0,0.0,0.0,0.0,0.0,0.0,0.0,0.0,0.0,0.0,0.0,0.0,0.0,0.0,0.0,0.0,0.0,0.0,0.0,0.0,0.0,0.0,0.0,0.0,0.0,0.0,0.0,0.0,0.0,0.9742,0.0,1.0348,1.0211,1.0211,0.9847,0.0,0.0,0.0,0.0,0.0,0.0,0.0,0.0,0.0,0.0,0.0,0.0,0.0,0.0,0.0,0.0,0.0,0.0,0.0,0.0,0.0,0.0,0.0,0.0,0.0,0.0,0.0,0.0,0.0,0.0,0.0,0.0,0.0,0.0,0.0,0.0,0.0,0.0,0.0,0.0,0.0,0.0,0.0,0.0,0.0,0.0,0.0,0.0,0.0,0.0,0.0,0.0,0.0,0.0,0.0,0.0,0.0,0.0,0.0,0.0,0.0,0.0,0.0,0.0,0.0,0.0,0.0,0.0,0.0,0.0,0.0,0.0,0.0,0.0,0.0,0.0,0.0,0.0,0.0,0.0,0.0,0.0,0.0,0.0,0.0,0.0,0.0,0.0,0.0,0.0,0.0,0.0,0.0,0.0,0.0,0.0,0.0,0.0,0.0,0.0,0.0,0.0,0.0,0.0,0.0,0.0,0.0,0.0,0.9742,1.0015,1.0375,1.0439,1.006,1.006,0.9823,0.0,0.0,0.0,0.0,0.0,0.0,0.0,0.0,0.0,0.0,0.0,0.0,0.0,0.0,0.0,0.0,0.0,0.0,0.0,0.0,0.0,0.0,0.0,0.0,0.0,0.0,0.0,0.0,0.0,0.0,0.0,0.0,0.0,0.0,0.0,0.0,0.0,0.0,0.0,0.0,0.0,0.0,0.0,0.0,0.0,0.0,0.0,0.0,0.0,0.0,0.0,0.0,0.0,0.0,0.0,0.0,0.0,0.0,0.0,0.0,0.0,0.0,0.0,0.0,0.0,0.0,0.0,0.0,0.0,0.0,0.0,0.0,0.0,0.0,0.0,0.0,0.0,0.0,0.0,0.0,0.0,0.0,0.0,0.0,0.0,0.0,0.0,0.0,0.0,0.0,0.0,0.0,0.0,0.0,0.0,0.0,0.0,0.0,0.0,0.0,0.0,0.0,0.0,0.0,0.0,0.0,0.0,0.0,0.0,1.0668,1.067,1.0829,1.1133,1.0982,1.0681,0.0,0.0,0.0,0.0,0.0,0.0,0.0,0.0,0.0,0.0,0.0,0.0,0.0,0.0,0.0,0.0,0.0,0.0,0.0,0.0,0.0,0.0,0.0,0.0,0.0,0.0,0.0,0.0,0.0,0.0,0.0,0.0,0.0,0.0,0.0,0.0,0.0,0.0,0.0,0.0,0.0,0.0,0.0,0.0,0.0,0.0,0.0,0.0,0.0,0.0,0.0,0.0,0.0,0.0,0.0,0.0,0.0,0.0,0.0,0.0,0.0,0.0,0.0,0.0,0.0,0.0,0.0,0.0,0.0,0.0,0.0,0.0,0.0,0.0,0.0,0.0,0.0,0.0,0.0,0.0,0.0,0.0,0.0,0.0,0.0,0.0,0.0,0.0,0.0,0.0,0.0,0.0,0.0,0.0,0.0,0.0,0.0,0.0,0.0,0.0,0.0,0.0,0.0,0.0,0.0,0.0,0.0,0.0,0.0,1.1651,1.1367,1.1375,1.1838,1.1651,1.1332,1.0838,0.0,0.0,0.0,0.0,0.0,0.0,0.0,0.0,0.0,0.0,0.0,0.0,0.0,0.0,0.0,0.0,0.0,0.0,0.0,0.0,0.0,0.0,0.0,0.0,0.0,0.0,0.0,0.0,0.0,0.0,0.0,0.0,0.0,0.0,0.0,0.0,0.0,0.0,0.0,0.0,0.0,0.0,0.0,0.0,0.0,0.0,0.0,0.0,0.0,0.0,0.0,0.0,0.0,0.0,0.0,0.0,0.0,0.0,0.0,0.0,0.0,0.0,0.0,0.0,0.0,0.0,0.0,0.0,0.0,0.0,0.0,0.0,0.0,0.0,0.0,0.0,0.0,0.0,0.0,0.0,0.0,0.0,0.0,0.0,0.0,0.0,0.0,0.0,0.0,0.0,0.0,0.0,0.0,0.0,0.0,0.0,0.0,0.0,0.0,0.0,0.0,0.0,0.0,0.0,0.0,0.0,0.0,0.0,1.2896,1.241,1.2186,1.2261,1.2191,1.1868,0.0,0.0,0.0,0.0,0.0,0.0,0.0,0.0,0.0,0.0,0.0,0.0,0.0,0.0,0.0,0.0,0.0,0.0,0.0,0.0,0.0,0.0,0.0,0.0,0.0,0.0,0.0,0.0,0.0,0.0,0.0,0.0,0.0,0.0,0.0,0.0,0.0,0.0,0.0,0.0,0.0,0.0,0.0,0.0,0.0,0.0,0.0,0.0,0.0,0.0,0.0,0.0,0.0,0.0,0.0,0.0,0.0,0.0,0.0,0.0,0.0,0.0,0.0,0.0,0.0,0.0,0.0,0.0,0.0,0.0,0.0,0.0,0.0,0.0,0.0,0.0,0.0,0.0,0.0,0.0,0.0,0.0,0.0,0.0,0.0,0.0,0.0,0.0,0.0,0.0,0.0,0.0,0.0,0.0,0.0,0.0,0.0,0.0,0.0,0.0,0.0,0.0,0.0,0.0,0.0,0.0,0.0,0.0,0.0,1.3122,1.3673,1.3959,1.401,1.3621,1.3054,0.0,0.0,0.0,0.0,0.0,0.0,0.0,0.0,0.0,0.0,0.0,0.0,0.0,0.0,0.0,0.0,0.0,0.0,0.0,0.0,0.0,0.0,0.0,0.0,0.0,0.0,0.0,0.0,0.0,0.0,0.0,0.0,0.0,0.0,0.0,0.0,0.0,0.0,0.0,0.0,0.0,0.0,0.0,0.0,0.0,0.0,0.0,0.0,0.0,0.0,0.0,0.0,0.0,0.0,0.0,0.0,0.0,0.0,0.0,0.0,0.0,0.0,0.0,0.0,0.0,0.0,0.0,0.0,0.0,0.0,0.0,0.0,0.0,0.0,0.0,0.0,0.0,0.0,0.0,0.0,0.0,0.0,0.0,0.0,0.0,0.0,0.0,0.0,0.0,0.0,0.0,0.0,0.0,0.0,0.0,0.0,0.0,0.0,0.0,0.0,0.0,0.0,0.0,0.0,0.0,0.0,0.0,0.0,1.2079,1.3784,1.4729,1.5277,1.5425,1.4665,1.3755,0.0,0.0,0.0,0.0,0.0,0.0,0.0,0.0,0.0,0.0,0.0,0.0,0.0,0.0,0.0,0.0,0.0,0.0,0.0,0.0,0.0,0.0,0.0,0.0,0.0,0.0,0.0,0.0,0.0,0.0,0.0,0.0,0.0,0.0,0.0,0.0,0.0,0.0,0.0,0.0,0.0,0.0,0.0,0.0,0.0,0.0,0.0,0.0,0.0,0.0,0.0,0.0,0.0,0.0,0.0,0.0,0.0,0.0,0.0,0.0,0.0,0.0,0.0,0.0,0.0,0.0,0.0,0.0,0.0,0.0,0.0,0.0,0.0,0.0,0.0,0.0,0.0,0.0,0.0,0.0,0.0,0.0,0.0,0.0,0.0,0.0,0.0,0.0,0.0,0.0,0.0,0.0,0.0,0.0,0.0,0.0,0.0,0.0,0.0,0.0,0.0,0.0,0.0,0.0,0.0,0.0,0.0,0.0,1.2865,1.4536,1.5645,1.6291,1.6508,1.5383,1.4134,0.0,0.0,0.0,0.0,0.0,0.0,0.0,0.0,0.0,0.0,0.0,0.0,0.0,0.0,0.0,0.0,0.0,0.0,0.0,0.0,0.0,0.0,0.0,0.0,0.0,0.0,0.0,0.0,0.0,0.0,0.0,0.0,0.0,0.0,0.0,0.0,0.0,0.0,0.0,0.0,0.0,0.0,0.0,0.0,0.0,0.0,0.0,0.0,0.0,0.0,0.0,0.0,0.0,0.0,0.0,0.0,0.0,0.0,0.0,0.0,0.0,0.0,0.0,0.0,0.0,0.0,0.0,0.0,0.0,0.0,0.0,0.0,0.0,0.0,0.0,0.0,0.0,0.0,0.0,0.0,0.0,0.0,0.0,0.0,0.0,0.0,0.0,0.0,0.0,0.0,0.0,0.0,0.0,0.0,0.0,0.0,0.0,0.0,0.0,0.0,0.0,0.0,0.0,0.0,0.0,0.0,0.0,0.0,1.3377,1.5007,1.6084,1.6705,1.6793,1.5805,1.4659,0.0,0.0,0.0,0.0,0.0,0.0,0.0,0.0,0.0,0.0,0.0,0.0,0.0,0.0,0.0,0.0,0.0,0.0,0.0,0.0,0.0,0.0,0.0,0.0,0.0,0.0,0.0,0.0,0.0,0.0,0.0,0.0,0.0,0.0,0.0,0.0,0.0,0.0,0.0,0.0,0.0,0.0,0.0,0.0,0.0,0.0,0.0,0.0,1.6766,0.0,0.0,0.0,0.0,0.0,0.0,0.0,0.0,0.0,0.0,0.0,0.0,0.0,0.0,0.0,0.0,0.0,0.0,0.0,0.0,0.0,0.0,0.0,0.0,0.0,0.0,0.0,0.0,0.0,0.0,0.0,0.0,0.0,0.0,0.0,0.0,0.0,0.0,0.0,0.0,0.0,0.0,0.0,0.0,0.0,0.0,0.0,0.0,0.0,0.0,0.0,0.0,0.0,0.0,0.0,0.0,0.0,0.0,0.0,1.3736,1.5341,1.6442,1.7007,1.7044,1.6374,1.5256,0.0,0.0,0.0,0.0,0.0,0.0,0.0,0.0,0.0,0.0,0.0,0.0,0.0,0.0,0.0,0.0,0.0,0.0,0.0,0.0,0.0,0.0,0.0,0.0,0.0,0.0,0.0,0.0,0.0,0.0,0.0,0.0,0.0,0.0,0.0,0.0,0.0,0.0,0.0,0.0,0.0,0.0,0.0,0.0,0.0,0.0,0.0,0.0,0.0,0.0,0.0,0.0,0.0,0.0,0.0,0.0,0.0,0.0,0.0,0.0,0.0,0.0,0.0,0.0,0.0,0.0,0.0,0.0,0.0,0.0,0.0,0.0,0.0,0.0,0.0,0.0,0.0,0.0,0.0,0.0,0.0,0.0,0.0,0.0,0.0,0.0,0.0,0.0,0.0,0.0,0.0,0.0,0.0,0.0,0.0,0.0,0.0,0.0,0.0,0.0,0.0,0.0,0.0,0.0,0.0,0.0,0.0,1.2431,1.4025,1.5583,1.6713,1.7274,1.7364,1.6914,1.5822,1.41,0.0,0.0,0.0,0.0,0.0,0.0,0.0,0.0,0.0,0.0,0.0,0.0,0.0,0.0,0.0,0.0,0.0,0.0,0.0,0.0,0.0,0.0,0.0,0.0,0.0,0.0,0.0,0.0,0.0,0.0,0.0,0.0,0.0,0.0,0.0,0.0,0.0,0.0,1.5678,1.625,0.0,0.0,0.0,0.0,0.0,0.0,0.0,0.0,1.6895,0.0,0.0,0.0,0.0,0.0,0.0,0.0,0.0,0.0,0.0,0.0,0.0,0.0,0.0,0.0,0.0,0.0,0.0,0.0,0.0,0.0,0.0,0.0,0.0,0.0,0.0,0.0,0.0,0.0,0.0,0.0,0.0,0.0,0.0,0.0,0.0,0.0,0.0,0.0,0.0,0.0,0.0,0.0,0.0,0.0,0.0,0.0,0.0,0.0,0.0,0.0,0.0,0.0,0.0,0.0,0.0,1.1043,1.2683,1.4282,1.5835,1.6901,1.7549,1.7692,1.7209,1.622,1.4708,0.0,0.0,0.0,0.0,0.0,0.0,0.0,0.0,0.0,0.0,0.0,0.0,0.0,0.0,0.0,0.0,0.0,0.0,0.0,0.0,0.0,0.0,0.0,0.0,0.0,0.0,0.0,0.0,0.0,0.0,0.0,0.0,0.0,0.0,0.0,0.0,0.0,0.0,0.0,1.6128,1.6346,0.0,0.0,0.0,0.0,0.0,0.0,0.0,0.0,1.8029,0.0,0.0,0.0,0.0,0.0,0.0,0.0,0.0,0.0,0.0,0.0,0.0,0.0,0.0,0.0,0.0,0.0,0.0,0.0,0.0,0.0,0.0,0.0,0.0,0.0,0.0,0.0,0.0,0.0,0.0,0.0,0.0,0.0,0.0,0.0,0.0,0.0,0.0,0.0,0.0,0.0,0.0,0.0,0.0,0.0,0.0,0.0,0.0,0.0,0.0,0.0,0.0,0.0,0.0,0.0,1.1501,1.3117,1.4781,1.6383,1.7306,1.7868,1.8054,1.7679,1.6686,0.0,0.0,0.0,0.0,0.0,0.0,0.0,0.0,0.0,0.0,0.0,0.0,0.0,0.0,0.0,0.0,0.0,0.0,0.0,0.0,0.0,0.0,0.0,0.0,0.0,0.0,0.0,0.0,0.0,0.0,0.0,0.0,0.0,0.0,0.0,0.0,0.0,0.0,0.0,0.0,1.5995,1.6156,1.6274,0.0,0.0,0.0,0.0,0.0,0.0,1.7646,1.7817,0.0,0.0,0.0,0.0,0.0,0.0,0.0,0.0,0.0,0.0,0.0,0.0,0.0,0.0,0.0,0.0,0.0,0.0,0.0,0.0,0.0,0.0,0.0,0.0,0.0,0.0,0.0,0.0,0.0,0.0,0.0,0.0,0.0,0.0,0.0,0.0,0.0,0.0,0.0,0.0,0.0,0.0,0.0,0.0,0.0,0.0,0.0,0.0,0.0,0.0,0.0,0.0,0.0,0.0,0.0,1.2021,1.3576,1.5205,1.6894,1.7646,1.8099,1.8276,1.7985,1.6932,0.0,0.0,0.0,0.0,0.0,0.0,0.0,0.0,0.0,0.0,0.0,0.0,0.0,0.0,0.0,0.0,0.0,0.0,0.0,0.0,0.0,0.0,0.0,0.0,0.0,0.0,0.0,0.0,0.0,0.0,0.0,0.0,0.0,0.0,0.0,0.0,0.0,0.0,0.0,0.0,0.0,1.6062,1.6355,1.6561,0.0,0.0,0.0,0.0,1.745,1.7463,0.0,0.0,0.0,0.0,0.0,0.0,0.0,0.0,0.0,0.0,0.0,0.0,0.0,0.0,0.0,0.0,0.0,0.0,0.0,0.0,0.0,0.0,0.0,0.0,0.0,0.0,0.0,0.0,0.0,0.0,0.0,0.0,0.0,0.0,0.0,0.0,0.0,0.0,0.0,0.0,0.0,0.0,0.0,0.0,0.0,0.0,0.0,0.0,0.0,0.0,0.0,0.0,0.0,0.0,0.0,0.0,1.248,1.3943,1.5489,1.7085,1.7705,1.8101,1.8281,1.7814,1.6664,0.0,0.0,0.0,0.0,0.0,0.0,0.0,0.0,0.0,0.0,0.0,0.0,0.0,0.0,0.0,0.0,0.0,0.0,0.0,0.0,0.0,0.0,0.0,0.0,0.0,0.0,0.0,0.0,0.0,0.0,0.0,0.0,0.0,0.0,0.0,0.0,0.0,0.0,0.0,0.0,0.0,1.6341,1.6621,1.6685,1.661,0.0,0.0,1.7107,1.7145,1.7776,0.0,0.0,0.0,0.0,0.0,0.0,0.0,0.0,0.0,0.0,0.0,0.0,0.0,0.0,0.0,0.0,0.0,0.0,0.0,0.0,0.0,0.0,0.0,0.0,0.0,0.0,0.0,0.0,0.0,0.0,0.0,0.0,0.0,0.0,0.0,0.0,0.0,0.0,0.0,0.0,0.0,0.0,0.0,0.0,0.0,0.0,0.0,0.0,0.0,0.0,0.0,0.0,0.0,0.0,0.0,1.144,1.3047,1.4435,1.582,1.713,1.7422,1.7694,1.8015,1.7216,1.6201,0.0,0.0,0.0,0.0,0.0,0.0,0.0,0.0,0.0,0.0,0.0,0.0,0.0,0.0,0.0,0.0,0.0,0.0,0.0,0.0,0.0,0.0,0.0,0.0,0.0,0.0,0.0,0.0,0.0,0.0,0.0,0.0,0.0,0.0,0.0,0.0,0.0,0.0,0.0,0.0,0.0,0.0,1.6417,1.6738,0.0,0.0,0.0,1.7469,1.7802,0.0,0.0,0.0,0.0,0.0,0.0,0.0,0.0,0.0,0.0,0.0,0.0,0.0,0.0,0.0,0.0,0.0,0.0,0.0,0.0,0.0,0.0,0.0,0.0,0.0,0.0,0.0,0.0,0.0,0.0,0.0,0.0,0.0,0.0,0.0,0.0,0.0,0.0,0.0,0.0,0.0,0.0,0.0,0.0,0.0,0.0,0.0,0.0,0.0,0.0,0.0,0.0,0.0,0.0,0.0,0.0,0.0,1.344,1.4726,1.5927,1.6996,1.6995,1.7102,1.7403,1.6522,0.0,0.0,0.0,0.0,0.0,0.0,0.0,0.0,0.0,0.0,0.0,0.0,0.0,0.0,0.0,0.0,0.0,0.0,0.0,0.0,0.0,0.0,0.0,0.0,0.0,0.0,0.0,1.2193,0.0,0.0,0.0,0.0,0.0,0.0,0.0,0.0,0.0,0.0,0.0,0.0,0.0,0.0,1.5752,1.6275,1.6698,1.6984,0.0,0.0,1.7391,1.7856,1.772,1.761,0.0,0.0,0.0,0.0,0.0,0.0,0.0,0.0,0.0,0.0,0.0,0.0,0.0,0.0,0.0,0.0,0.0,0.0,0.0,0.0,0.0,0.0,0.0,0.0,0.0,0.0,0.0,0.0,0.0,0.0,0.0,0.0,0.0,0.0,0.0,0.0,0.0,0.0,0.0,0.0,0.0,0.0,0.0,0.0,0.0,0.0,0.0,0.0,0.0,0.0,0.0,0.0,0.0,0.0,1.1975,1.3573,1.454,1.5514,1.6506,1.636,1.6305,1.6403,1.5958,1.5118,0.0,0.0,0.0,0.0,0.0,0.0,0.0,0.0,0.0,0.0,0.0,0.0,0.0,0.0,0.0,0.0,0.0,0.0,0.0,0.0,0.0,0.0,0.0,0.0,0.0,0.0,0.0,0.0,0.0,0.0,0.0,0.0,0.0,0.0,0.0,0.0,0.0,0.0,0.0,0.0,0.0,1.5869,1.6418,1.6527,1.6631,0.0,1.6711,1.658,1.6626,1.7292,1.7539,1.6811,0.0,0.0,0.0,0.0,0.0,0.0,0.0,0.0,0.0,0.0,0.0,0.0,0.0,0.0,0.0,0.0,0.0,0.0,0.0,0.0,0.0,0.0,0.0,0.0,0.0,0.0,0.0,0.0,0.0,0.0,0.0,0.0,0.0,0.0,0.0,0.0,0.0,0.0,0.0,0.0,0.0,0.0,0.0,0.0,0.0,0.0,0.0,0.0,0.0,0.0,0.0,0.0,0.0,1.1558,1.2774,1.3957,1.4872,1.5479,1.5206,1.5128,1.535,1.4535,1.3903,0.0,0.0,0.0,0.0,0.0,0.0,0.0,0.0,0.0,0.0,0.0,0.0,0.0,0.0,0.0,0.0,0.0,0.0,0.0,0.0,0.0,0.0,0.0,0.0,0.0,0.0,0.0,0.0,1.4083,1.4135,1.3779,0.0,0.0,0.0,0.0,0.0,0.0,0.0,0.0,0.0,0.0,1.6119,1.6679,1.6884,0.0,0.0,1.7074,1.6975,1.6975,1.713,1.7083,1.6611,1.628,0.0,0.0,0.0,0.0,0.0,0.0,0.0,0.0,0.0,0.0,0.0,0.0,0.0,0.0,0.0,0.0,0.0,0.0,0.0,0.0,0.0,0.0,0.0,0.0,0.0,0.0,0.0,0.0,0.0,0.0,0.0,0.0,0.0,0.0,0.0,0.0,0.0,0.0,0.0,0.0,0.0,0.0,0.0,0.0,0.0,0.0,0.0,0.0,0.0,0.0,0.0,0.0,1.1156,1.2144,1.3365,1.4157,1.4464,1.4048,1.3922,1.402,1.3195,1.2756,0.0,0.0,0.0,0.0,0.0,0.0,0.0,0.0,0.0,0.0,0.0,0.0,0.0,0.0,0.0,0.0,0.0,0.0,0.0,0.0,0.0,0.0,0.0,0.0,0.0,0.0,0.0,0.0,1.4158,1.411,1.3927,0.0,0.0,0.0,0.0,0.0,0.0,0.0,0.0,0.0,0.0,1.6157,1.6444,1.6653,1.6816,1.6893,1.6838,1.6803,1.685,1.6775,1.6642,1.6387,0.0,0.0,0.0,0.0,0.0,0.0,0.0,0.0,0.0,0.0,0.0,0.0,0.0,0.0,0.0,0.0,0.0,0.0,0.0,0.0,0.0,0.0,0.0,0.0,0.0,0.0,0.0,0.6636,0.0,0.0,0.6469,0.0,0.0,0.0,0.0,0.0,0.0,0.0,0.0,0.0,0.0,0.0,0.0,0.0,0.0,0.0,0.0,0.0,0.0,0.0,0.0,0.0,0.0,1.0787,1.1799,1.2786,1.3361,1.3423,1.305,1.2674,1.2366,1.207,1.1865,1.171,0.0,0.0,0.0,0.0,0.0,0.0,0.0,0.0,0.0,0.0,0.0,0.0,0.0,0.0,0.0,0.0,0.0,0.0,0.0,0.0,0.0,0.0,0.0,0.0,0.0,0.0,1.3827,1.3874,1.3899,0.0,0.0,0.0,0.0,0.0,0.0,0.0,0.0,0.0,1.4737,1.5326,1.5774,1.5663,1.5662,1.5765,1.601,1.5826,1.5686,1.5836,1.6115,1.6243,0.0,0.0,0.0,0.0,0.0,0.0,0.0,0.0,0.0,0.0,0.0,0.0,0.0,0.0,0.0,0.0,0.0,0.0,0.0,0.0,0.0,0.0,0.0,0.0,0.0,0.0,0.0,0.7058,0.7082,0.0,0.0,0.0,0.0,0.0,0.0,0.0,0.0,0.0,0.0,0.0,0.8618,0.8691,0.0,0.0,0.0,0.0,0.0,0.0,0.0,0.0,0.0,0.0,0.0,0.0,1.0284,1.1081,1.2088,1.2635,1.2651,1.2402,1.1964,1.134,1.0996,1.0688,1.0382,0.0,0.0,0.0,0.0,0.0,0.0,0.0,0.0,0.0,0.0,0.0,0.0,0.0,0.0,0.0,0.0,0.0,0.0,0.0,0.0,0.0,0.0,0.0,0.0,0.0,1.4202,0.0,0.0,0.0,0.0,0.0,0.0,0.0,0.0,0.0,0.0,1.4456,1.4892,1.5248,1.5513,1.5766,1.6035,1.5843,1.5763,0.0,0.0,0.0,0.0,0.0,0.0,0.0,0.0,0.0,0.0,0.0,0.0,0.0,0.0,1.5479,1.5172,1.5306,1.5482,1.5457,0.0,0.0,0.0,0.0,0.0,0.0,0.0,0.0,0.0,0.0,0.0,0.0,0.0,0.0,0.7311,0.7275,0.7208,0.0,0.0,0.0,0.0,0.0,0.0,0.0,0.0,0.8268,0.8598,0.8943,0.8986,0.9012,0.9,0.9163,0.882,0.0,0.0,0.0,0.0,0.0,0.0,0.0,0.0,0.984,1.0412,1.1317,1.1705,1.1556,1.1384,1.0966,1.0295,1.0016,0.9717,0.9389,0.937,0.9381,0.0,0.0,0.0,0.0,0.0,0.0,0.0,0.0,0.0,0.0,0.0,0.0,0.0,0.0,0.0,0.0,0.0,0.0,0.0,0.0,0.0,0.0,0.0,1.4446,0.0,0.0,0.0,0.0,0.0,0.0,0.0,0.0,0.0,1.4284,1.4662,1.5013,1.5359,1.5417,1.5465,1.5576,0.0,0.0,0.0,0.0,0.0,0.0,0.0,1.4801,1.4761,1.4839,1.4954,1.5056,1.513,1.5199,1.5222,0.0,0.0,1.4989,1.5303,1.5579,1.5494,1.5701,1.5894,1.5907,1.6176,1.6612,0.0,0.0,0.0,0.0,0.6355,0.0,0.0,0.0,0.737,0.7452,0.0,0.7466,0.0,0.0,0.0,0.0,0.7421,0.7691,0.0,0.0,0.8775,0.9047,0.9212,0.934,0.9334,0.925,0.9677,0.9614,0.9074,0.8588,0.0,0.0,0.0,0.0,0.0,0.0,0.9531,0.9829,1.0472,1.0612,1.024,1.009,0.978,0.9309,0.9141,0.8982,0.88,0.8962,0.8825,0.8328,0.8245,0.0,0.0,0.0,0.0,0.0,0.0,0.0,0.0,0.0,0.0,0.0,0.0,0.0,0.0,0.0,0.0,0.0,0.0,0.0,0.0,1.4362,0.0,0.0,0.0,0.0,0.0,0.0,0.0,0.0,0.0,1.436,1.4781,1.5114,1.5231,1.5111,0.0,0.0,0.0,0.0,1.4307,1.4317,1.4298,1.4347,1.4463,1.4475,1.4567,1.4902,0.0,0.0,1.4765,1.4782,1.4843,1.4877,1.5117,1.5305,1.5365,1.5626,1.5736,1.5579,1.5761,1.5922,1.5963,1.6389,1.6921,0.6421,0.0,0.0,0.0,0.0,0.6889,0.7241,0.7701,0.7716,0.7928,0.8204,0.7925,0.0,0.0,0.0,0.0,0.0,0.0,0.8061,0.8387,0.861,0.8971,0.9386,0.9461,0.951,0.9613,0.9749,0.9656,0.9316,0.9081,0.8932,0.8941,0.0,0.0,0.0,0.0,0.9593,0.9738,1.0228,1.039,1.0187,1.0148,0.9784,0.8971,0.8582,0.8368,0.8307,0.8372,0.8421,0.8493,0.8261,0.0,0.0,0.0,0.0,0.0,0.0,0.0,0.0,0.0,0.0,0.0,0.0,0.0,0.0,0.0,0.0,0.0,0.0,0.0,1.3935,1.4048,1.3966,0.0,0.0,0.0,0.0,0.0,0.0,0.0,0.0,0.0,1.4444,1.4737,1.4945,0.0,0.0,1.4525,1.4534,1.4257,1.4147,1.4288,1.4062,0.0,1.4118,1.4024,1.3959,1.4049,1.4211,1.4341,1.4405,1.4636,1.479,1.4843,1.5034,1.5232,1.5281,1.571,1.6032,1.6034,1.6244,1.6465,1.6492,1.6934,1.7526,0.6416,0.6792,0.6673,0.6638,0.6638,0.6987,0.745,0.7981,0.8048,0.8298,0.8681,0.8378,0.8263,0.8252,0.803,0.0,0.0,0.0,0.8377,0.8568,0.8731,0.9009,0.9401,0.9458,0.9547,0.9684,0.9859,0.9792,0.9535,0.9591,0.9523,0.9357,0.0,0.8997,0.8899,0.9198,0.9417,0.9495,0.9751,0.9798,0.9661,0.9537,0.9208,0.8661,0.8302,0.8079,0.8088,0.8062,0.8093,0.8241,0.8003,0.7792,0.0,0.0,0.0,0.0,0.0,0.0,0.0,0.0,0.0,0.0,0.0,1.0322,1.0769,0.0,0.0,0.0,1.3204,1.3752,1.3877,1.3996,0.0,0.0,0.0,0.0,0.0,0.0,0.0,1.3635,1.3905,1.4093,1.4156,1.4349,1.4536,1.4638,1.4402,1.4182,1.4251,0.0,1.392,1.4052,1.3854,1.3731,1.3863,1.3769,1.3693,1.3693,1.3873,1.4103,1.4389,1.4594,1.48,1.5064,1.524,1.5357,1.5357,1.5865,1.6269,1.6111,1.6386,1.6694,1.6694,1.717,1.7783,0.6564,0.6922,0.647,0.6274,0.6363,0.7035,0.7615,0.8086,0.8367,0.8692,0.8933,0.8872,0.8836,0.8808,0.8666,0.0,0.8622,0.8765,0.8825,0.8852,0.9046,0.9179,0.934,0.9449,0.9503,0.954,0.9872,0.9923,0.9682,0.9954,0.9932,0.954,0.904,0.8847,0.8975,0.8993,0.902,0.9039,0.9067,0.9002,0.8808,0.8562,0.8443,0.8432,0.8198,0.8094,0.8083,0.7968,0.7823,0.772,0.76,0.7458,0.7291,0.0,0.0,0.0,0.0,0.0,0.0,0.0,0.0,0.0,0.0,0.0,0.0,0.0,0.0,1.3119,1.3824,0.0,1.391,1.4128,0.0,0.0,0.0,1.3576,1.3595,1.3577,1.3545,1.3526,0.0,0.0,1.4047,1.4047,1.4114,1.4304,1.413,1.391,1.3721,1.3703,1.3693,1.3712,1.3693,1.3693,1.3712,1.3693,1.3723,1.3783,1.3753,1.3953,1.449,1.4639,1.4918,1.5402,1.5572,1.562,1.562,1.6131,1.6371,1.6,1.6412,1.6779,1.6831,1.7282,1.7884,0.6279,0.6626,0.6792,0.6987,0.7213,0.7384,0.7879,0.8583,0.8578,0.8935,0.9487,0.9275,0.9079,0.887,0.8843,0.8827,0.8832,0.8859,0.8968,0.9177,0.9237,0.9378,0.9579,0.9649,0.9665,0.9665,0.974,0.9645,0.9413,0.9479,0.9331,0.9002,0.875,0.8695,0.877,0.8863,0.8794,0.8558,0.8773,0.8853,0.8865,0.8764,0.8677,0.8552,0.8318,0.8149,0.8119,0.7968,0.7886,0.7859,0.772,0.7535,0.7319,0.6968,0.0,0.0,0.0,0.0,0.0,0.0,0.0,0.0,0.0,0.9459,1.0365,0.0,1.2121,0.0,1.3433,1.3663,1.374,1.3817,0.0,0.0,1.414,1.4328,1.4495,1.4768,1.4861,1.463,1.47,1.4669,1.448,1.446,1.448,1.453,1.4078,1.374,1.3693,1.3693,1.3693,1.3723,1.3714,1.3693,1.3723,1.3693,1.3803,1.4052,1.4082,1.4202,1.453,1.4818,1.5056,1.5205,1.5423,1.569,1.5939,1.6283,1.6532,1.6681,1.7036,1.7298,1.7327,1.7778,1.8384,0.6364,0.6729,0.6934,0.7322,0.7858,0.7862,0.819,0.8774,0.8871,0.9257,0.9693,0.9507,0.928,0.9076,0.9071,0.9076,0.9076,0.913,0.9264,0.9389,0.9492,0.959,0.9709,0.972,0.972,0.9709,0.9649,0.9556,0.9383,0.928,0.9101,0.8851,0.8677,0.8569,0.8503,0.8559,0.8551,0.8492,0.8731,0.8856,0.8867,0.8807,0.8687,0.8519,0.8302,0.8176,0.8088,0.7968,0.7903,0.7903,0.7842,0.7665,0.7397,0.7127,0.6849,0.0,0.0,0.0,0.0,0.0,0.0,0.0,0.0,0.0,0.0,0.0,1.2165,1.3266,1.3542,1.375,1.3948,1.4089,1.4229,1.4354,1.4662,1.4949,1.5057,1.5276,1.5349,1.5207,1.5186,1.5105,1.4993,1.4943,1.4943,1.4943,1.4669,1.4357,1.4151,1.4112,1.4112,1.4112,1.4112,1.4082,1.4112,1.4112,1.4172,1.4321,1.4381,1.4471,1.4769,1.4967,1.5145,1.5294,1.5601,1.5868,1.6076,1.6431,1.6785,1.6961,1.7256,1.7491,1.7508,1.7989,1.8561,0.6644,0.7069,0.7048,0.7535,0.8278,0.8392,0.8593,0.8836,0.9251,0.95,0.9676,0.9519,0.9405,0.9307,0.9302,0.9313,0.9334,0.9438,0.9497,0.9525,0.9683,0.9764,0.9714,0.9769,0.9764,0.9703,0.9546,0.9481,0.9454,0.9242,0.9022,0.8865,0.8677,0.8448,0.8188,0.8166,0.8318,0.8584,0.8767,0.8832,0.883,0.8814,0.8666,0.8448,0.8275,0.8176,0.8119,0.7963,0.7903,0.7903,0.7903,0.7799,0.7551,0.7312,0.7117,0.0,0.6623,0.0,0.0,0.0,0.0,0.0,0.0,0.0,0.0,1.121,1.2466,1.368,1.3969,1.418,1.436,1.4683,1.489,1.4919,1.5253,1.5513,1.5544,1.5575,1.5596,1.5576,1.5576,1.5566,1.5514,1.5525,1.5525,1.5504,1.5494,1.5299,1.4922,1.4761,1.4711,1.4711,1.4711,1.4701,1.4691,1.4701,1.4731,1.4751,1.4801,1.487,1.5178,1.5227,1.5306,1.5601,1.5868,1.6116,1.6205,1.6649,1.6991,1.7079,1.7303,1.7479,1.7537,1.7977,1.859,0.7002,0.7332,0.7738,0.7972,0.8181,0.8885,0.9277,0.9371,0.9359,0.9453,0.9519,0.9394,0.9323,0.9302,0.9302,0.9356,0.9454,0.9476,0.9541,0.9676,0.972,0.9688,0.9709,0.9693,0.9688,0.9703,0.9546,0.9432,0.9334,0.9163,0.8935,0.866,0.8519,0.8329,0.8126,0.0,0.0,0.0,0.8633,0.8708,0.887,0.8823,0.8704,0.8557,0.8345,0.0,0.8088,0.7968,0.7903,0.7903,0.7903,0.0,0.0,0.0,0.0,0.0,0.0,0.0,0.0,0.0,0.0,0.0,0.8653,0.9595,1.0443,1.2372,1.3746,1.4166,1.445,1.4654,1.4683,1.5067,1.5356,1.5528,1.5833,1.6128,1.6273,1.6519,1.6615,1.6456,1.6434,1.636,1.6137,1.6126,1.6136,1.6116,1.6126,1.6094,1.5978,1.5546,1.5268,1.5247,1.5248,1.5268,1.5247,1.5258,1.533,1.5494,1.5587,1.5626,1.5773,1.5821,1.5866,1.6012,1.6057,1.6294,1.6737,1.6932,1.7079,1.7373,1.7449,1.7479,1.7508,1.7977,1.859,0.7414,0.7599,0.7938,0.8238,0.0,0.9056,0.9348,0.9512,0.9564,0.9536,0.9487,0.9421,0.9362,0.9302,0.9302,0.9334,0.94,0.9459,0.9519,0.9616,0.9579,0.9583,0.9523,0.9432,0.9372,0.9313,0.9188,0.9136,0.907,0.8827,0.8687,0.8503,0.8329,0.8208,0.8119,0.7963,0.805,0.8355,0.8443,0.8502,0.8562,0.8567,0.8541,0.8361,0.8241,0.0,0.0,0.0,0.0,0.0,0.0,0.0,0.0,0.0,0.0,0.7426,0.7317,0.7359,0.7556,0.7679,0.7921,0.8337,0.9738,1.0963,1.1851,1.3326,1.4438,1.4945,1.5142,1.5266,1.5407,1.5704,1.5968,1.6091,1.638,1.6626,1.6764,1.6882,1.6958,1.6861,1.6829,1.6775,1.6667,1.6657,1.6657,1.6657,1.6657,1.6646,1.6603,1.6202,1.5846,1.5846,1.5836,1.5836,1.5846,1.5846,1.5877,1.6033,1.6033,1.6165,1.6355,1.6394,1.6409,1.6489,1.6612,1.6828,1.6955,1.7138,1.7303,1.7491,1.7638,1.7755,1.7755,1.8106,1.8619,0.7777,0.7791,0.8079,0.8457,0.8877,0.9017,0.9203,0.941,0.9617,0.0,0.0,0.9394,0.9351,0.9275,0.9275,0.9296,0.934,0.9416,0.9454,0.9454,0.9432,0.9362,0.9237,0.9122,0.8984,0.8881,0.8774,0.8709,0.8698,0.8492,0.8378,0.8334,0.8181,0.8072,0.805,0.7952,0.7952,0.8055,0.8242,0.8318,0.821,0.8334,0.828,0.8094,0.8088,0.8028,0.7908,0.7903,0.7903,0.7903,0.7903,0.7828,0.7736,0.7714,0.7665,0.7589,0.7533,0.7714,0.8083,0.8271,0.8672,0.9408,1.1103,1.2495,1.3316,1.4081,1.4869,1.5691,1.5807,1.591,1.6051,1.6396,1.6591,1.6591,1.6882,1.7066,1.7098,1.7163,1.7195,1.7163,1.7184,1.7163,1.7184,1.7206,1.7163,1.7195,1.7195,1.7195,1.7119,1.6721,1.638,1.6411,1.6401,1.64,1.641,1.64,1.6441,1.6547,1.6525,1.6638,1.6874,1.6956,1.6979,1.7047,1.7316,1.7366,1.7298,1.7434,1.7581,1.764,1.7838,1.8031,1.8165,1.8398,1.8823,0.814,0.8065,0.8444,0.8667,0.8744,0.8991,0.9068,0.9006,0.9141,0.9119,0.8995,0.8995,0.9044,0.9125,0.9119,0.9233,0.9449,0.9372,0.9329,0.9323,0.9195,0.9087,0.8927,0.8878,0.8847,0.878,0.8573,0.847,0.8454,0.8296,0.8209,0.8148,0.8136,0.8039,0.7935,0.7908,0.7908,0.793,0.8061,0.8181,0.8199,0.822,0.8198,0.8094,0.8083,0.8028,0.7908,0.7903,0.7903,0.7903,0.7903,0.7897,0.7875,0.7758,0.7736,0.7837,0.7731,0.7914,0.8484,0.8797,0.9756,1.1517,1.2747,1.3509,1.3669,1.4467,1.5275,1.5903,1.6215,1.6398,1.6429,1.6753,1.6915,1.6969,1.7238,1.7432,1.7432,1.7647,1.7808,1.7808,1.7872,1.784,1.7808,1.7808,1.7808,1.784,1.7744,1.7808,1.77,1.7313,1.6947,1.6904,1.6904,1.6904,1.6915,1.6904,1.7,1.7301,1.73,1.735,1.7551,1.7591,1.7625,1.7649,1.7737,1.7836,1.799,1.7943,1.7991,1.8133,1.8175,1.8202,1.8632,1.8939,1.9316,0.8484,0.8476,0.8874,0.9018,0.9002,0.9005,0.8968,0.8908,0.8867,0.8883,0.8914,0.8914,0.8911,0.9,0.9,0.906,0.9193,0.9103,0.9076,0.9071,0.8957,0.8905,0.8845,0.8731,0.8671,0.8694,0.8497,0.8388,0.8372,0.8264,0.8172,0.8155,0.8149,0.8122,0.8068,0.8033,0.8032,0.8001,0.799,0.8012,0.8035,0.8035,0.8013,0.7984,0.7984,0.7963,0.7903,0.7903,0.7903,0.7903,0.7903,0.7903,0.7903,0.7823,0.7818,0.7897,0.8097,0.8399,0.8826,0.988,1.1079,1.2516,1.3529,1.4327,1.49,1.5522,1.6056,1.6505,1.6688,1.6753,1.6785,1.7077,1.7271,1.7271,1.7561,1.7787,1.7787,1.7872,1.8001,1.8001,1.8001,1.8001,1.8001,1.8001,1.8001,1.8001,1.8001,1.8001,1.8013,1.7755,1.755,1.755,1.755,1.755,1.755,1.755,1.7615,1.7755,1.7776,1.7903,1.812,1.8204,1.8214,1.8284,1.8287,1.8278,1.8348,1.8374,1.8391,1.8369,1.861,1.8782,1.8933,1.9374,2.004,0.8837,0.8874,0.9163,0.9285,0.9247,0.9038,0.8946,0.8897,0.8725,0.8736,0.8859,0.8849,0.8849,0.8876,0.8876,0.8892,0.8914,0.8887,0.8876,0.8865,0.8785,0.8731,0.8748,0.8606,0.8552,0.8535,0.8432,0.8378,0.8334,0.8248,0.8204,0.8204,0.8204,0.8204,0.8204,0.8138,0.8126,0.8121,0.8028,0.7926,0.7903,0.7903,0.7903,0.7903,0.7903,0.7903,0.7903,0.7903,0.7903,0.7903,0.7903,0.7913,0.7941,0.7941,0.7957,0.8021,0.8384,0.8954,0.9696,1.1098,1.2459,1.3558,1.4373,1.528,1.6201,1.6698,1.6936,1.7012,1.7066,1.7109,1.7174,1.7432,1.7594,1.7626,1.7948,1.8141,1.8141,1.8194,1.8226,1.8238,1.8258,1.827,1.8238,1.8226,1.8325,1.8383,1.8351,1.8362,1.8409,1.8443,1.8443,1.8388,1.8222,1.7969,1.8001,1.7969,1.8001,1.8077,1.8141,1.8323,1.8579,1.872,1.8724,1.8755,1.8865,1.8836,1.8672,1.8809,1.8956,1.8945,1.9099,1.9223,1.9195,1.9722,2.05,0.923,0.9271,0.9266,0.9242,0.9125,0.9092,0.9017,0.8908,0.8812,0.8792,0.8825,0.8705,0.8693,0.8814,0.8819,0.884,0.8892,0.884,0.8819,0.8774,0.8694,0.86,0.86,0.8492,0.8432,0.8394,0.8296,0.8253,0.8253,0.8226,0.821,0.8204,0.8204,0.821,0.8204,0.8193,0.8188,0.8188,0.8177,0.8095,0.7913,0.7903,0.7903,0.7903,0.7908,0.7903,0.7919,0.7903,0.7903,0.7903,0.7908,0.7957,0.805,0.8097,0.8121,0.8182,0.8559,0.9506,1.1213,1.2523,1.3742,1.5056,1.5804,1.6548,1.726,1.7859,1.7849,1.7315,1.7314,1.7465,1.7464,1.7766,1.7971,1.8003,1.8314,1.8539,1.8571,1.8816,1.9008,1.8976,1.8912,1.8976,1.8936,1.896,1.9076,1.9214,1.9238,1.9298,1.9477,1.9525,1.9525,1.9411,1.879,1.8166,1.8111,1.8045,1.824,1.8498,1.8539,1.8667,1.8912,1.904,1.908,1.9095,1.9318,1.944,1.9486,1.9575,1.9685,1.9704,1.9607,1.9397,1.9672,1.9982,2.0486,0.9302,0.9302,0.9302,0.928,0.9231,0.913,0.9071,0.9011,0.8897,0.8878,0.8872,0.9029,0.8956,0.8699,0.866,0.8721,0.8731,0.8687,0.8694,0.866,0.8645,0.8623,0.8579,0.8541,0.8519,0.8519,0.8465,0.8443,0.8443,0.8443,0.8443,0.8443,0.8443,0.8443,0.8437,0.8378,0.8307,0.8339,0.8242,0.8155,0.81,0.8084,0.8089,0.8084,0.8084,0.8084,0.8084,0.8084,0.8089,0.8084,0.8053,0.8106,0.816,0.816,0.8277,0.855,0.9363,1.0466,1.1926,1.3046,1.4301,1.5639,1.6386,1.7163,1.7936,1.8266,1.8269,1.8127,1.8193,1.8259,1.8281,1.8463,1.8599,1.8608,1.8782,1.8892,1.8912,1.902,1.9104,1.9104,1.9104,1.9177,1.9322,1.9491,1.9624,1.97,1.9745,1.9805,1.9881,1.9881,1.9881,1.9823,1.9411,1.9184,1.9092,1.8962,1.8968,1.9018,1.8987,1.8988,1.9072,1.9296,1.9392,1.9392,1.9679,1.9871,1.9858,2.0081,2.0268,2.0216,1.9967,1.9657,1.9773,1.9903,2.0183,0.9334,0.9307,0.9302,0.9302,0.9296,0.9215,0.9218,0.9308,0.9192,0.9177,0.9311,0.9556,0.944,0.9041,0.9024,0.9024,0.9024,0.9024,0.9024,0.9024,0.9024,0.9024,0.9024,0.8985,0.8968,0.8968,0.8934,0.8889,0.8923,0.8889,0.8889,0.8889,0.8889,0.8851,0.8745,0.8629,0.853,0.8454,0.834,0.8296,0.8302,0.8296,0.8269,0.821,0.8204,0.8204,0.8204,0.8204,0.8204,0.8204,0.83,0.8381,0.8376,0.851,0.8779,0.9335,1.0266,1.1421,1.2659,1.3744,1.4983,1.6349,1.7066,1.7794,1.8578,1.8858,1.9019,1.917,1.9274,1.9274,1.8988,1.9137,1.9241,1.925,1.9268,1.9334,1.9346,1.9301,1.9346,1.9334,1.9382,1.9394,1.9555,1.9748,1.9914,1.9965,2.0023,2.0071,2.012,2.0156,2.0156,2.0098,2.0098,2.0026,1.9917,1.9691,1.9612,1.9479,1.9289,1.9213,1.9224,1.9488,1.9679,1.9711,2.0043,2.0234,2.0265,2.0494,2.0637,2.0398,2.0182,1.996,1.9816,1.9877,1.999,0.941,0.9307,0.9302,0.9338,0.9302,0.9332,0.9543,0.985,0.974,0.9865,1.013,1.0097,1.0058,1.0005,1.0005,1.004,0.9999,0.9953,0.9946,0.9946,0.9953,0.9999,1.0034,0.9905,0.981,0.9737,0.9646,0.9591,0.9613,0.964,0.9661,0.964,0.9619,0.9434,0.9173,0.9095,0.8911,0.8723,0.8679,0.8607,0.864,0.864,0.8503,0.8334,0.821,0.822,0.8247,0.821,0.8242,0.8242,0.8605,0.8805,0.8882,0.9252,0.9764,1.0505,1.1292,1.2322,1.3654,1.4777,1.6065,1.75,1.807,1.8733,1.9611,1.9915,2.0059,2.0221,2.0345,2.0182,1.9576,1.9638,1.9802,1.9835,1.9811,1.9842,1.9854,1.976,1.9833,1.9808,1.983,1.9808,1.989,1.9869,2.0071,2.0195,2.0301,2.0362,2.0531,2.0616,2.0603,2.0603,2.0579,2.0495,2.0059,1.9926,1.976,1.9726,1.9695,1.9557,1.9547,1.9616,1.9807,2.003,2.0361,2.0583,2.0634,2.0721,2.0818,2.0739,2.0619,2.0418,2.008,2.0134,2.0207,0.9416,0.9343,0.9554,0.9663,0.9699,0.9951,1.0131,1.0269,1.0227,1.0275,1.0447,1.0588,1.0676,1.0676,1.096,1.0716,1.014,1.0093,1.0093,1.0093,1.0093,1.0093,1.0087,1.0038,1.0019,1.0013,0.997,0.9952,0.9952,0.9952,0.9952,0.9952,0.9952,0.9877,0.9775,0.9741,0.9673,0.957,0.9536,0.957,0.953,0.9536,0.9523,0.9395,0.8767,0.8558,0.8754,0.8787,0.8886,0.9154,0.9318,0.9375,0.945,0.9951,1.0366,1.0777,1.1776,1.2914,1.4066,1.5318,1.6664,1.7984,1.8728,1.9333,1.9985,2.0265,2.0374,2.0531,2.0628,2.051,2.0355,2.0209,2.0168,2.0156,1.9989,1.9905,1.9881,1.9881,1.9881,1.9905,2.0047,2.0134,2.0204,2.0313,2.0458,2.0543,2.0567,2.0603,2.0664,2.07,2.07,2.0735,2.0861,2.0951,2.0838,2.0367,2.0141,2.0197,2.0182,2.01,2.005,2.0151,2.0349,2.0393,2.0697,2.0824,2.0887,2.0906,2.1002,2.0975,2.0886,2.0699,2.0401,2.0369,2.0289,0.9731,0.9797,1.0005,1.0095,1.0131,1.0383,1.0563,1.0642,1.0678,1.0743,1.0894,1.1116,1.1188,1.1224,1.1476,1.1268,1.0626,1.0579,1.0572,1.0579,1.0572,1.0607,1.0601,1.0528,1.0509,1.0496,1.0493,1.0439,1.0474,1.0474,1.0474,1.0467,1.0439,1.037,1.0266,1.0266,1.0231,1.0127,1.0093,1.0093,1.0093,1.0093,1.0093,0.9999,0.9433,0.9176,0.9407,0.9412,0.9514,0.9783,0.9881,1.0004,1.0199,1.0625,1.107,1.1544,1.2582,1.3694,1.4788,1.6108,1.7348,1.8474,1.9149,1.9772,2.033,2.0434,2.0531,2.0664,2.07,2.07,2.0676,2.0531,2.0434,2.0422,2.0277,2.0134,2.0168,2.0146,2.018,2.0217,2.0337,2.0422,2.0458,2.0591,2.0664,2.07,2.07,2.07,2.07,2.0804,2.0873,2.0873,2.1173,2.1346,2.134,2.1065,2.0835,2.0822,2.0764,2.0666,2.0584,2.0702,2.077,2.08,2.0887,2.1046,2.1109,2.1109,2.1096,2.1096,2.1002,2.0828,2.0641,2.0494,2.0406,1.0338,1.0608,1.0553,1.0504,1.051,1.057,1.0714,1.0972,1.1008,1.1188,1.144,1.1548,1.1512,1.1584,1.1584,1.157,1.1471,1.1422,1.1429,1.1465,1.1471,1.1471,1.1465,1.1344,1.1283,1.1276,1.1212,1.1185,1.1136,1.1143,1.1136,1.1185,1.1136,1.0942,1.0631,1.0657,1.0499,1.0303,1.0281,1.0228,1.0134,1.0234,1.024,1.0228,1.014,1.0093,1.0127,1.0081,1.0091,1.0153,1.0293,1.0631,1.1045,1.1224,1.1766,1.2833,1.3729,1.4757,1.5982,1.7115,1.8158,1.9061,1.9586,2.009,2.0534,2.0664,2.0676,2.0688,2.07,2.07,2.07,2.0676,2.0664,2.0688,2.0616,2.0603,2.064,2.0676,2.0688,2.0652,2.0652,2.0688,2.0688,2.0688,2.07,2.0735,2.077,2.0804,2.0873,2.1081,2.1185,2.1276,2.1518,2.176,2.1807,2.1781,2.1616,2.1497,2.1395,2.127,2.1155,2.1201,2.1101,2.1123,2.1009,2.1091,2.1109,2.1109,2.1109,2.1082,2.1029,2.0975,2.0855,2.0695,2.0579,1.0814,1.086,1.0987,1.107,1.1057,1.1191,1.1332,1.1404,1.1404,1.1476,1.1584,1.1584,1.1584,1.1584,1.1584,1.1584,1.1584,1.1584,1.1584,1.1584,1.1584,1.1584,1.157,1.1536,1.1545,1.1538,1.1504,1.1477,1.147,1.147,1.1477,1.1477,1.147,1.1406,1.1251,1.1299,1.1228,1.1157,1.1122,1.1122,1.1122,1.1122,1.1122,1.1122,1.1122,1.1122,1.1109,1.0687,1.0618,1.0826,1.0911,1.1139,1.1507,1.1806,1.238,1.3237,1.4231,1.5332,1.6608,1.7789,1.8822,1.9646,2.0153,2.0477,2.0653,2.07,2.07,2.07,2.07,2.07,2.07,2.07,2.07,2.07,2.07,2.07,2.07,2.07,2.07,2.07,2.07,2.07,2.07,2.07,2.0839,2.1,2.1047,2.1116,2.1393,2.1496,2.16,2.1656,2.1945,2.2138,2.2173,2.2242,2.2266,2.2081,2.1956,2.1792,2.1713,2.1548,2.1447,2.1285,2.1171,2.1091,2.1109,2.1109,2.1109,2.1109,2.1069,2.1029,2.0989,2.0882,2.0766,1.1365,1.1415,1.1534,1.1553,1.15,1.1619,1.1667,1.159,1.1584,1.1584,1.1584,1.1584,1.1584,1.1584,1.1584,1.1584,1.1584,1.1584,1.1584,1.1584,1.1584,1.1584,1.1584,1.1584,1.1584,1.1584,1.1584,1.1584,1.1584,1.1584,1.1584,1.1577,1.1584,1.1577,1.1584,1.1584,1.1584,1.1584,1.1577,1.1584,1.1584,1.1584,1.1584,1.1584,1.1584,1.1584,1.157,1.1182,1.1089,1.1286,1.128,1.1462,1.1862,1.2158,1.2773,1.3871,1.4828,1.5857,1.7056,1.83,1.9255,1.9866,2.0388,2.07,2.07,2.07,2.07,2.07,2.07,2.07,2.07,2.07,2.07,2.07,2.07,2.07,2.07,2.07,2.07,2.07,2.0804,2.0873,2.0873,2.1047,2.1151,2.138,2.1415,2.1449,2.176,2.1897,2.1966,2.207,2.231,2.2482,2.2551,2.2654,2.2825,2.269,2.2474,2.2328,2.2191,2.1879,2.171,2.1331,2.1149,2.1122,2.1109,2.1109,2.1109,2.1109,2.1109,2.1082,2.1042,2.1056,2.1011,1.1962,1.2284,1.2173,1.1999,1.1847,1.18,1.1712,1.1647,1.1584,1.1584,1.1584,1.1584,1.1584,1.1584,1.1584,1.1584,1.1584,1.1584,1.1584,1.1584,1.1584,1.1584,1.1584,1.1584,1.1584,1.1584,1.1584,1.1584,1.1584,1.1584,1.1584,1.1584,1.1584,1.1584,1.1584,1.1584,1.1584,1.1584,1.1584,1.1584,1.1584,1.1584,1.1584,1.1584,1.1584,1.1584,1.1577,1.1514,1.1556,1.1592,1.1463,1.1664,1.2128,1.2298,1.309,1.4448,1.5389,1.6285,1.7343,1.8589,1.9518,1.975,2.0318,2.07,2.07,2.07,2.07,2.07,2.07,2.07,2.07,2.07,2.07,2.07,2.07,2.07,2.0735,2.0735,2.0839,2.0873,2.1047,2.1242,2.1242,2.1531,2.1703,2.1807,2.1841,2.1863,2.2001,2.2207,2.231,2.2448,2.2654,2.2688,2.2722,2.2756,2.2893,2.2846,2.2724,2.2652,2.2465,2.2164,2.1836,2.1443,2.1176,2.1136,2.1109,2.1109,2.1109,2.1109,2.1109,2.1109,2.1109,2.1141,2.1317,1.2331,1.2427,1.2291,1.2203,1.2135,1.1901,1.178,1.1762,1.1624,1.159,1.1584,1.1584,1.1584,1.1584,1.1584,1.1584,1.1584,1.1584,1.1584,1.1584,1.1584,1.1584,1.1584,1.1584,1.1584,1.1584,1.1584,1.1584,1.1584,1.1584,1.1584,1.1584,1.1584,1.1584,1.1584,1.1584,1.1584,1.1584,1.1584,1.1584,1.1584,1.1584,1.1584,1.1584,1.1584,1.1584,1.1584,1.1584,1.1584,1.1584,1.1586,1.1759,1.2194,1.2505,1.3114,1.4082,1.5132,1.6129,1.7233,1.8422,1.9332,1.9936,2.0353,2.0665,2.07,2.07,2.07,2.07,2.07,2.07,2.07,2.07,2.07,2.07,2.077,2.0839,2.1012,2.1069,2.1173,2.1449,2.1565,2.1634,2.1669,2.1772,2.1932,2.2104,2.2207,2.2242,2.2413,2.2529,2.2619,2.2688,2.2825,2.2859,2.2859,2.2859,2.2893,2.2893,2.2846,2.2819,2.2592,2.2331,2.1957,2.1569,2.1296,2.1203,2.1149,2.1109,2.1109,2.1109,2.1109,2.1109,2.1204,2.1267,2.1583,1.2501,1.2494,1.2413,1.2345,1.2271,1.2101,1.1915,1.1793,1.1712,1.1631,1.1597,1.1584,1.1584,1.1584,1.1584,1.1584,1.1584,1.1584,1.1584,1.1584,1.1584,1.1584,1.1584,1.1584,1.1584,1.1584,1.1584,1.1584,1.1584,1.1584,1.1584,1.1584,1.1584,1.1584,1.1584,1.1584,1.1584,1.1584,1.1584,1.1584,1.1584,1.1584,1.1584,1.1584,1.1584,1.1584,1.1584,1.1584,1.1584,1.1584,1.1619,1.1799,1.2194,1.2581,1.3146,1.3868,1.4822,1.577,1.6805,1.7896,1.8843,1.9552,2.011,2.0492,2.0631,2.07,2.07,2.07,2.07,2.07,2.0735,2.0804,2.0873,2.0943,2.1081,2.1185,2.1254,2.1346,2.1565,2.176,2.1932,2.2001,2.2001,2.2138,2.231,2.2516,2.2551,2.2654,2.2825,2.2859,2.2893,2.2893,2.2893,2.2893,2.2893,2.2893,2.2893,2.2893,2.2893,2.2893,2.2693,2.2439,2.2158,2.181,2.1529,2.1328,2.1296,2.1229,2.1109,2.1109,2.1109,2.1109,2.1172,2.1425,2.1772,1.2501,1.2501,1.2501,1.2427,1.2325,1.2284,1.2128,1.1881,1.18,1.1719,1.1631,1.159,1.1584,1.1584,1.1584,1.1584,1.1584,1.1584,1.1584,1.1584,1.1584,1.1584,1.1584,1.1584,1.1584,1.1584,1.1584,1.1584,1.1584,1.1584,1.1584,1.1584,1.1584,1.1584,1.1584,1.1584,1.1584,1.1584,1.1584,1.1584,1.1584,1.1584,1.1584,1.1584,1.1584,1.1584,1.1584,1.1584,1.1584,1.1584,1.1584,1.1763,1.2158,1.251,1.3003,1.3682,1.4395,1.5212,1.6143,1.7228,1.8177,1.8912,1.9692,2.0226,2.0527,2.07,2.0804,2.0804,2.077,2.0908,2.0943,2.1116,2.1242,2.1323,2.1587,2.1622,2.1484,2.1622,2.1863,2.191,2.2207,2.2345,2.2448,2.2654,2.2859,2.2688,2.2756,2.2791,2.2859,2.2893,2.2893,2.2893,2.2893,2.2893,2.2893,2.2893,2.2893,2.2893,2.2893,2.2867,2.2686,2.2472,2.2298,2.2058,2.179,2.1662,2.1622,2.1489,2.1296,2.1203,2.1301,2.1203,2.1154,2.1551,2.1884,1.2501,1.2501,1.2501,1.2488,1.244,1.2338,1.225,1.2169,1.1895,1.1793,1.1732,1.1674,1.159,1.159,1.159,1.1584,1.1584,1.1584,1.1584,1.1584,1.1584,1.1584,1.159,1.164,1.1626,1.1626,1.1584,1.1619,1.1626,1.1597,1.1584,1.1584,1.1584,1.1584,1.1584,1.1584,1.1584,1.1584,1.1584,1.1584,1.1584,1.1584,1.1584,1.1584,1.1584,1.1584,1.1584,1.1584,1.1584,1.1584,1.1619,1.1727,1.1835,1.2151,1.2581,1.3075,1.3761,1.4617,1.5638,1.6734,1.7745,1.8538,1.9448,2.0144,2.0261,2.0804,2.1047,2.1138,2.1346,2.1484,2.1484,2.1587,2.1656,2.1725,2.1966,2.2173,2.2104,2.2138,2.231,2.2551,2.2688,2.2756,2.2756,2.2756,2.2893,2.2893,2.2893,2.2893,2.2893,2.2893,2.2893,2.2893,2.2893,2.2893,2.2893,2.2893,2.2893,2.2893,2.2893,2.2893,2.2712,2.2605,2.2458,2.2285,2.2117,2.201,2.193,2.185,2.167,2.1596,2.1494,2.1413,2.1474,2.1773,2.2024,1.2501,1.2501,1.2501,1.2501,1.2488,1.242,1.2352,1.2271,1.2128,1.2006,1.1918,1.1782,1.1685,1.1678,1.1617,1.1584,1.1584,1.1584,1.1617,1.1665,1.1692,1.1726,1.1823,1.1816,1.1803,1.1748,1.1803,1.1789,1.1742,1.1678,1.1687,1.1584,1.159,1.1584,1.1584,1.159,1.1584,1.1584,1.1584,1.1584,1.1584,1.1584,1.1584,1.1584,1.1584,1.1584,1.1584,1.1584,1.1727,1.1835,1.1871,1.1799,1.1691,1.1979,1.2302,1.2581,1.3218,1.4047,1.507,1.6134,1.7263,1.8317,1.9297,2.0028,2.0492,2.1,2.1276,2.1449,2.1656,2.1794,2.1794,2.1966,2.2001,2.2104,2.2379,2.2585,2.2585,2.2585,2.2654,2.2859,2.2859,2.2859,2.2893,2.2893,2.2893,2.2893,2.2893,2.2893,2.2893,2.2893,2.2893,2.2893,2.2893,2.2893,2.2893,2.2893,2.2893,2.2893,2.2893,2.2893,2.284,2.2726,2.2645,2.2498,2.2385,2.2258,2.2178,2.2111,2.2004,2.1857,2.1729,2.1706,2.1791,2.2061,2.2258,1.2501,1.2501,1.2501,1.2501,1.2501,1.2494,1.2433,1.2338,1.2298,1.2227,1.2125,1.1932,1.187,1.1807,1.1762,1.1694,1.1701,1.1708,1.1789,1.1857,1.187,1.1925,1.2043,1.204,1.2026,1.1881,1.1979,1.1965,1.1891,1.1857,1.1823,1.1714,1.1658,1.1735,1.1708,1.1694,1.1728,1.1735,1.1735,1.1728,1.1721,1.1721,1.1721,1.1728,1.1728,1.1728,1.1735,1.1794,1.1911,1.2201,1.2302,1.2144,1.1979,1.2051,1.2338,1.2409,1.3082,1.3789,1.4688,1.5647,1.6734,1.8131,1.9041,1.9924,2.0653,2.1173,2.1518,2.1794,2.2001,2.207,2.2001,2.2242,2.2379,2.2448,2.2688,2.2859,2.2893,2.2893,2.2859,2.2859,2.2893,2.2893,2.2893,2.2893,2.2893,2.2893,2.2893,2.2893,2.2893,2.2893,2.2893,2.2893,2.2893,2.2893,2.2893,2.2893,2.2893,2.2893,2.2893,2.2893,2.2893,2.2853,2.2752,2.2786,2.2679,2.2539,2.2458,2.2392,2.2285,2.2111,2.2037,2.2009,2.2187,2.2411,2.2536,1.2501,1.2501,1.2501,1.2501,1.2501,1.2501,1.2481,1.2447,1.2345,1.2277,1.2237,1.2132,1.2064,1.205,1.2043,1.2016,1.1982,1.1975,1.2016,1.2057,1.2064,1.2098,1.2152,1.2203,1.2223,1.2189,1.2186,1.2111,1.207,1.2057,1.2023,1.2016,1.1965,1.1996,1.1989,1.2023,1.1945,1.1932,1.1938,1.1975,1.1945,1.1945,1.1975,1.1975,1.2012,1.2019,1.2113,1.2305,1.2485,1.2401,1.2714,1.275,1.2669,1.2704,1.2839,1.2968,1.3182,1.3718,1.4688,1.5399,1.6285,1.7369,1.8528,1.9436,2.0318,2.1138,2.176,2.2173,2.2482,2.2654,2.2688,2.2688,2.2756,2.2791,2.2825,2.2893,2.2893,2.2893,2.2893,2.2893,2.2893,2.2893,2.2893,2.2893,2.2893,2.2893,2.2893,2.2893,2.2893,2.2893,2.2893,2.2893,2.2893,2.2893,2.2893,2.2893,2.2893,2.2893,2.2893,2.2893,2.2893,2.2893,2.288,2.2853,2.2853,2.2786,2.2733,2.2679,2.2552,2.2392,2.2392,2.2358,2.2558,2.2716,2.2783,1.2623,1.261,1.2535,1.2501,1.2501,1.2501,1.2501,1.2494,1.2427,1.24,1.2359,1.225,1.2176,1.2193,1.2125,1.2098,1.2104,1.2098,1.2145,1.2193,1.222,1.2268,1.2309,1.2366,1.2386,1.2379,1.2318,1.2237,1.2227,1.222,1.2179,1.2104,1.2098,1.2098,1.2098,1.2084,1.2104,1.2104,1.2104,1.2104,1.2104,1.2104,1.2104,1.2142,1.2335,1.2396,1.2471,1.2776,1.3067,1.3185,1.3383,1.3475,1.3483,1.345,1.3346,1.3169,1.3253,1.3718,1.4652,1.5292,1.6204,1.752,1.8468,1.9413,2.0318,2.1254,2.2001,2.2482,2.2688,2.2893,2.2859,2.2893,2.2893,2.2893,2.2893,2.2893,2.2893,2.2893,2.2893,2.2893,2.2893,2.2893,2.2893,2.2893,2.2893,2.2893,2.2893,2.2893,2.2893,2.2893,2.2893,2.2893,2.2893,2.2893,2.2893,2.2893,2.2893,2.2893,2.2893,2.2893,2.2893,2.2893,2.2893,2.2893,2.2893,2.2893,2.288,2.28,2.2746,2.2719,2.2686,2.2701,2.2877,2.299,2.3105,1.2773,1.2766,1.261,1.2549,1.2542,1.2515,1.2501,1.2501,1.2494,1.2494,1.2488,1.2386,1.2332,1.2305,1.2268,1.22,1.2186,1.22,1.2275,1.2311,1.2332,1.24,1.2467,1.2501,1.2488,1.2474,1.2467,1.2447,1.2352,1.2332,1.2257,1.2254,1.22,1.2186,1.2207,1.2347,1.2268,1.2299,1.2412,1.2412,1.2412,1.2412,1.2418,1.2412,1.2719,1.2921,1.298,1.3326,1.3619,1.3842,1.3989,1.4075,1.4188,1.4196,1.3854,1.3295,1.3312,1.3797,1.4439,1.5079,1.6028,1.7334,1.8282,1.9308,2.0457,2.1311,2.2173,2.2722,2.2893,2.2893,2.2893,2.2893,2.2893,2.2893,2.2893,2.2893,2.2893,2.2893,2.2893,2.2893,2.2893,2.2893,2.2907,2.2893,2.2893,2.2893,2.2893,2.2893,2.2893,2.2893,2.2893,2.2893,2.2893,2.2893,2.2893,2.2893,2.2893,2.2893,2.2893,2.2893,2.2893,2.2893,2.2893,2.2893,2.2893,2.2893,2.2893,2.2893,2.284,2.2827,2.2948,2.3106,2.3333,2.3435,2.3477,1.2975,1.2962,1.2766,1.2665,1.2645,1.2562,1.2508,1.2508,1.2508,1.2501,1.2501,1.2481,1.2461,1.2454,1.2447,1.2433,1.2433,1.2413,1.2413,1.2447,1.2454,1.2467,1.2494,1.2501,1.2501,1.2501,1.2501,1.2494,1.2538,1.2531,1.2499,1.2458,1.2515,1.2472,1.2577,1.28,1.2954,1.3055,1.3279,1.3432,1.3425,1.3425,1.3425,1.3425,1.3501,1.3563,1.3625,1.3961,1.4235,1.4156,1.445,1.4511,1.4416,1.4253,1.4188,1.3998,1.3974,1.4047,1.4483,1.4963,1.5648,1.6854,1.7702,1.8749,2.025,2.1549,2.2402,2.2791,2.292,2.2934,2.296,2.292,2.2907,2.296,2.3027,2.3,2.2974,2.3148,2.3121,2.2953,2.2993,2.2947,2.2907,2.2907,2.2893,2.2893,2.2893,2.2893,2.2893,2.2893,2.2893,2.2893,2.2893,2.2893,2.2893,2.2893,2.2893,2.2893,2.2893,2.2893,2.2893,2.2893,2.2893,2.2893,2.2893,2.2893,2.2893,2.2893,2.2893,2.2996,2.3099,2.3441,2.3856,2.3865,2.3808,1.32,1.3105,1.2922,1.2861,1.284,1.2659,1.2591,1.2571,1.2542,1.2501,1.2501,1.2501,1.2501,1.2501,1.2501,1.2494,1.2501,1.2501,1.2501,1.2501,1.2501,1.2501,1.2501,1.2501,1.2501,1.2501,1.254,1.2656,1.2733,1.2811,1.2849,1.2849,1.3042,1.3221,1.3081,1.3351,1.3428,1.346,1.3583,1.3706,1.3706,1.3706,1.3706,1.3744,1.3975,1.4091,1.4207,1.4507,1.4675,1.4626,1.4816,1.4773,1.4627,1.4513,1.4448,1.431,1.4217,1.4296,1.4534,1.4943,1.5659,1.6566,1.7653,1.9165,2.0781,2.19,2.2631,2.307,2.3126,2.3126,2.3126,2.3126,2.3268,2.3322,2.3322,2.3348,2.3348,2.3402,2.3442,2.3247,2.3113,2.3046,2.3014,2.296,2.2947,2.2893,2.2893,2.2893,2.2893,2.2893,2.2893,2.2893,2.2893,2.2893,2.2893,2.2893,2.2893,2.2893,2.2893,2.2893,2.2893,2.2893,2.2893,2.2893,2.2893,2.2893,2.2893,2.2893,2.2928,2.3099,2.3304,2.3679,2.404,2.3988,2.3946,1.3336,1.3261,1.3111,1.3057,1.3037,1.2847,1.2759,1.2672,1.261,1.2542,1.2508,1.2501,1.2501,1.2501,1.2501,1.2501,1.2501,1.2501,1.2501,1.2501,1.2501,1.2501,1.2501,1.2501,1.2501,1.2501,1.2501,1.2695,1.2965,1.3158,1.3235,1.3281,1.3474,1.3621,1.3698,1.3821,1.3937,1.4083,1.4083,1.4122,1.4083,1.4083,1.4083,1.4168,1.4322,1.4553,1.4592,1.4814,1.496,1.496,1.4952,1.4917,1.4781,1.47,1.4619,1.4505,1.4395,1.4375,1.4617,1.4971,1.5641,1.6604,1.786,1.9467,2.1186,2.2133,2.2704,2.3166,2.3399,2.3399,2.3434,2.3434,2.3514,2.3656,2.3736,2.379,2.3803,2.375,2.3696,2.3562,2.338,2.326,2.3166,2.3081,2.3,2.292,2.2893,2.2893,2.2893,2.2893,2.2893,2.2893,2.2893,2.2893,2.2893,2.2893,2.2893,2.2893,2.2893,2.2893,2.2893,2.2893,2.2893,2.2893,2.2893,2.2893,2.2893,2.2928,2.2996,2.3236,2.3509,2.3884,2.4153,2.4142,2.4156,1.3397,1.337,1.322,1.32,1.3186,1.305,1.2868,1.2773,1.2693,1.2637,1.2535,1.2501,1.2501,1.2501,1.2501,1.2501,1.2501,1.2501,1.2501,1.2501,1.2501,1.2501,1.2501,1.2501,1.254,1.254,1.2617,1.2811,1.312,1.359,1.3628,1.3706,1.3898,1.3783,1.3898,1.4207,1.4476,1.4661,1.4737,1.4776,1.4776,1.4776,1.4814,1.4814,1.4891,1.4968,1.4968,1.5006,1.5006,1.5006,1.5006,1.5006,1.4933,1.4806,1.4724,1.4684,1.4578,1.4518,1.4654,1.4916,1.5478,1.6526,1.7923,1.9606,2.1123,2.1787,2.2371,2.3184,2.3563,2.3741,2.3741,2.379,2.3794,2.3915,2.3995,2.4031,2.3981,2.3928,2.3861,2.3803,2.371,2.3567,2.342,2.3313,2.3067,2.296,2.2893,2.2893,2.2893,2.2893,2.2893,2.2893,2.2893,2.2893,2.2893,2.2893,2.2893,2.2893,2.2893,2.2893,2.2893,2.2893,2.2893,2.2893,2.2893,2.2893,2.2928,2.2996,2.3133,2.3372,2.3713,2.4122,2.4419,2.4511,2.4548,1.3397,1.3397,1.3336,1.3315,1.3302,1.3152,1.3098,1.299,1.2908,1.2786,1.2637,1.2549,1.2501,1.2508,1.2501,1.2501,1.2501,1.2501,1.2501,1.2501,1.2501,1.2501,1.2501,1.2592,1.2617,1.2824,1.2895,1.3274,1.3898,1.4014,1.4276,1.443,1.443,1.4507,1.4622,1.4584,1.4814,1.493,1.5006,1.5006,1.5006,1.5006,1.5006,1.5006,1.5006,1.5006,1.5006,1.5006,1.5006,1.5006,1.5006,1.5006,1.5015,1.4933,1.4879,1.4871,1.4773,1.4749,1.4792,1.5127,1.5806,1.7236,1.8492,1.9702,2.099,2.1994,2.2714,2.3318,2.3783,2.3999,2.4035,2.4048,2.4102,2.4222,2.4275,2.4249,2.4222,2.4182,2.4128,2.4062,2.3995,2.3901,2.3754,2.3607,2.3273,2.3014,2.2947,2.2907,2.2934,2.2907,2.2893,2.2893,2.2893,2.2893,2.2893,2.2893,2.2893,2.2893,2.2893,2.2893,2.2893,2.2893,2.2893,2.2893,2.2893,2.2893,2.2962,2.3099,2.3338,2.3611,2.3986,2.4428,2.4641,2.4853,2.4828,1.3397,1.3397,1.3397,1.3397,1.3383,1.3288,1.3254,1.32,1.3105,1.2982,1.2793,1.2684,1.2637,1.2637,1.2644,1.261,1.2603,1.2576,1.2542,1.2535,1.2549,1.2562,1.2622,1.278,1.3063,1.3248,1.3392,1.378,1.433,1.4392,1.4592,1.4814,1.5006,1.4968,1.4968,1.5006,1.5006,1.5006,1.5006,1.5006,1.5006,1.5006,1.5006,1.5006,1.5006,1.5006,1.5006,1.5006,1.5006,1.5006,1.5006,1.5006,1.5023,1.5009,1.5041,1.5041,1.5041,1.508,1.5116,1.54,1.6054,1.7265,1.8204,1.9461,2.0823,2.191,2.251,2.3221,2.3745,2.4183,2.4256,2.4342,2.4369,2.4439,2.4452,2.4439,2.4452,2.4426,2.4372,2.4319,2.4289,2.4222,2.3981,2.3821,2.3621,2.33,2.3153,2.31,2.306,2.2993,2.2893,2.2893,2.2893,2.2893,2.2893,2.292,2.2947,2.2893,2.2893,2.2893,2.2893,2.2907,2.2907,2.2893,2.2893,2.2893,2.303,2.327,2.3577,2.3884,2.4292,2.4747,2.4834,2.4993,2.5008,1.3397,1.3397,1.3397,1.3397,1.3397,1.3397,1.3308,1.3241,1.32,1.3118,1.2996,1.2962,1.2948,1.2948,1.2914,1.282,1.2739,1.2718,1.2671,1.2617,1.2678,1.2679,1.2917,1.3209,1.3475,1.3637,1.3867,1.421,1.4641,1.4586,1.4755,1.4907,1.5031,1.5006,1.5006,1.5006,1.5006,1.5006,1.5006,1.5006,1.5006,1.5006,1.5006,1.5006,1.5006,1.5006,1.5006,1.5006,1.5006,1.5006,1.5006,1.5006,1.5015,1.509,1.5108,1.5124,1.514,1.5156,1.5195,1.5427,1.605,1.6912,1.7873,1.8822,1.9881,2.0973,2.2135,2.2917,2.3584,2.4127,2.4375,2.4559,2.4572,2.4586,2.4586,2.4599,2.4599,2.4599,2.4519,2.4479,2.4506,2.4479,2.4235,2.4008,2.3901,2.3688,2.3474,2.3319,2.3287,2.3233,2.3161,2.3148,2.3161,2.3161,2.3174,2.3027,2.2987,2.2934,2.2947,2.2966,2.296,2.2934,2.292,2.2907,2.2893,2.2893,2.3167,2.3441,2.385,2.4238,2.4679,2.5018,2.5052,2.51,2.51,1.3397,1.3397,1.3397,1.3397,1.3397,1.3397,1.337,1.3308,1.322,1.3186,1.3125,1.305,1.3003,1.3003,1.3009,1.2982,1.2895,1.2921,1.2867,1.2853,1.2901,1.3067,1.33,1.3575,1.3964,1.4341,1.4598,1.4821,1.5217,1.4962,1.4968,1.51,1.5065,1.5006,1.5006,1.5006,1.5006,1.5006,1.5006,1.5006,1.5006,1.5006,1.5006,1.5006,1.5006,1.5006,1.5006,1.5006,1.5006,1.5006,1.5006,1.5006,1.5006,1.5074,1.5082,1.5074,1.5065,1.5057,1.5088,1.5245,1.5697,1.6615,1.7493,1.8433,1.9682,2.0898,2.1873,2.2694,2.3438,2.4044,2.4475,2.4586,2.4586,2.4586,2.4599,2.4599,2.4599,2.4599,2.4572,2.4559,2.4572,2.4572,2.4399,2.4302,2.4195,2.4088,2.3852,2.3701,2.3607,2.3607,2.3576,2.3576,2.3576,2.3549,2.3482,2.3348,2.3335,2.3375,2.326,2.3158,2.3126,2.3014,2.2934,2.2893,2.2893,2.2928,2.3236,2.3611,2.4156,2.4611,2.4916,2.51,2.51,2.51,2.51,1.3397,1.3397,1.3397,1.3397,1.3397,1.3397,1.3397,1.3383,1.3295,1.3254,1.3234,1.3193,1.3159,1.3159,1.3152,1.3064,1.3084,1.3077,1.3016,1.3063,1.3218,1.3426,1.3642,1.404,1.4559,1.499,1.5177,1.5361,1.5553,1.5383,1.5302,1.5262,1.5212,1.5212,1.5194,1.5129,1.5006,1.5006,1.5006,1.5006,1.5006,1.5006,1.5006,1.5006,1.5006,1.5006,1.5006,1.5006,1.5006,1.5015,1.5015,1.5015,1.5023,1.5025,1.5049,1.5057,1.5104,1.508,1.5031,1.5015,1.5505,1.6233,1.715,1.8054,1.9191,2.0285,2.1349,2.2284,2.3265,2.3896,2.4304,2.4414,2.4599,2.4599,2.4599,2.4599,2.4599,2.4599,2.4599,2.4599,2.4599,2.4599,2.4599,2.4572,2.4479,2.4386,2.4279,2.4115,2.3964,2.3924,2.3897,2.3884,2.3843,2.3763,2.3723,2.3696,2.371,2.379,2.3621,2.3385,2.322,2.3046,2.2987,2.2893,2.2893,2.2996,2.3338,2.3782,2.4258,2.4645,2.4984,2.51,2.51,2.51,2.51,1.3397,1.3397,1.3397,1.3397,1.3397,1.3397,1.3397,1.3397,1.3397,1.339,1.339,1.337,1.3342,1.337,1.3376,1.3302,1.32,1.3227,1.3159,1.324,1.3511,1.3736,1.4201,1.4724,1.5141,1.5436,1.5592,1.5659,1.5764,1.5601,1.552,1.5488,1.5439,1.5415,1.5333,1.522,1.5104,1.508,1.5023,1.5015,1.5006,1.5006,1.5006,1.5006,1.5006,1.5006,1.5015,1.4992,1.5039,1.5047,1.5055,1.5047,1.5088,1.5155,1.5164,1.5181,1.5195,1.509,1.5039,1.5006,1.5237,1.5812,1.6501,1.7188,1.8281,1.972,2.0898,2.191,2.2843,2.3438,2.397,2.4304,2.4599,2.4599,2.4599,2.4599,2.4599,2.4599,2.4599,2.4599,2.4599,2.4599,2.4599,2.4599,2.4599,2.4546,2.4439,2.4372,2.4222,2.4075,2.4048,2.4022,2.3968,2.3937,2.3924,2.3981,2.4022,2.4102,2.3781,2.3567,2.334,2.3193,2.3073,2.2993,2.2934,2.3112,2.3543,2.3918,2.4258,2.4645,2.5018,2.51,2.51,2.51,2.51,1.3397,1.3397,1.3397,1.3397,1.3397,1.3397,1.3397,1.3397,1.3397,1.3397,1.3397,1.3397,1.3397,1.3397,1.3397,1.337,1.3349,1.3336,1.3315,1.3466,1.3781,1.4138,1.4579,1.5062,1.5505,1.5736,1.586,1.5902,1.5918,1.578,1.5618,1.5528,1.5569,1.5553,1.5512,1.5415,1.5293,1.5171,1.5082,1.5072,1.5047,1.5055,1.5047,1.5055,1.5055,1.5055,1.5063,1.5114,1.5147,1.5163,1.5285,1.5342,1.5366,1.5254,1.5173,1.5057,1.5072,1.5047,1.5015,1.5006,1.5223,1.571,1.6421,1.715,1.8168,1.9401,2.0733,2.1648,2.2657,2.3438,2.397,2.4304,2.4525,2.4599,2.4599,2.4599,2.4599,2.4599,2.4599,2.4599,2.4599,2.4599,2.4599,2.4599,2.4599,2.4599,2.4572,2.4519,2.4452,2.4329,2.4262,2.4235,2.4235,2.4195,2.4302,2.4396,2.4409,2.4332,2.4048,2.3821,2.3768,2.3594,2.3313,2.3126,2.3067,2.3351,2.3816,2.4088,2.4272,2.4713,2.51,2.51,2.51,2.51,2.51,1.3397,1.3397,1.3397,1.3397,1.3397,1.3397,1.3397,1.3397,1.3397,1.3397,1.3397,1.3397,1.3397,1.3397,1.3397,1.3397,1.339,1.3383,1.3376,1.35,1.4025,1.4375,1.4796,1.5298,1.5719,1.5925,1.6007,1.5983,1.5975,1.5918,1.5813,1.5723,1.5683,1.5683,1.5675,1.5658,1.5561,1.5431,1.5317,1.5243,1.521,1.5171,1.5179,1.5202,1.5163,1.5202,1.521,1.5301,1.5333,1.531,1.5488,1.5512,1.5464,1.5359,1.5294,1.5228,1.5228,1.5236,1.5259,1.5446,1.5616,1.6035,1.6754,1.7556,1.847,1.9586,2.0627,2.1574,2.2657,2.3562,2.397,2.4304,2.4451,2.4599,2.4599,2.4599,2.4599,2.4599,2.4599,2.4599,2.4599,2.4599,2.4599,2.4599,2.4599,2.4599,2.4599,2.4572,2.4559,2.4492,2.4452,2.4439,2.4479,2.4506,2.4599,2.4599,2.4546,2.4439,2.4226,2.4102,2.4115,2.3901,2.3541,2.3327,2.318,2.3556,2.3947,2.4014,2.4204,2.4679,2.51,2.51,2.51,2.51,2.51,1.3397,1.3397,1.3397,1.3397,1.3397,1.3397,1.3397,1.3397,1.3397,1.3397,1.3397,1.3397,1.3397,1.3397,1.3397,1.3397,1.3397,1.3397,1.3486,1.3486,1.4266,1.4672,1.5051,1.5546,1.5883,1.5966,1.6007,1.6007,1.6007,1.5966,1.595,1.6007,1.5966,1.5934,1.5894,1.5853,1.5772,1.5731,1.5618,1.5528,1.5472,1.5488,1.5512,1.5488,1.548,1.548,1.5496,1.552,1.5536,1.5536,1.5569,1.5593,1.5553,1.5545,1.552,1.5472,1.5431,1.5502,1.5612,1.5849,1.623,1.6722,1.7438,1.8318,1.9194,1.9958,2.0931,2.1857,2.294,2.3768,2.4269,2.4631,2.4855,2.4813,2.4783,2.4679,2.4613,2.4599,2.4599,2.4599,2.4599,2.4599,2.4599,2.4599,2.4599,2.4599,2.4599,2.4599,2.4599,2.4599,2.4599,2.4599,2.4599,2.4599,2.4599,2.4599,2.4599,2.4492,2.4346,2.4306,2.4315,2.4062,2.3714,2.3589,2.3499,2.3693,2.397,2.4168,2.4439,2.4781,2.51,2.51,2.51,2.51,2.51,1.3397,1.3397,1.3397,1.3397,1.3397,1.3397,1.3397,1.3397,1.3397,1.3397,1.3397,1.3397,1.3397,1.3397,1.3397,1.3397,1.3397,1.3486,1.3652,1.3942,1.4514,1.4927,1.5216,1.5711,1.5966,1.6007,1.6007,1.6007,1.6007,1.6007,1.6007,1.6007,1.6007,1.6007,1.6007,1.5918,1.591,1.5894,1.5853,1.5699,1.5553,1.5536,1.5512,1.5528,1.5536,1.5561,1.5585,1.5658,1.5691,1.5764,1.5861,1.5837,1.5723,1.5715,1.5642,1.5553,1.5561,1.5729,1.6008,1.6287,1.6726,1.7524,1.8306,1.9153,1.9925,2.0619,2.1427,2.2339,2.3197,2.3985,2.4593,2.4959,2.5197,2.5077,2.4957,2.4836,2.4653,2.4613,2.4613,2.4599,2.4599,2.4599,2.4599,2.4599,2.4599,2.4599,2.4599,2.4599,2.4599,2.4599,2.4599,2.4599,2.4599,2.4599,2.4599,2.4599,2.4599,2.4599,2.4492,2.4479,2.4479,2.4275,2.4008,2.3915,2.3868,2.4092,2.4303,2.4586,2.4879,2.5096,2.51,2.51,2.51,2.51,2.51,1.3397,1.3397,1.3397,1.3397,1.3397,1.3397,1.3397,1.3397,1.3397,1.3397,1.3397,1.3397,1.3397,1.3397,1.3397,1.3397,1.3438,1.3652,1.3818,1.419,1.4679,1.5092,1.5505,1.5801,1.5925,1.6007,1.6007,1.6007,1.6007,1.6007,1.6007,1.6007,1.6007,1.6007,1.6007,1.6007,1.6007,1.5999,1.6007,1.5885,1.5691,1.5691,1.5707,1.5707,1.5707,1.5699,1.5732,1.5845,1.5869,1.5902,1.5942,1.5942,1.5869,1.5894,1.5845,1.5796,1.5812,1.595,1.6336,1.6851,1.7324,1.8196,1.9464,2.0442,2.108,2.1784,2.2463,2.3361,2.3894,2.4673,2.4979,2.5346,2.5384,2.5304,2.5237,2.5157,2.4879,2.4706,2.4653,2.4599,2.4599,2.4599,2.4599,2.4599,2.4599,2.4599,2.4599,2.4599,2.4599,2.4599,2.4599,2.4599,2.4599,2.4599,2.4599,2.4599,2.4599,2.4599,2.4599,2.4572,2.4519,2.4476,2.4365,2.4197,2.4223,2.4492,2.4721,2.4973,2.5135,2.5271,2.5213,2.51,2.51,2.5115,2.51,1.3397,1.3397,1.3397,1.3397,1.3397,1.3397,1.3397,1.3397,1.3397,1.3397,1.3397,1.3397,1.3397,1.3397,1.3397,1.3397,1.3521,1.3818,1.4025,1.4397,1.501,1.534,1.5587,1.5842,1.5925,1.6007,1.6007,1.6007,1.6007,1.6007,1.6007,1.6007,1.6007,1.6007,1.6007,1.6007,1.6007,1.6007,1.6007,1.6007,1.5991,1.6007,1.5966,1.5983,1.6007,1.6007,1.5999,1.5999,1.5999,1.5999,1.5991,1.5983,1.5983,1.5958,1.5966,1.5926,1.5918,1.6254,1.6762,1.7439,1.8109,1.9084,2.0546,2.1497,2.2108,2.2847,2.3569,2.4192,2.4765,2.5138,2.5446,2.5613,2.5638,2.5545,2.5504,2.5398,2.5117,2.485,2.4733,2.4639,2.4599,2.4599,2.4599,2.4599,2.4599,2.4599,2.4599,2.4599,2.4599,2.4599,2.4599,2.4599,2.4599,2.4599,2.4599,2.4599,2.4599,2.4599,2.4599,2.4599,2.4572,2.4519,2.4462,2.4428,2.4508,2.4867,2.5079,2.5271,2.54,2.5553,2.5369,2.5242,2.5217,2.5203,2.5115,1.3397,1.3397,1.3397,1.3397,1.3397,1.3397,1.3397,1.3397,1.3397,1.3397,1.3397,1.3397,1.3397,1.3397,1.3397,1.3438,1.3569,1.3942,1.4307,1.4672,1.5216,1.5587,1.5793,1.5883,1.5966,1.6007,1.6007,1.6007,1.6007,1.6007,1.6007,1.6007,1.6007,1.6007,1.6007,1.6007,1.6007,1.6007,1.6007,1.6007,1.6007,1.6007,1.6007,1.6007,1.6007,1.6007,1.6007,1.6007,1.6007,1.6007,1.6007,1.6007,1.6007,1.6007,1.6007,1.6007,1.6007,1.646,1.7067,1.7723,1.8419,1.9561,2.086,2.1911,2.2694,2.3684,2.441,2.5162,2.561,2.5727,2.6015,2.6093,2.6106,2.5852,2.5732,2.5478,2.5197,2.5037,2.4917,2.4783,2.4613,2.4613,2.4599,2.4599,2.4599,2.4599,2.4599,2.4599,2.4599,2.4599,2.4599,2.4599,2.4599,2.4599,2.4599,2.4599,2.4599,2.4599,2.4599,2.4599,2.4599,2.4599,2.4556,2.4499,2.4925,2.5366,2.5518,2.5527,2.5802,2.5874,2.5617,2.5427,2.5388,2.5286,2.5213]},{"header":{"parameterUnit":"m.s-1","parameterCategory":1,"la1":31.0,"la2":29.5877,"lo1":-88.7671,"lo2":-86.6584,"dy":0.0162,"dx":0.0185,"nx":115,"ny":88,"refTime":"2024-06-20T06:00:00:Z","depth":0,"parameterNumber":3,"parameterNumberName":"V-component_of_WINDS"},"data":[0.0,0.0,0.0,0.0,0.0,0.0,0.0,0.0,0.0,0.0,0.0,0.0,0.0,0.0,0.0,0.0,0.0,0.0,0.0,0.0,0.0,0.0,0.0,0.0,0.0,0.0,0.0,0.0,0.0,0.0,0.0,0.0,0.0,0.0,0.0,0.0,0.0,0.0,0.0,0.0,0.0,0.0,0.0,0.0,0.0,0.0,0.0,0.0,0.0,0.0,0.0,0.0,0.0,0.0,0.0,0.0,0.0,0.0,0.0,0.0,0.0,0.0,0.0,0.0,0.0,0.0,0.0,0.0,0.0,0.0,0.0,0.0,0.0,0.0,0.0,0.0,0.0,0.0,0.0,0.0,0.0,0.0,0.0,0.0,0.0,0.0,0.0,0.0,0.0,0.0,0.0,0.0,0.0,0.0,0.0,0.0,0.0,0.0,0.0,0.0,0.0,0.0,0.0,0.0,0.0,0.0,0.0,0.0,0.0,0.0,0.0,0.0,0.0,0.0,0.0,0.0,0.0,0.0,0.0,0.0,0.0,0.0,0.0,0.0,0.0,0.0,0.0,0.0,0.0,0.0,0.0,0.0,0.0,0.0,0.0,0.0,0.0,0.0,0.0,0.0,0.0,0.0,0.0,0.0,0.0,0.0,0.0,0.0,0.0,0.0,0.0,0.0,0.0,0.0,0.0,0.0,0.0,0.0,0.0,0.0,0.0,0.0,0.0,0.0,0.0,0.0,0.0,0.0,0.0,0.0,0.0,0.0,0.0,0.0,0.0,0.0,0.0,0.0,0.0,0.0,0.0,0.0,0.0,0.0,0.0,0.0,0.0,0.0,0.0,0.0,0.0,0.0,0.0,0.0,0.0,0.0,0.0,0.0,0.0,0.0,0.0,0.0,0.0,0.0,0.0,0.0,0.0,0.0,0.0,0.0,0.0,0.0,0.0,0.0,0.0,0.0,0.0,0.0,0.0,0.0,0.0,0.0,0.0,0.0,0.0,0.0,0.0,0.0,0.0,0.0,0.0,0.0,0.0,0.0,0.0,0.0,0.0,0.0,0.0,0.0,0.0,0.0,0.0,0.0,0.0,0.0,0.0,0.0,0.0,0.0,0.0,0.0,0.0,0.0,0.0,0.0,0.0,0.0,0.0,0.0,0.0,0.0,0.0,0.0,0.0,0.0,0.0,0.0,0.0,0.0,0.0,0.0,0.0,0.0,0.0,0.0,0.0,0.0,0.0,0.0,0.0,0.0,0.0,0.0,0.0,0.0,0.0,0.0,0.0,0.0,0.0,0.0,0.0,0.0,0.0,0.0,0.0,0.0,0.0,0.0,0.0,0.0,0.0,0.0,0.0,0.0,0.0,0.0,0.0,0.0,0.0,0.0,0.0,0.0,0.0,0.0,0.0,0.0,0.0,0.0,0.0,0.0,0.0,0.0,0.0,0.0,0.0,0.0,0.0,0.0,0.0,0.0,0.0,0.0,0.0,0.0,0.0,0.0,0.0,0.0,0.0,0.0,0.0,0.0,0.0,0.0,0.0,0.0,0.0,0.0,0.0,0.0,0.0,0.0,0.0,0.0,0.0,0.0,0.0,0.0,0.0,0.0,0.0,0.0,0.0,0.0,0.0,0.0,0.0,0.0,0.0,0.0,0.0,0.0,0.0,0.0,0.0,0.0,0.0,0.0,0.0,0.0,0.0,0.0,0.0,0.0,0.0,0.0,0.0,0.0,0.0,0.0,0.0,0.0,0.0,0.0,0.0,0.0,0.0,0.0,0.0,0.0,0.0,0.0,0.0,0.0,0.0,0.0,0.0,0.0,0.0,0.0,0.0,0.0,0.0,0.0,0.0,0.0,0.0,0.0,0.0,0.0,0.0,0.0,0.0,0.0,0.0,0.0,0.0,0.0,0.0,0.0,0.0,0.0,0.0,0.0,0.0,0.0,0.0,0.0,0.0,0.0,0.0,0.0,0.0,0.0,0.0,0.0,0.0,0.0,0.0,0.0,0.0,0.0,0.0,0.0,0.0,0.0,0.0,0.0,0.0,0.0,0.0,0.0,0.0,0.0,0.0,0.0,0.0,0.0,0.0,0.0,0.0,0.0,0.0,0.0,0.0,0.0,0.0,0.0,0.0,0.0,0.0,0.0,0.0,0.0,0.0,0.0,0.0,0.0,0.0,0.0,0.0,0.0,0.0,0.0,0.0,0.0,0.0,0.0,0.0,0.0,0.0,0.0,0.0,0.0,0.0,0.0,0.0,0.0,0.0,0.0,0.0,0.0,0.0,0.0,0.0,0.0,0.0,0.0,0.0,0.0,0.0,0.0,0.0,0.0,0.0,0.0,0.0,0.0,0.0,0.0,0.0,0.0,0.0,0.0,0.0,0.0,0.0,0.0,0.0,0.0,0.0,0.0,0.0,0.0,0.0,0.0,0.0,0.0,0.0,0.0,0.0,0.0,0.0,0.0,0.0,0.0,0.0,0.0,0.0,0.0,0.0,0.0,0.0,0.0,0.0,0.0,0.0,0.0,0.0,0.0,0.0,0.0,0.0,0.0,0.0,0.0,0.0,0.0,0.0,0.0,0.0,0.0,0.0,0.0,0.0,0.0,0.0,0.0,0.0,0.0,0.0,0.0,0.0,0.0,0.0,0.0,0.0,0.0,0.0,0.0,0.0,0.0,0.0,0.0,0.0,0.0,0.0,0.0,0.0,0.0,0.0,0.0,0.0,0.0,0.0,0.0,0.0,0.0,0.0,0.0,0.0,0.0,0.0,0.0,0.0,0.0,0.0,0.0,0.0,0.0,0.0,0.0,0.0,0.0,0.0,0.0,0.0,0.0,0.0,0.0,0.0,0.0,0.0,0.0,0.0,0.0,0.0,0.0,0.0,0.0,0.0,0.0,0.0,0.0,0.0,0.0,0.0,0.0,0.0,0.0,0.0,0.0,0.0,0.0,0.0,0.0,0.0,0.0,0.0,0.0,0.0,0.0,0.0,0.0,0.0,0.0,0.0,0.0,0.0,0.0,0.0,0.0,0.0,0.0,0.0,0.0,0.0,0.0,0.0,0.0,0.0,0.0,0.0,0.0,0.0,0.0,0.0,0.0,0.0,0.0,0.0,0.0,0.0,0.0,0.0,0.0,0.0,0.0,0.0,0.0,0.0,0.0,0.0,0.0,0.0,0.0,0.0,0.0,0.0,0.0,0.0,0.0,0.0,0.0,0.0,0.0,0.0,0.0,0.0,0.0,0.0,0.0,0.0,0.0,0.0,0.0,0.0,0.0,0.0,0.0,0.0,0.0,0.0,0.0,0.0,0.0,0.0,0.0,0.0,0.0,0.0,0.0,0.0,0.0,0.0,0.0,0.0,0.0,0.0,0.0,0.0,0.0,0.0,0.0,0.0,0.0,0.0,0.0,0.0,0.0,0.0,0.0,0.0,0.0,0.0,0.0,0.0,0.0,0.0,0.0,0.0,0.0,0.0,0.0,0.0,0.0,0.0,0.0,0.0,0.0,0.0,0.0,0.0,0.0,0.0,0.0,0.0,0.0,0.0,0.0,0.0,0.0,0.0,0.0,0.0,0.0,0.0,0.0,0.0,0.0,0.0,0.0,0.0,0.0,0.0,0.0,0.0,0.0,0.0,0.0,0.0,0.0,0.0,0.0,0.0,0.0,0.0,0.0,0.0,0.0,0.0,0.0,0.0,0.0,0.0,0.0,0.0,0.0,0.0,0.0,0.0,0.0,0.0,0.0,0.0,0.0,0.0,0.0,0.0,0.0,0.0,0.0,0.0,0.0,0.0,0.0,0.0,0.0,0.0,0.0,0.0,0.0,0.0,0.0,0.0,0.0,0.0,0.0,0.0,0.0,0.0,0.0,0.0,0.0,0.0,0.0,0.0,0.0,0.0,0.0,0.0,0.0,0.0,0.0,0.0,0.0,0.0,0.0,0.0,0.0,0.0,0.0,0.0,0.0,0.0,0.0,0.0,0.0,0.0,0.0,0.0,0.0,0.0,0.0,0.0,0.0,0.0,0.0,0.0,0.0,0.0,0.0,0.0,0.0,0.0,0.0,0.0,0.0,0.0,0.0,0.0,0.0,0.0,0.0,0.0,0.0,0.0,0.0,0.0,0.0,0.0,0.0,0.0,0.0,0.0,0.0,0.0,0.0,0.0,0.0,0.0,0.0,0.0,0.0,0.0,0.0,0.0,0.0,0.0,0.0,0.0,0.0,0.0,0.0,0.0,0.0,0.0,0.0,0.0,0.0,0.0,0.0,0.0,0.0,3.8709,0.0,0.0,0.0,0.0,0.0,0.0,0.0,0.0,0.0,0.0,0.0,0.0,0.0,0.0,0.0,0.0,0.0,0.0,0.0,0.0,0.0,0.0,0.0,0.0,0.0,0.0,0.0,0.0,0.0,0.0,0.0,0.0,0.0,0.0,0.0,0.0,0.0,0.0,0.0,0.0,0.0,0.0,0.0,0.0,0.0,0.0,0.0,0.0,0.0,0.0,0.0,0.0,0.0,0.0,0.0,0.0,0.0,0.0,0.0,0.0,0.0,0.0,0.0,0.0,0.0,0.0,0.0,0.0,0.0,0.0,0.0,0.0,0.0,0.0,0.0,0.0,0.0,0.0,0.0,0.0,0.0,0.0,0.0,0.0,0.0,0.0,0.0,0.0,0.0,0.0,0.0,0.0,0.0,0.0,0.0,0.0,0.0,0.0,0.0,0.0,0.0,0.0,0.0,0.0,0.0,0.0,0.0,0.0,0.0,0.0,3.9895,3.9895,3.9895,3.9716,3.9342,0.0,0.0,0.0,0.0,0.0,0.0,0.0,0.0,0.0,0.0,0.0,0.0,0.0,0.0,0.0,0.0,0.0,0.0,0.0,0.0,0.0,0.0,0.0,0.0,0.0,0.0,0.0,0.0,0.0,0.0,0.0,0.0,0.0,0.0,0.0,0.0,0.0,0.0,0.0,0.0,0.0,0.0,0.0,0.0,0.0,0.0,0.0,0.0,0.0,0.0,0.0,0.0,0.0,0.0,0.0,0.0,0.0,0.0,0.0,0.0,0.0,0.0,0.0,0.0,0.0,0.0,0.0,0.0,0.0,0.0,0.0,0.0,0.0,0.0,0.0,0.0,0.0,0.0,0.0,0.0,0.0,0.0,0.0,0.0,0.0,0.0,0.0,0.0,0.0,0.0,0.0,0.0,0.0,0.0,0.0,0.0,0.0,0.0,0.0,0.0,0.0,0.0,0.0,0.0,0.0,0.0,0.0,0.0,0.0,0.0,0.0,0.0,4.0014,3.9711,3.9332,0.0,0.0,0.0,0.0,0.0,0.0,0.0,0.0,0.0,0.0,0.0,0.0,0.0,0.0,0.0,0.0,0.0,0.0,0.0,0.0,0.0,0.0,0.0,0.0,0.0,0.0,0.0,0.0,0.0,0.0,0.0,0.0,0.0,0.0,0.0,0.0,0.0,0.0,0.0,0.0,0.0,0.0,0.0,0.0,0.0,0.0,0.0,0.0,0.0,0.0,0.0,0.0,0.0,0.0,0.0,0.0,0.0,0.0,0.0,0.0,0.0,0.0,0.0,0.0,0.0,0.0,0.0,0.0,0.0,0.0,0.0,0.0,0.0,0.0,0.0,0.0,0.0,0.0,0.0,0.0,0.0,0.0,0.0,0.0,0.0,0.0,0.0,0.0,0.0,0.0,0.0,0.0,0.0,0.0,0.0,0.0,0.0,0.0,0.0,0.0,0.0,0.0,0.0,0.0,0.0,0.0,0.0,0.0,0.0,0.0,4.108,4.108,4.0317,0.0,3.7718,0.0,0.0,0.0,0.0,0.0,0.0,0.0,0.0,0.0,0.0,0.0,0.0,0.0,0.0,0.0,0.0,0.0,0.0,0.0,0.0,0.0,0.0,0.0,0.0,0.0,0.0,0.0,0.0,0.0,0.0,0.0,0.0,0.0,0.0,0.0,0.0,0.0,0.0,0.0,0.0,0.0,0.0,0.0,0.0,0.0,0.0,0.0,0.0,0.0,0.0,0.0,0.0,0.0,0.0,0.0,0.0,0.0,0.0,0.0,0.0,0.0,0.0,0.0,0.0,0.0,0.0,0.0,0.0,0.0,0.0,0.0,0.0,0.0,0.0,0.0,0.0,0.0,0.0,0.0,0.0,0.0,0.0,0.0,0.0,0.0,0.0,0.0,0.0,0.0,0.0,0.0,0.0,0.0,0.0,0.0,0.0,0.0,0.0,0.0,0.0,0.0,0.0,0.0,0.0,0.0,0.0,0.0,0.0,0.0,0.0,4.1188,4.1188,4.0355,3.911,0.0,0.0,0.0,0.0,0.0,0.0,0.0,0.0,0.0,0.0,0.0,0.0,0.0,0.0,0.0,0.0,0.0,0.0,0.0,0.0,0.0,0.0,0.0,0.0,0.0,0.0,0.0,0.0,0.0,0.0,0.0,0.0,0.0,0.0,0.0,0.0,0.0,0.0,0.0,0.0,0.0,0.0,0.0,0.0,0.0,0.0,0.0,0.0,0.0,0.0,0.0,0.0,0.0,0.0,0.0,0.0,0.0,0.0,0.0,0.0,0.0,0.0,0.0,0.0,0.0,0.0,0.0,0.0,0.0,0.0,0.0,0.0,0.0,0.0,0.0,0.0,0.0,0.0,0.0,0.0,0.0,0.0,0.0,0.0,0.0,0.0,0.0,0.0,0.0,0.0,0.0,0.0,0.0,0.0,0.0,0.0,0.0,0.0,0.0,0.0,0.0,0.0,0.0,0.0,0.0,0.0,0.0,0.0,0.0,0.0,4.0739,4.1004,4.0512,3.9905,3.8584,3.6467,0.0,0.0,0.0,0.0,0.0,0.0,0.0,0.0,0.0,0.0,0.0,0.0,0.0,0.0,0.0,0.0,0.0,0.0,0.0,0.0,0.0,0.0,0.0,0.0,0.0,0.0,0.0,0.0,0.0,0.0,0.0,0.0,0.0,0.0,0.0,0.0,0.0,0.0,0.0,0.0,0.0,0.0,0.0,0.0,0.0,0.0,0.0,0.0,0.0,0.0,0.0,0.0,0.0,0.0,0.0,0.0,0.0,0.0,0.0,0.0,0.0,0.0,0.0,0.0,0.0,0.0,0.0,0.0,0.0,0.0,0.0,0.0,0.0,0.0,0.0,0.0,0.0,0.0,0.0,0.0,0.0,0.0,0.0,0.0,0.0,0.0,0.0,0.0,0.0,0.0,0.0,0.0,0.0,0.0,0.0,0.0,0.0,0.0,0.0,0.0,0.0,0.0,0.0,0.0,0.0,0.0,0.0,0.0,3.9895,4.0734,4.0442,3.8898,3.8784,3.723,0.0,0.0,0.0,0.0,0.0,0.0,0.0,0.0,0.0,0.0,0.0,0.0,0.0,0.0,0.0,0.0,0.0,0.0,0.0,0.0,0.0,0.0,0.0,0.0,0.0,0.0,0.0,0.0,0.0,0.0,0.0,0.0,0.0,0.0,0.0,0.0,0.0,0.0,0.0,0.0,0.0,0.0,0.0,0.0,0.0,0.0,0.0,0.0,0.0,0.0,0.0,0.0,0.0,0.0,0.0,0.0,0.0,0.0,0.0,0.0,0.0,0.0,0.0,0.0,0.0,0.0,0.0,0.0,0.0,0.0,0.0,0.0,0.0,0.0,0.0,0.0,0.0,0.0,0.0,0.0,0.0,0.0,0.0,0.0,0.0,0.0,0.0,0.0,0.0,0.0,0.0,0.0,0.0,0.0,0.0,0.0,0.0,0.0,0.0,0.0,0.0,0.0,0.0,0.0,0.0,0.0,0.0,0.0,0.0,3.9191,3.991,3.9764,3.8634,3.8558,3.7003,0.0,0.0,0.0,0.0,0.0,0.0,0.0,0.0,0.0,0.0,0.0,0.0,0.0,0.0,0.0,0.0,0.0,0.0,0.0,0.0,0.0,0.0,0.0,0.0,0.0,0.0,0.0,0.0,0.0,0.0,0.0,0.0,0.0,0.0,0.0,0.0,0.0,0.0,0.0,0.0,0.0,0.0,0.0,0.0,0.0,0.0,0.0,0.0,0.0,0.0,0.0,0.0,0.0,0.0,0.0,0.0,0.0,0.0,0.0,0.0,0.0,0.0,0.0,0.0,0.0,0.0,0.0,0.0,0.0,0.0,0.0,0.0,0.0,0.0,0.0,0.0,0.0,0.0,0.0,0.0,0.0,0.0,0.0,0.0,0.0,0.0,0.0,0.0,0.0,0.0,0.0,0.0,0.0,0.0,0.0,0.0,0.0,0.0,0.0,0.0,0.0,0.0,0.0,0.0,0.0,0.0,0.0,0.0,0.0,3.8715,0.0,3.9568,3.819,3.8109,3.667,0.0,0.0,0.0,0.0,0.0,0.0,0.0,0.0,0.0,0.0,0.0,0.0,0.0,0.0,0.0,0.0,0.0,0.0,0.0,0.0,0.0,0.0,0.0,0.0,0.0,0.0,0.0,0.0,0.0,0.0,0.0,0.0,0.0,0.0,0.0,0.0,0.0,0.0,0.0,0.0,0.0,0.0,0.0,0.0,0.0,0.0,0.0,0.0,0.0,0.0,0.0,0.0,0.0,0.0,0.0,0.0,0.0,0.0,0.0,0.0,0.0,0.0,0.0,0.0,0.0,0.0,0.0,0.0,0.0,0.0,0.0,0.0,0.0,0.0,0.0,0.0,0.0,0.0,0.0,0.0,0.0,0.0,0.0,0.0,0.0,0.0,0.0,0.0,0.0,0.0,0.0,0.0,0.0,0.0,0.0,0.0,0.0,0.0,0.0,0.0,0.0,0.0,0.0,0.0,0.0,0.0,0.0,0.0,3.8715,3.8726,4.0206,3.9826,3.7462,3.7381,3.6109,0.0,0.0,0.0,0.0,0.0,0.0,0.0,0.0,0.0,0.0,0.0,0.0,0.0,0.0,0.0,0.0,0.0,0.0,0.0,0.0,0.0,0.0,0.0,0.0,0.0,0.0,0.0,0.0,0.0,0.0,0.0,0.0,0.0,0.0,0.0,0.0,0.0,0.0,0.0,0.0,0.0,0.0,0.0,0.0,0.0,0.0,0.0,0.0,0.0,0.0,0.0,0.0,0.0,0.0,0.0,0.0,0.0,0.0,0.0,0.0,0.0,0.0,0.0,0.0,0.0,0.0,0.0,0.0,0.0,0.0,0.0,0.0,0.0,0.0,0.0,0.0,0.0,0.0,0.0,0.0,0.0,0.0,0.0,0.0,0.0,0.0,0.0,0.0,0.0,0.0,0.0,0.0,0.0,0.0,0.0,0.0,0.0,0.0,0.0,0.0,0.0,0.0,0.0,0.0,0.0,0.0,0.0,0.0,0.0,4.0251,4.017,3.9722,3.8826,3.8219,3.672,0.0,0.0,0.0,0.0,0.0,0.0,0.0,0.0,0.0,0.0,0.0,0.0,0.0,0.0,0.0,0.0,0.0,0.0,0.0,0.0,0.0,0.0,0.0,0.0,0.0,0.0,0.0,0.0,0.0,0.0,0.0,0.0,0.0,0.0,0.0,0.0,0.0,0.0,0.0,0.0,0.0,0.0,0.0,0.0,0.0,0.0,0.0,0.0,0.0,0.0,0.0,0.0,0.0,0.0,0.0,0.0,0.0,0.0,0.0,0.0,0.0,0.0,0.0,0.0,0.0,0.0,0.0,0.0,0.0,0.0,0.0,0.0,0.0,0.0,0.0,0.0,0.0,0.0,0.0,0.0,0.0,0.0,0.0,0.0,0.0,0.0,0.0,0.0,0.0,0.0,0.0,0.0,0.0,0.0,0.0,0.0,0.0,0.0,0.0,0.0,0.0,0.0,0.0,0.0,0.0,0.0,0.0,0.0,0.0,4.2737,4.1964,4.1192,4.0452,3.957,3.7954,3.545,0.0,0.0,0.0,0.0,0.0,0.0,0.0,0.0,0.0,0.0,0.0,0.0,0.0,0.0,0.0,0.0,0.0,0.0,0.0,0.0,0.0,0.0,0.0,0.0,0.0,0.0,0.0,0.0,0.0,0.0,0.0,0.0,0.0,0.0,0.0,0.0,0.0,0.0,0.0,0.0,0.0,0.0,0.0,0.0,0.0,0.0,0.0,0.0,0.0,0.0,0.0,0.0,0.0,0.0,0.0,0.0,0.0,0.0,0.0,0.0,0.0,0.0,0.0,0.0,0.0,0.0,0.0,0.0,0.0,0.0,0.0,0.0,0.0,0.0,0.0,0.0,0.0,0.0,0.0,0.0,0.0,0.0,0.0,0.0,0.0,0.0,0.0,0.0,0.0,0.0,0.0,0.0,0.0,0.0,0.0,0.0,0.0,0.0,0.0,0.0,0.0,0.0,0.0,0.0,0.0,0.0,0.0,0.0,4.5919,4.5324,4.4129,4.2322,4.1406,3.9669,0.0,0.0,0.0,0.0,0.0,0.0,0.0,0.0,0.0,0.0,0.0,0.0,0.0,0.0,0.0,0.0,0.0,0.0,0.0,0.0,0.0,0.0,0.0,0.0,0.0,0.0,0.0,0.0,0.0,0.0,0.0,0.0,0.0,0.0,0.0,0.0,0.0,0.0,0.0,0.0,0.0,0.0,0.0,0.0,0.0,0.0,0.0,0.0,0.0,0.0,0.0,0.0,0.0,0.0,0.0,0.0,0.0,0.0,0.0,0.0,0.0,0.0,0.0,0.0,0.0,0.0,0.0,0.0,0.0,0.0,0.0,0.0,0.0,0.0,0.0,0.0,0.0,0.0,0.0,0.0,0.0,0.0,0.0,0.0,0.0,0.0,0.0,0.0,0.0,0.0,0.0,0.0,0.0,0.0,0.0,0.0,0.0,0.0,0.0,0.0,0.0,0.0,0.0,0.0,0.0,0.0,0.0,0.0,0.0,4.7518,4.8581,4.789,4.5469,4.4035,4.1798,0.0,0.0,0.0,0.0,0.0,0.0,0.0,0.0,0.0,0.0,0.0,0.0,0.0,0.0,0.0,0.0,0.0,0.0,0.0,0.0,0.0,0.0,0.0,0.0,0.0,0.0,0.0,0.0,0.0,0.0,0.0,0.0,0.0,0.0,0.0,0.0,0.0,0.0,0.0,0.0,0.0,0.0,0.0,0.0,0.0,0.0,0.0,0.0,0.0,0.0,0.0,0.0,0.0,0.0,0.0,0.0,0.0,0.0,0.0,0.0,0.0,0.0,0.0,0.0,0.0,0.0,0.0,0.0,0.0,0.0,0.0,0.0,0.0,0.0,0.0,0.0,0.0,0.0,0.0,0.0,0.0,0.0,0.0,0.0,0.0,0.0,0.0,0.0,0.0,0.0,0.0,0.0,0.0,0.0,0.0,0.0,0.0,0.0,0.0,0.0,0.0,0.0,0.0,0.0,0.0,0.0,0.0,0.0,4.6705,4.9808,5.1367,5.137,4.9774,4.6778,4.3625,0.0,0.0,0.0,0.0,0.0,0.0,0.0,0.0,0.0,0.0,0.0,0.0,0.0,0.0,0.0,0.0,0.0,0.0,0.0,0.0,0.0,0.0,0.0,0.0,0.0,0.0,0.0,0.0,0.0,0.0,0.0,0.0,0.0,0.0,0.0,0.0,0.0,0.0,0.0,0.0,0.0,0.0,0.0,0.0,0.0,0.0,0.0,0.0,0.0,0.0,0.0,0.0,0.0,0.0,0.0,0.0,0.0,0.0,0.0,0.0,0.0,0.0,0.0,0.0,0.0,0.0,0.0,0.0,0.0,0.0,0.0,0.0,0.0,0.0,0.0,0.0,0.0,0.0,0.0,0.0,0.0,0.0,0.0,0.0,0.0,0.0,0.0,0.0,0.0,0.0,0.0,0.0,0.0,0.0,0.0,0.0,0.0,0.0,0.0,0.0,0.0,0.0,0.0,0.0,0.0,0.0,0.0,0.0,4.9084,5.2193,5.3786,5.4451,5.41,4.9542,4.543,0.0,0.0,0.0,0.0,0.0,0.0,0.0,0.0,0.0,0.0,0.0,0.0,0.0,0.0,0.0,0.0,0.0,0.0,0.0,0.0,0.0,0.0,0.0,0.0,0.0,0.0,0.0,0.0,0.0,0.0,0.0,0.0,0.0,0.0,0.0,0.0,0.0,0.0,0.0,0.0,0.0,0.0,0.0,0.0,0.0,0.0,0.0,0.0,0.0,0.0,0.0,0.0,0.0,0.0,0.0,0.0,0.0,0.0,0.0,0.0,0.0,0.0,0.0,0.0,0.0,0.0,0.0,0.0,0.0,0.0,0.0,0.0,0.0,0.0,0.0,0.0,0.0,0.0,0.0,0.0,0.0,0.0,0.0,0.0,0.0,0.0,0.0,0.0,0.0,0.0,0.0,0.0,0.0,0.0,0.0,0.0,0.0,0.0,0.0,0.0,0.0,0.0,0.0,0.0,0.0,0.0,0.0,0.0,5.0808,5.3887,5.5408,5.5836,5.5034,5.1496,4.7762,0.0,0.0,0.0,0.0,0.0,0.0,0.0,0.0,0.0,0.0,0.0,0.0,0.0,0.0,0.0,0.0,0.0,0.0,0.0,0.0,0.0,0.0,0.0,0.0,0.0,0.0,0.0,0.0,0.0,0.0,0.0,0.0,0.0,0.0,0.0,0.0,0.0,0.0,0.0,0.0,0.0,0.0,0.0,0.0,0.0,0.0,0.0,0.0,4.3606,0.0,0.0,0.0,0.0,0.0,0.0,0.0,0.0,0.0,0.0,0.0,0.0,0.0,0.0,0.0,0.0,0.0,0.0,0.0,0.0,0.0,0.0,0.0,0.0,0.0,0.0,0.0,0.0,0.0,0.0,0.0,0.0,0.0,0.0,0.0,0.0,0.0,0.0,0.0,0.0,0.0,0.0,0.0,0.0,0.0,0.0,0.0,0.0,0.0,0.0,0.0,0.0,0.0,0.0,0.0,0.0,0.0,0.0,0.0,5.2288,5.497,5.6524,5.6846,5.5856,5.3038,4.9417,0.0,0.0,0.0,0.0,0.0,0.0,0.0,0.0,0.0,0.0,0.0,0.0,0.0,0.0,0.0,0.0,0.0,0.0,0.0,0.0,0.0,0.0,0.0,0.0,0.0,0.0,0.0,0.0,0.0,0.0,0.0,0.0,0.0,0.0,0.0,0.0,0.0,0.0,0.0,0.0,0.0,0.0,0.0,0.0,0.0,0.0,0.0,0.0,0.0,0.0,0.0,0.0,0.0,0.0,0.0,0.0,0.0,0.0,0.0,0.0,0.0,0.0,0.0,0.0,0.0,0.0,0.0,0.0,0.0,0.0,0.0,0.0,0.0,0.0,0.0,0.0,0.0,0.0,0.0,0.0,0.0,0.0,0.0,0.0,0.0,0.0,0.0,0.0,0.0,0.0,0.0,0.0,0.0,0.0,0.0,0.0,0.0,0.0,0.0,0.0,0.0,0.0,0.0,0.0,0.0,0.0,0.0,5.0444,5.3626,5.5835,5.734,5.7623,5.6575,5.4056,5.0469,4.585,0.0,0.0,0.0,0.0,0.0,0.0,0.0,0.0,0.0,0.0,0.0,0.0,0.0,0.0,0.0,0.0,0.0,0.0,0.0,0.0,0.0,0.0,0.0,0.0,0.0,0.0,0.0,0.0,0.0,0.0,0.0,0.0,0.0,0.0,0.0,0.0,0.0,0.0,4.1179,4.3176,0.0,0.0,0.0,0.0,0.0,0.0,0.0,0.0,4.5187,0.0,0.0,0.0,0.0,0.0,0.0,0.0,0.0,0.0,0.0,0.0,0.0,0.0,0.0,0.0,0.0,0.0,0.0,0.0,0.0,0.0,0.0,0.0,0.0,0.0,0.0,0.0,0.0,0.0,0.0,0.0,0.0,0.0,0.0,0.0,0.0,0.0,0.0,0.0,0.0,0.0,0.0,0.0,0.0,0.0,0.0,0.0,0.0,0.0,0.0,0.0,0.0,0.0,0.0,0.0,0.0,4.7362,5.1347,5.4487,5.6738,5.8221,5.8193,5.6432,5.3963,5.067,4.656,0.0,0.0,0.0,0.0,0.0,0.0,0.0,0.0,0.0,0.0,0.0,0.0,0.0,0.0,0.0,0.0,0.0,0.0,0.0,0.0,0.0,0.0,0.0,0.0,0.0,0.0,0.0,0.0,0.0,0.0,0.0,0.0,0.0,0.0,0.0,0.0,0.0,0.0,0.0,4.4013,4.4682,0.0,0.0,0.0,0.0,0.0,0.0,0.0,0.0,4.8141,0.0,0.0,0.0,0.0,0.0,0.0,0.0,0.0,0.0,0.0,0.0,0.0,0.0,0.0,0.0,0.0,0.0,0.0,0.0,0.0,0.0,0.0,0.0,0.0,0.0,0.0,0.0,0.0,0.0,0.0,0.0,0.0,0.0,0.0,0.0,0.0,0.0,0.0,0.0,0.0,0.0,0.0,0.0,0.0,0.0,0.0,0.0,0.0,0.0,0.0,0.0,0.0,0.0,0.0,0.0,4.8137,5.2125,5.5042,5.6785,5.8306,5.8218,5.64,5.3811,5.0601,0.0,0.0,0.0,0.0,0.0,0.0,0.0,0.0,0.0,0.0,0.0,0.0,0.0,0.0,0.0,0.0,0.0,0.0,0.0,0.0,0.0,0.0,0.0,0.0,0.0,0.0,0.0,0.0,0.0,0.0,0.0,0.0,0.0,0.0,0.0,0.0,0.0,0.0,0.0,0.0,4.4933,4.5622,4.6036,0.0,0.0,0.0,0.0,0.0,0.0,4.7992,4.8053,0.0,0.0,0.0,0.0,0.0,0.0,0.0,0.0,0.0,0.0,0.0,0.0,0.0,0.0,0.0,0.0,0.0,0.0,0.0,0.0,0.0,0.0,0.0,0.0,0.0,0.0,0.0,0.0,0.0,0.0,0.0,0.0,0.0,0.0,0.0,0.0,0.0,0.0,0.0,0.0,0.0,0.0,0.0,0.0,0.0,0.0,0.0,0.0,0.0,0.0,0.0,0.0,0.0,0.0,0.0,4.8895,5.2733,5.5413,5.6921,5.8286,5.8065,5.604,5.3462,5.0148,0.0,0.0,0.0,0.0,0.0,0.0,0.0,0.0,0.0,0.0,0.0,0.0,0.0,0.0,0.0,0.0,0.0,0.0,0.0,0.0,0.0,0.0,0.0,0.0,0.0,0.0,0.0,0.0,0.0,0.0,0.0,0.0,0.0,0.0,0.0,0.0,0.0,0.0,0.0,0.0,0.0,4.6731,4.7497,4.7591,0.0,0.0,0.0,0.0,4.852,4.8307,0.0,0.0,0.0,0.0,0.0,0.0,0.0,0.0,0.0,0.0,0.0,0.0,0.0,0.0,0.0,0.0,0.0,0.0,0.0,0.0,0.0,0.0,0.0,0.0,0.0,0.0,0.0,0.0,0.0,0.0,0.0,0.0,0.0,0.0,0.0,0.0,0.0,0.0,0.0,0.0,0.0,0.0,0.0,0.0,0.0,0.0,0.0,0.0,0.0,0.0,0.0,0.0,0.0,0.0,0.0,0.0,4.9707,5.2961,5.5618,5.7679,5.8594,5.7737,5.5134,5.2572,4.9002,0.0,0.0,0.0,0.0,0.0,0.0,0.0,0.0,0.0,0.0,0.0,0.0,0.0,0.0,0.0,0.0,0.0,0.0,0.0,0.0,0.0,0.0,0.0,0.0,0.0,0.0,0.0,0.0,0.0,0.0,0.0,0.0,0.0,0.0,0.0,0.0,0.0,0.0,0.0,0.0,0.0,4.7543,4.8356,4.8458,4.8153,0.0,0.0,4.9593,4.9704,5.0725,0.0,0.0,0.0,0.0,0.0,0.0,0.0,0.0,0.0,0.0,0.0,0.0,0.0,0.0,0.0,0.0,0.0,0.0,0.0,0.0,0.0,0.0,0.0,0.0,0.0,0.0,0.0,0.0,0.0,0.0,0.0,0.0,0.0,0.0,0.0,0.0,0.0,0.0,0.0,0.0,0.0,0.0,0.0,0.0,0.0,0.0,0.0,0.0,0.0,0.0,0.0,0.0,0.0,0.0,0.0,4.6424,5.0449,5.3638,5.6093,5.7829,5.8231,5.7536,5.5755,5.2401,4.8951,0.0,0.0,0.0,0.0,0.0,0.0,0.0,0.0,0.0,0.0,0.0,0.0,0.0,0.0,0.0,0.0,0.0,0.0,0.0,0.0,0.0,0.0,0.0,0.0,0.0,0.0,0.0,0.0,0.0,0.0,0.0,0.0,0.0,0.0,0.0,0.0,0.0,0.0,0.0,0.0,0.0,0.0,4.9332,4.9843,0.0,0.0,0.0,5.0914,5.1792,0.0,0.0,0.0,0.0,0.0,0.0,0.0,0.0,0.0,0.0,0.0,0.0,0.0,0.0,0.0,0.0,0.0,0.0,0.0,0.0,0.0,0.0,0.0,0.0,0.0,0.0,0.0,0.0,0.0,0.0,0.0,0.0,0.0,0.0,0.0,0.0,0.0,0.0,0.0,0.0,0.0,0.0,0.0,0.0,0.0,0.0,0.0,0.0,0.0,0.0,0.0,0.0,0.0,0.0,0.0,0.0,0.0,5.1276,5.4248,5.659,5.8194,5.8072,5.7389,5.6154,5.2501,0.0,0.0,0.0,0.0,0.0,0.0,0.0,0.0,0.0,0.0,0.0,0.0,0.0,0.0,0.0,0.0,0.0,0.0,0.0,0.0,0.0,0.0,0.0,0.0,0.0,0.0,0.0,3.5792,0.0,0.0,0.0,0.0,0.0,0.0,0.0,0.0,0.0,0.0,0.0,0.0,0.0,0.0,4.9302,5.094,5.1583,5.1983,0.0,0.0,5.226,5.3464,5.2768,5.2063,0.0,0.0,0.0,0.0,0.0,0.0,0.0,0.0,0.0,0.0,0.0,0.0,0.0,0.0,0.0,0.0,0.0,0.0,0.0,0.0,0.0,0.0,0.0,0.0,0.0,0.0,0.0,0.0,0.0,0.0,0.0,0.0,0.0,0.0,0.0,0.0,0.0,0.0,0.0,0.0,0.0,0.0,0.0,0.0,0.0,0.0,0.0,0.0,0.0,0.0,0.0,0.0,0.0,0.0,4.8142,5.2129,5.4621,5.7029,5.9268,5.8619,5.7336,5.5599,5.2919,4.9256,0.0,0.0,0.0,0.0,0.0,0.0,0.0,0.0,0.0,0.0,0.0,0.0,0.0,0.0,0.0,0.0,0.0,0.0,0.0,0.0,0.0,0.0,0.0,0.0,0.0,0.0,0.0,0.0,0.0,0.0,0.0,0.0,0.0,0.0,0.0,0.0,0.0,0.0,0.0,0.0,0.0,5.2008,5.3596,5.3849,5.4185,0.0,5.4446,5.3914,5.4064,5.4428,5.398,5.1834,0.0,0.0,0.0,0.0,0.0,0.0,0.0,0.0,0.0,0.0,0.0,0.0,0.0,0.0,0.0,0.0,0.0,0.0,0.0,0.0,0.0,0.0,0.0,0.0,0.0,0.0,0.0,0.0,0.0,0.0,0.0,0.0,0.0,0.0,0.0,0.0,0.0,0.0,0.0,0.0,0.0,0.0,0.0,0.0,0.0,0.0,0.0,0.0,0.0,0.0,0.0,0.0,0.0,4.8846,5.2451,5.5337,5.7765,5.9585,5.8404,5.7334,5.6547,5.3085,4.9815,0.0,0.0,0.0,0.0,0.0,0.0,0.0,0.0,0.0,0.0,0.0,0.0,0.0,0.0,0.0,0.0,0.0,0.0,0.0,0.0,0.0,0.0,0.0,0.0,0.0,0.0,0.0,0.0,4.2945,4.3421,4.3208,0.0,0.0,0.0,0.0,0.0,0.0,0.0,0.0,0.0,0.0,5.3034,5.466,5.5333,0.0,0.0,5.5847,5.5632,5.5632,5.538,5.4699,5.3291,5.1635,0.0,0.0,0.0,0.0,0.0,0.0,0.0,0.0,0.0,0.0,0.0,0.0,0.0,0.0,0.0,0.0,0.0,0.0,0.0,0.0,0.0,0.0,0.0,0.0,0.0,0.0,0.0,0.0,0.0,0.0,0.0,0.0,0.0,0.0,0.0,0.0,0.0,0.0,0.0,0.0,0.0,0.0,0.0,0.0,0.0,0.0,0.0,0.0,0.0,0.0,0.0,0.0,4.93,5.2601,5.5804,5.8266,5.996,5.8372,5.7438,5.7294,5.3796,5.0927,0.0,0.0,0.0,0.0,0.0,0.0,0.0,0.0,0.0,0.0,0.0,0.0,0.0,0.0,0.0,0.0,0.0,0.0,0.0,0.0,0.0,0.0,0.0,0.0,0.0,0.0,0.0,0.0,4.4481,4.4496,4.4595,0.0,0.0,0.0,0.0,0.0,0.0,0.0,0.0,0.0,0.0,5.4654,5.6076,5.6788,5.7229,5.7491,5.7304,5.707,5.6771,5.6182,5.5406,5.4341,0.0,0.0,0.0,0.0,0.0,0.0,0.0,0.0,0.0,0.0,0.0,0.0,0.0,0.0,0.0,0.0,0.0,0.0,0.0,0.0,0.0,0.0,0.0,0.0,0.0,0.0,0.0,4.1899,0.0,0.0,4.07,0.0,0.0,0.0,0.0,0.0,0.0,0.0,0.0,0.0,0.0,0.0,0.0,0.0,0.0,0.0,0.0,0.0,0.0,0.0,0.0,0.0,0.0,4.9422,5.2679,5.594,5.8453,6.0081,5.8563,5.7766,5.7713,5.53,5.2704,4.9974,0.0,0.0,0.0,0.0,0.0,0.0,0.0,0.0,0.0,0.0,0.0,0.0,0.0,0.0,0.0,0.0,0.0,0.0,0.0,0.0,0.0,0.0,0.0,0.0,0.0,0.0,4.5402,4.5469,4.5462,0.0,0.0,0.0,0.0,0.0,0.0,0.0,0.0,0.0,5.3029,5.5379,5.7241,5.8202,5.8324,5.858,5.9363,5.8806,5.8035,5.7102,5.6903,5.6297,0.0,0.0,0.0,0.0,0.0,0.0,0.0,0.0,0.0,0.0,0.0,0.0,0.0,0.0,0.0,0.0,0.0,0.0,0.0,0.0,0.0,0.0,0.0,0.0,0.0,0.0,0.0,4.5036,4.5191,0.0,0.0,0.0,0.0,0.0,0.0,0.0,0.0,0.0,0.0,0.0,5.1154,5.1419,0.0,0.0,0.0,0.0,0.0,0.0,0.0,0.0,0.0,0.0,0.0,0.0,5.0407,5.3713,5.6415,5.8654,6.0328,5.9303,5.8476,5.8003,5.608,5.3274,4.9509,0.0,0.0,0.0,0.0,0.0,0.0,0.0,0.0,0.0,0.0,0.0,0.0,0.0,0.0,0.0,0.0,0.0,0.0,0.0,0.0,0.0,0.0,0.0,0.0,0.0,4.6635,0.0,0.0,0.0,0.0,0.0,0.0,0.0,0.0,0.0,0.0,5.1364,5.3473,5.6292,5.7393,5.8458,5.9842,5.9125,5.8701,0.0,0.0,0.0,0.0,0.0,0.0,0.0,0.0,0.0,0.0,0.0,0.0,0.0,0.0,4.8447,4.6781,4.6161,4.5855,4.5864,0.0,0.0,0.0,0.0,0.0,0.0,0.0,0.0,0.0,0.0,0.0,0.0,0.0,0.0,4.8554,4.8678,4.7345,0.0,0.0,0.0,0.0,0.0,0.0,0.0,0.0,5.2952,5.4284,5.5099,5.5369,5.4771,5.3427,5.3677,5.1159,0.0,0.0,0.0,0.0,0.0,0.0,0.0,0.0,5.1371,5.4681,5.6893,5.8847,6.0508,5.9785,5.8989,5.8198,5.6264,5.3738,5.0661,4.8915,4.6763,0.0,0.0,0.0,0.0,0.0,0.0,0.0,0.0,0.0,0.0,0.0,0.0,0.0,0.0,0.0,0.0,0.0,0.0,0.0,0.0,0.0,0.0,0.0,4.8479,0.0,0.0,0.0,0.0,0.0,0.0,0.0,0.0,0.0,5.2506,5.3779,5.5546,5.8081,5.843,5.874,5.9559,0.0,0.0,0.0,0.0,0.0,0.0,0.0,5.5724,5.5209,5.4783,5.4266,5.3386,5.2227,5.1312,5.0979,0.0,0.0,4.8273,4.7806,4.7593,4.7333,4.7183,4.7159,4.7114,4.7063,4.6911,0.0,0.0,0.0,0.0,5.2468,0.0,0.0,0.0,5.3715,5.3231,0.0,5.1493,0.0,0.0,0.0,0.0,4.9841,5.146,0.0,0.0,5.6194,5.7733,5.8577,5.9387,5.9349,5.861,5.9214,5.7839,5.4405,4.9653,0.0,0.0,0.0,0.0,0.0,0.0,5.2382,5.5742,5.7372,5.9054,6.0784,6.0096,5.9237,5.8364,5.5938,5.4222,5.3302,5.165,4.9572,4.7081,4.5311,0.0,0.0,0.0,0.0,0.0,0.0,0.0,0.0,0.0,0.0,0.0,0.0,0.0,0.0,0.0,0.0,0.0,0.0,0.0,0.0,5.0294,0.0,0.0,0.0,0.0,0.0,0.0,0.0,0.0,0.0,5.4063,5.5648,5.653,5.7469,5.8429,0.0,0.0,0.0,0.0,5.7384,5.7422,5.7346,5.7011,5.6176,5.5971,5.5947,5.5859,0.0,0.0,5.3467,5.3301,5.2959,5.2097,5.1865,5.1566,5.065,5.0325,5.0004,4.9316,4.9053,4.9002,4.8947,4.8806,4.8624,6.3072,0.0,0.0,0.0,0.0,5.6614,5.7672,5.8992,5.8359,5.8252,5.8372,5.5728,0.0,0.0,0.0,0.0,0.0,0.0,5.6025,5.8069,5.9379,6.0708,6.2107,6.2372,6.2009,6.1124,6.1339,6.0326,5.8204,5.6145,5.3557,5.0543,0.0,0.0,0.0,0.0,5.4752,5.7422,5.8567,5.9688,6.0872,6.0641,5.987,5.8496,5.7211,5.5782,5.4369,5.3806,5.2611,5.0581,4.8877,0.0,0.0,0.0,0.0,0.0,0.0,0.0,0.0,0.0,0.0,0.0,0.0,0.0,0.0,0.0,0.0,0.0,0.0,0.0,5.1224,5.1639,5.1337,0.0,0.0,0.0,0.0,0.0,0.0,0.0,0.0,0.0,5.6745,5.7114,5.7786,0.0,0.0,5.7853,5.8293,5.7316,5.6739,5.7308,5.6398,0.0,5.6102,5.5602,5.5216,5.5193,5.495,5.4472,5.3525,5.3341,5.3217,5.2959,5.2865,5.2686,5.2428,5.1689,5.1139,5.0852,5.0745,5.0673,5.0664,5.0519,5.0275,6.8999,6.4958,6.1868,6.0614,6.0614,6.0732,6.1503,6.2736,6.2177,6.1986,6.2012,5.9609,5.856,5.8483,5.7134,0.0,0.0,0.0,5.9373,6.0963,6.2124,6.3347,6.4593,6.4979,6.4848,6.4314,6.4287,6.3389,6.1729,6.1206,5.9081,5.5545,0.0,5.3942,5.4829,5.5334,5.6842,5.9323,5.9875,6.058,6.1432,6.0859,6.004,5.9056,5.7924,5.6811,5.5784,5.5393,5.4559,5.3154,5.1807,4.9903,0.0,0.0,0.0,0.0,0.0,0.0,0.0,0.0,0.0,0.0,0.0,4.4161,4.5621,0.0,0.0,0.0,4.9601,5.1435,5.213,5.2462,0.0,0.0,0.0,0.0,0.0,0.0,0.0,5.3444,5.4625,5.5746,5.6777,5.689,5.7367,5.871,5.7763,5.7012,5.7156,0.0,5.583,5.636,5.5564,5.5072,5.5602,5.5223,5.492,5.492,5.4875,5.4655,5.4055,5.3879,5.3822,5.3749,5.37,5.3666,5.3666,5.3029,5.2293,5.1688,5.1478,5.1379,5.1379,5.1222,5.1013,7.3183,7.2718,6.7974,6.5913,6.5708,6.4893,6.4946,6.5558,6.5483,6.4928,6.4068,6.3129,6.2622,6.2428,6.166,0.0,6.135,6.2119,6.2544,6.2738,6.4367,6.5571,6.6456,6.723,6.7617,6.7611,6.7564,6.6648,6.5025,6.4905,6.3604,6.1095,5.7892,5.6657,5.727,5.7385,5.8607,6.0935,6.1128,6.1611,6.2428,6.0925,6.0074,5.9996,5.8333,5.7361,5.7284,5.6472,5.5664,5.4929,5.4078,5.2441,4.99,0.0,0.0,0.0,0.0,0.0,0.0,0.0,0.0,0.0,0.0,0.0,0.0,0.0,0.0,5.0955,5.2507,0.0,5.2485,5.3074,0.0,0.0,0.0,5.2612,5.2688,5.3459,5.395,5.3875,0.0,0.0,5.608,5.608,5.6345,5.7103,5.6542,5.5792,5.5034,5.4958,5.492,5.4996,5.492,5.492,5.4996,5.492,5.4913,5.4898,5.4905,5.4814,5.4675,5.4635,5.46,5.4384,5.4417,5.4363,5.4363,5.4132,5.3652,5.2131,5.1757,5.1639,5.1704,5.1556,5.1391,7.458,7.3883,7.2613,7.1338,7.0098,6.9884,6.983,6.9905,6.9236,6.8443,6.7501,6.5992,6.4599,6.3366,6.3173,6.3057,6.3096,6.3289,6.4063,6.5296,6.5721,6.6727,6.8158,6.8385,6.8501,6.8501,6.849,6.7557,6.5933,6.5884,6.4603,6.2085,6.0582,5.9287,5.825,5.8868,5.951,6.0176,6.1447,6.2501,6.3328,6.2356,6.15,6.0847,5.9184,5.7985,5.7318,5.6472,5.5892,5.5698,5.4929,5.3614,5.1672,4.8999,0.0,0.0,0.0,0.0,0.0,0.0,0.0,0.0,0.0,4.8102,4.9832,0.0,5.1603,0.0,5.3012,5.38,5.4224,5.4406,0.0,0.0,5.517,5.5404,5.6047,5.6217,5.6072,5.5446,5.571,5.5718,5.5122,5.5046,5.5122,5.5311,5.5307,5.511,5.492,5.492,5.492,5.4913,5.4875,5.492,5.4913,5.492,5.4852,5.4829,5.4822,5.4791,5.4705,5.4587,5.4522,5.448,5.446,5.4383,5.4352,5.4209,5.397,5.3515,5.3321,5.3237,5.3227,5.3037,5.283,7.4141,7.3678,7.3266,7.2718,7.2112,7.2151,7.1879,7.1455,7.0971,7.0016,6.8694,6.7379,6.6031,6.4836,6.4798,6.4836,6.4836,6.5223,6.5915,6.6804,6.7539,6.8236,6.881,6.9164,6.9164,6.881,6.8385,6.7727,6.6766,6.6031,6.4754,6.2975,6.1737,6.0253,5.8644,5.9031,5.9664,6.0422,6.2124,6.3013,6.3091,6.2665,6.1814,6.0615,5.9304,5.8178,5.7323,5.6472,5.6008,5.6008,5.5582,5.4542,5.2844,5.0712,4.8543,0.0,0.0,0.0,0.0,0.0,0.0,0.0,0.0,0.0,0.0,0.0,5.2956,5.3456,5.4314,5.5148,5.5943,5.5989,5.6155,5.6647,5.6568,5.6655,5.7192,5.7134,5.6912,5.6505,5.643,5.6249,5.5834,5.5767,5.5767,5.5767,5.584,5.5638,5.4965,5.4814,5.4814,5.4814,5.4814,5.4822,5.4814,5.4814,5.4799,5.476,5.4744,5.472,5.4641,5.4546,5.4497,5.4455,5.4409,5.4332,5.4271,5.4164,5.4055,5.4,5.3907,5.3831,5.3784,5.3667,5.343,7.2744,7.2586,7.196,7.2068,7.2655,7.2602,7.2264,7.1644,7.1474,7.0377,6.8578,6.7733,6.692,6.6224,6.6185,6.6263,6.6417,6.7152,6.7578,6.7771,6.9169,6.9473,6.8849,6.9512,6.9473,6.8772,6.7926,6.7462,6.7268,6.576,6.445,6.3328,6.1737,6.0112,5.8492,5.8337,5.9184,6.1079,6.2631,6.3096,6.2583,6.2467,6.166,6.0112,5.9111,5.8178,5.7318,5.6433,5.6008,5.6008,5.6008,5.5273,5.373,5.2028,5.0438,0.0,4.7312,0.0,0.0,0.0,0.0,0.0,0.0,0.0,0.0,5.3167,5.3729,5.5125,5.5898,5.661,5.733,5.7289,5.7316,5.743,5.7301,5.7272,5.7385,5.7377,5.733,5.7255,5.7255,5.7217,5.7029,5.7066,5.7066,5.6991,5.6953,5.648,5.5328,5.5088,5.5142,5.502,5.502,5.5225,5.5187,5.5104,5.5096,5.505,5.5117,5.4897,5.4731,5.4677,5.4614,5.4409,5.4332,5.4299,5.4273,5.4138,5.3991,5.3963,5.3851,5.3794,5.3775,5.363,5.342,7.1494,7.0872,7.1378,7.1706,7.1801,7.1717,7.1983,7.2404,7.1696,7.0029,6.7733,6.6843,6.634,6.6185,6.6185,6.6572,6.7268,6.7423,6.7887,6.8578,6.8888,6.8932,6.881,6.897,6.8932,6.8772,6.7926,6.7114,6.6417,6.5455,6.3831,6.1621,6.0615,5.9261,5.7593,0.0,0.0,0.0,6.1427,6.2206,6.3366,6.2781,6.193,6.0886,5.9377,0.0,5.7323,5.6472,5.6008,5.6008,5.6008,0.0,0.0,0.0,0.0,0.0,0.0,0.0,0.0,0.0,0.0,0.0,5.3682,5.4593,5.4039,5.4953,5.5913,5.6815,5.7026,5.7175,5.7289,5.7229,5.7436,5.8077,5.8076,5.8278,5.8927,5.894,5.8669,5.7984,5.7908,5.7645,5.7099,5.694,5.6978,5.7024,5.694,5.6827,5.6535,5.6534,5.661,5.6656,5.6534,5.661,5.6656,5.6572,5.6472,5.6589,5.6563,5.6228,5.5578,5.5402,5.5105,5.4493,5.4317,5.4246,5.4111,5.401,5.3963,5.3869,5.3804,5.3794,5.3784,5.363,5.342,6.9449,6.9036,6.8998,6.9277,0.0,6.9963,7.0122,7.0178,7.0566,6.9505,6.7501,6.7036,6.6611,6.6185,6.6185,6.6417,6.6882,6.7307,6.7733,6.8153,6.8158,6.7921,6.7495,6.7114,6.6688,6.6263,6.5373,6.4749,6.4285,6.3057,6.1814,6.0499,5.9261,5.8174,5.7318,5.6433,5.7052,5.9218,6.0074,6.0736,6.1161,6.12,6.0533,5.9257,5.8406,0.0,0.0,0.0,0.0,0.0,0.0,0.0,0.0,0.0,0.0,5.284,5.2066,5.1745,5.2111,5.2962,5.3597,5.3969,5.5758,5.6564,5.5906,5.6456,5.7109,5.7786,5.7896,5.7985,5.8392,5.8353,5.8444,5.8896,5.8816,5.895,5.9317,5.9365,5.914,5.8802,5.8689,5.8502,5.8126,5.8089,5.8089,5.8089,5.8089,5.8051,5.8023,5.7446,5.7019,5.7019,5.6981,5.6981,5.7019,5.7019,5.701,5.6966,5.6966,5.6726,5.6224,5.6131,5.5842,5.5003,5.4762,5.4615,5.4084,5.3944,5.3851,5.3831,5.3783,5.3745,5.3745,5.3627,5.341,6.7601,6.7403,6.67,6.6771,6.7426,6.792,6.7619,6.6959,6.8429,0.0,0.0,6.6843,6.6533,6.5992,6.5992,6.6147,6.6456,6.6998,6.7268,6.7268,6.7114,6.6611,6.5721,6.4909,6.4179,6.3444,6.2433,6.1969,6.1892,6.0422,5.9609,5.93,5.798,5.7207,5.7052,5.6356,5.6356,5.7091,5.8642,5.9184,5.8647,5.93,5.8913,5.7361,5.7323,5.6897,5.6046,5.6008,5.6008,5.6008,5.6008,5.5702,5.5045,5.489,5.4542,5.4,5.3811,5.3825,5.4087,5.473,5.5538,5.6408,5.7453,5.8005,5.7822,5.7681,5.7886,5.8559,5.8609,5.8864,5.9514,5.9501,5.9447,5.9447,5.9365,5.9272,5.9262,5.9244,5.9234,5.9244,5.9197,5.9244,5.9197,5.915,5.9244,5.9234,5.9112,5.9234,5.9094,5.8192,5.7477,5.7468,5.7552,5.7431,5.7347,5.7431,5.7338,5.747,5.7395,5.7199,5.6967,5.6902,5.6528,5.5651,5.5445,5.5183,5.455,5.426,5.4007,5.3988,5.3799,5.3694,5.3608,5.3528,5.3339,6.7204,6.6584,6.6379,6.639,6.6419,6.5795,6.5035,6.4334,6.5301,6.5146,6.4256,6.4256,6.4604,6.5185,6.5146,6.5958,6.723,6.6688,6.6379,6.634,6.5687,6.4914,6.4029,6.3168,6.2699,6.2472,6.1002,6.0267,6.0151,5.9266,5.841,5.7748,5.7434,5.6975,5.624,5.6046,5.6046,5.6201,5.7129,5.798,5.8569,5.8724,5.8333,5.7361,5.7284,5.6897,5.6046,5.6008,5.6008,5.6008,5.6008,5.5969,5.5814,5.52,5.5045,5.5543,5.5006,5.5217,5.6555,5.6744,5.734,5.8566,5.871,5.866,5.8623,5.8431,5.8669,5.9351,5.9348,5.9379,5.9492,5.9401,5.9355,5.9299,5.9262,5.9206,5.9206,5.9101,5.9053,5.9053,5.9033,5.9043,5.9053,5.9053,5.9053,5.9043,5.9072,5.9053,5.9045,5.9037,5.8981,5.8952,5.8952,5.8952,5.8746,5.8952,5.8803,5.8878,5.8756,5.8456,5.7743,5.7649,5.7312,5.6405,5.6254,5.6141,5.5887,5.5327,5.486,5.4689,5.4222,5.3719,5.3447,5.3297,5.3162,6.6689,6.6336,6.6284,6.6264,6.6148,6.4846,6.4063,6.3637,6.3091,6.3207,6.3676,6.3676,6.3913,6.4295,6.4295,6.472,6.5412,6.503,6.4836,6.4798,6.3985,6.3362,6.2936,6.2124,6.1698,6.1616,6.046,5.9923,5.9807,5.9034,5.8376,5.8023,5.7985,5.7791,5.7404,5.6936,5.6699,5.6704,5.6626,5.6781,5.7172,5.7172,5.7018,5.6588,5.6588,5.6433,5.6008,5.6008,5.6008,5.6008,5.6008,5.6008,5.6008,5.5664,5.5625,5.5969,5.6059,5.6409,5.7135,5.7874,5.8531,5.9039,5.9337,5.939,5.9209,5.9089,5.9148,5.939,5.942,5.9401,5.9392,5.9309,5.9253,5.9253,5.9167,5.91,5.91,5.9033,5.8994,5.8994,5.8994,5.8994,5.8994,5.8994,5.8994,5.8994,5.8994,5.8994,5.9032,5.911,5.913,5.913,5.913,5.913,5.913,5.913,5.9111,5.911,5.9063,5.8902,5.8467,5.84,5.7988,5.7228,5.7022,5.6779,5.6469,5.5926,5.5468,5.4899,5.4529,5.3974,5.3465,5.3141,5.2893,6.6288,6.6284,6.6244,6.6069,6.5799,6.4566,6.3908,6.356,6.2085,6.2162,6.3289,6.3212,6.3212,6.3405,6.3405,6.3521,6.3676,6.3482,6.3405,6.3328,6.2511,6.2124,6.2003,6.1234,6.0847,6.0731,5.9996,5.9609,5.9537,5.8918,5.8608,5.8608,5.8608,5.8608,5.8608,5.7907,5.7593,5.7555,5.6897,5.6399,5.6008,5.6008,5.6008,5.6008,5.6008,5.6008,5.6008,5.6008,5.6008,5.6008,5.6008,5.6085,5.6278,5.6278,5.6394,5.6622,5.7162,5.755,5.7746,5.8806,5.9411,5.9169,5.958,5.9757,5.9554,5.9579,5.9553,5.9328,5.9272,5.93,5.9281,5.9206,5.9158,5.9148,5.9051,5.8992,5.8992,5.8935,5.8925,5.8962,5.8915,5.8952,5.8962,5.8925,5.9017,5.9204,5.9214,5.9251,5.94,5.9512,5.9512,5.9448,5.9254,5.9004,5.8994,5.9004,5.8994,5.9012,5.8992,5.8895,5.8815,5.8811,5.8605,5.7938,5.7738,5.7542,5.6938,5.6523,5.6144,5.5611,5.498,5.4191,5.3372,5.3013,5.2717,6.6195,6.6229,6.619,6.576,6.5185,6.4952,6.4411,6.3637,6.2704,6.2312,6.2544,6.1693,6.1853,6.2467,6.2506,6.2897,6.3521,6.2897,6.2506,6.2433,6.1616,6.1195,6.1195,6.0422,5.9996,5.9962,5.9266,5.8956,5.8956,5.8763,5.8647,5.8608,5.8608,5.8647,5.8608,5.8531,5.8492,5.8492,5.8415,5.7598,5.6085,5.6008,5.6008,5.6008,5.6046,5.6008,5.6124,5.6008,5.6008,5.6008,5.6046,5.6394,5.7052,5.7164,5.7555,5.8217,5.836,5.8569,5.9062,5.9717,5.9969,5.9693,5.9499,5.9418,5.9337,5.9812,5.9897,5.9525,5.9281,5.9318,5.9196,5.9147,5.9126,5.9116,5.898,5.8909,5.8899,5.8781,5.8719,5.8729,5.875,5.8729,5.8824,5.8898,5.9148,5.9801,5.9876,6.0062,6.0619,6.0768,6.0768,6.0641,5.9936,5.9189,5.9124,5.9022,5.9084,5.9004,5.8909,5.8869,5.875,5.8708,5.8613,5.8444,5.837,5.8206,5.8026,5.7666,5.6968,5.6424,5.5464,5.4212,5.3323,5.2915,5.2764,6.6185,6.6185,6.6185,6.6031,6.5682,6.5223,6.4798,6.4372,6.356,6.3168,6.3129,6.2752,6.2249,6.1655,6.1621,6.181,6.2124,6.1814,6.1616,6.1621,6.1268,6.1113,6.1041,6.077,6.0615,6.0615,6.0228,6.0074,6.0074,6.0074,6.0074,6.0074,6.0074,6.0074,6.0035,5.9609,5.9343,5.9339,5.8879,5.826,5.7637,5.7521,5.7559,5.7521,5.7521,5.7521,5.7521,5.7521,5.7559,5.7521,5.7525,5.7675,5.8062,5.8062,5.8203,5.8519,5.8909,5.9358,5.9958,6.0084,5.9999,5.9664,5.9463,5.9487,5.983,6.0098,6.0342,6.0589,6.0569,6.0549,6.0501,6.0038,5.9668,5.9584,5.9119,5.8797,5.875,5.8756,5.8687,5.8687,5.8687,5.891,5.9356,5.9876,6.0285,6.063,6.0656,6.0842,6.1187,6.1187,6.1187,6.1123,6.0641,6.0385,6.0209,5.98,5.9593,5.9413,5.9095,5.8766,5.8698,5.8625,5.8593,5.8593,5.8497,5.8432,5.8395,5.8113,5.7634,5.6989,5.5709,5.4285,5.3868,5.3321,5.2923,6.6417,6.6224,6.6185,6.6185,6.6147,6.5566,6.5329,6.5198,6.4386,6.4033,6.3974,6.3701,6.2929,6.1882,6.1766,6.1766,6.1766,6.1766,6.1766,6.1766,6.1766,6.1766,6.1766,6.1495,6.1379,6.1379,6.1148,6.1075,6.107,6.1075,6.1075,6.1075,6.1075,6.1041,6.1017,6.0442,6.0219,6.0151,5.9575,5.9266,5.9304,5.9266,5.9072,5.8647,5.8608,5.8608,5.8608,5.8608,5.8608,5.8608,5.8595,5.8702,5.8899,5.892,5.8959,5.9151,5.9551,5.9977,6.0366,6.0129,5.9953,5.9838,5.9637,5.9832,6.0411,6.0733,6.1133,6.1618,6.1954,6.1954,6.1388,6.081,6.0449,6.0364,5.9743,5.9393,5.943,5.9404,5.943,5.9393,5.9542,5.9579,6.0184,6.0778,6.1176,6.1447,6.151,6.1659,6.1808,6.1919,6.1919,6.1856,6.1856,6.1633,6.1298,6.0715,6.0248,5.9839,5.9367,5.9022,5.873,5.8561,5.8497,5.8486,5.8415,5.8349,5.8338,5.8175,5.7876,5.7007,5.5923,5.484,5.4352,5.3788,5.3288,6.6959,6.6224,6.6185,6.618,6.6185,6.6142,6.6072,6.5908,6.5174,6.48,6.4641,6.3974,6.3505,6.3395,6.3395,6.3389,6.3356,6.3285,6.3246,6.3246,6.3285,6.3356,6.3351,6.2541,6.216,6.2132,6.1553,6.1206,6.1124,6.108,6.0997,6.108,6.1162,6.1072,6.1152,6.1084,6.0993,6.1099,6.1026,6.0997,6.0993,6.0993,6.0262,5.9063,5.8647,5.8724,5.8681,5.8647,5.8642,5.8642,5.8669,5.8916,5.9655,5.9678,5.9952,6.0541,6.0558,6.0396,6.0189,5.9964,5.9955,6.0285,6.0279,6.0445,6.1151,6.1751,6.2197,6.235,6.2966,6.2814,6.1736,6.1348,6.1171,6.1161,6.1086,6.0953,6.099,6.0815,6.1038,6.0964,6.0916,6.0964,6.1102,6.115,6.1659,6.2153,6.2365,6.255,6.307,6.333,6.3293,6.3293,6.3219,6.2959,6.1622,6.1213,6.0815,6.0375,6.0056,5.9526,5.8953,5.8519,5.8454,5.8378,5.8305,5.8227,5.8167,5.8012,5.7686,5.7175,5.6844,5.6003,5.517,5.4485,5.3957,6.6998,6.6219,6.6149,6.6134,6.6128,6.6091,6.6063,6.6003,6.5732,6.5567,6.55,6.524,6.5107,6.5107,6.506,6.4467,6.3571,6.35,6.35,6.35,6.35,6.35,6.3461,6.3152,6.3037,6.2998,6.2728,6.2612,6.2612,6.2612,6.2612,6.2612,6.2612,6.2585,6.2601,6.2606,6.2617,6.2632,6.2638,6.2632,6.2599,6.2638,6.2323,6.1711,6.0698,6.0176,6.0147,6.0143,6.0128,6.0127,6.0102,6.0251,6.0517,6.0476,6.0525,6.0731,6.0585,6.0592,6.0776,6.0594,6.0602,6.1079,6.1019,6.1199,6.1851,6.2253,6.2588,6.307,6.3368,6.3241,6.2881,6.2313,6.1956,6.1919,6.1521,6.1261,6.1187,6.1187,6.1187,6.1261,6.1585,6.1967,6.2068,6.2402,6.2848,6.3108,6.3182,6.3293,6.3479,6.359,6.359,6.3579,6.3497,6.3303,6.2846,6.222,6.1759,6.1248,6.0759,5.9963,5.9279,5.8626,5.8474,5.8294,5.8145,5.8099,5.8077,5.8029,5.7703,5.7629,5.7288,5.6774,5.6051,5.5397,5.4719,6.7111,6.6548,6.6201,6.6069,6.6063,6.6024,6.5996,6.6023,6.6017,6.5967,6.5982,6.5984,6.5972,6.5966,6.5923,6.5364,6.4363,6.4292,6.4253,6.4292,6.4253,6.4247,6.4209,6.3983,6.3868,6.3791,6.3554,6.3444,6.3438,6.3438,6.3438,6.3399,6.3444,6.3455,6.3472,6.3472,6.3477,6.3494,6.35,6.35,6.35,6.35,6.35,6.3356,6.2416,6.1862,6.1788,6.1827,6.1811,6.1769,6.1516,6.1219,6.0949,6.0837,6.0837,6.0987,6.0822,6.0981,6.1449,6.1318,6.1385,6.1871,6.1788,6.2002,6.2684,6.2773,6.307,6.3479,6.359,6.359,6.3516,6.307,6.2773,6.2736,6.229,6.1967,6.1956,6.2004,6.1993,6.2105,6.2476,6.2736,6.2848,6.3256,6.3479,6.359,6.359,6.359,6.359,6.3557,6.3534,6.3534,6.3394,6.3336,6.309,6.2729,6.2271,6.1781,6.1388,6.0555,5.9675,5.8972,5.845,5.8232,5.8077,5.802,5.7997,5.7997,5.796,5.796,5.7703,5.7226,5.6712,5.6308,5.5592,6.7415,6.7215,6.6393,6.6084,6.6123,6.6034,6.6011,6.6008,6.6002,6.5972,6.5929,6.591,6.5916,6.5904,6.5904,6.5827,6.5685,6.5615,6.5653,6.5647,6.5685,6.5685,6.5647,6.4954,6.4608,6.4569,6.3788,6.3435,6.3563,6.3601,6.3563,6.3435,6.3563,6.3676,6.3531,6.3685,6.3592,6.3703,6.3786,6.3676,6.3533,6.3714,6.3753,6.3676,6.3571,6.35,6.3494,6.3422,6.3263,6.3213,6.2557,6.1668,6.108,6.0928,6.1064,6.1527,6.1454,6.1617,6.2077,6.1977,6.2046,6.2591,6.2593,6.2761,6.3316,6.3479,6.3516,6.3553,6.359,6.359,6.359,6.3516,6.3479,6.3553,6.333,6.3293,6.3405,6.3516,6.3553,6.3442,6.3442,6.3553,6.3553,6.3553,6.359,6.3579,6.3568,6.3557,6.3534,6.3465,6.3431,6.3359,6.3277,6.3194,6.322,6.3146,6.2666,6.2211,6.1915,6.1338,6.0262,5.9458,5.8872,5.8532,5.8116,5.8045,5.7997,5.7997,5.7997,5.7923,5.7776,5.7629,5.7299,5.6859,5.6444,6.8764,6.8085,6.7233,6.6823,6.6746,6.6209,6.5947,6.5935,6.5935,6.5923,6.5904,6.5904,6.5904,6.5904,6.5904,6.5904,6.5904,6.5904,6.5904,6.5904,6.5904,6.5904,6.5827,6.5634,6.5474,6.5436,6.5243,6.5089,6.5051,6.5051,6.5089,6.5089,6.5051,6.5102,6.505,6.5121,6.5133,6.5145,6.5151,6.5151,6.5151,6.5151,6.5151,6.5151,6.5151,6.5151,6.5074,6.4076,6.3453,6.3418,6.3087,6.2769,6.2464,6.2369,6.2417,6.244,6.2261,6.2362,6.2802,6.2681,6.2786,6.327,6.3315,6.3375,6.3565,6.359,6.359,6.359,6.359,6.359,6.359,6.359,6.359,6.359,6.359,6.359,6.359,6.359,6.359,6.359,6.359,6.359,6.359,6.359,6.3545,6.3451,6.3477,6.3454,6.3361,6.3326,6.3291,6.323,6.3172,6.3063,6.3051,6.3026,6.2769,6.2462,6.2216,6.186,6.0893,5.9915,5.9328,5.868,5.8265,5.8045,5.7997,5.7997,5.7997,5.7997,5.7886,5.7776,5.7666,5.7373,5.6957,6.9546,6.8904,6.8013,6.7455,6.7147,6.6532,6.6167,6.5942,6.5904,6.5904,6.5904,6.5904,6.5904,6.5904,6.5904,6.5904,6.5904,6.5904,6.5904,6.5904,6.5904,6.5904,6.5904,6.5904,6.5904,6.5904,6.5904,6.5904,6.5904,6.5904,6.5904,6.5865,6.5904,6.5865,6.5904,6.5904,6.5904,6.5904,6.5865,6.5904,6.5904,6.5904,6.5904,6.5904,6.5904,6.5904,6.5827,6.4863,6.4324,6.4211,6.3974,6.3584,6.3233,6.3097,6.3135,6.3223,6.3126,6.3157,6.3653,6.3428,6.3349,6.3733,6.3691,6.359,6.359,6.359,6.359,6.359,6.359,6.359,6.359,6.359,6.359,6.359,6.359,6.359,6.359,6.359,6.359,6.359,6.3557,6.3534,6.3534,6.3477,6.3442,6.3324,6.3312,6.3301,6.3194,6.3147,6.3123,6.3087,6.3002,6.2941,6.2917,6.288,6.2818,6.2659,6.2488,6.2083,6.1385,6.0418,5.9648,5.8706,5.8107,5.8033,5.7997,5.7997,5.7997,5.7997,5.7997,5.7923,5.7813,5.785,5.7533,6.9842,6.9667,6.8814,6.8052,6.7404,6.7135,6.6635,6.6051,6.5904,6.5904,6.5904,6.5904,6.5904,6.5904,6.5904,6.5904,6.5904,6.5904,6.5904,6.5904,6.5904,6.5904,6.5904,6.5904,6.5904,6.5904,6.5904,6.5904,6.5904,6.5904,6.5904,6.5904,6.5904,6.5904,6.5904,6.5904,6.5904,6.5904,6.5904,6.5904,6.5904,6.5904,6.5904,6.5904,6.5904,6.5904,6.5865,6.5718,6.575,6.5743,6.5013,6.4302,6.3501,6.3269,6.3628,6.4015,6.3795,6.3975,6.4304,6.4036,6.3841,6.3851,6.3714,6.359,6.359,6.359,6.359,6.359,6.359,6.359,6.359,6.359,6.359,6.359,6.359,6.359,6.3579,6.3579,6.3545,6.3534,6.3477,6.337,6.337,6.3314,6.3255,6.322,6.3208,6.3159,6.3111,6.3039,6.3002,6.2953,6.288,6.2867,6.2855,6.2842,6.2793,6.2768,6.2646,6.234,6.1826,6.0896,5.9893,5.8914,5.818,5.807,5.7997,5.7997,5.7997,5.7997,5.7997,5.7997,5.7997,5.7985,5.7879,7.0611,7.0475,6.9706,6.9206,6.8821,6.7712,6.7019,6.6705,6.6134,6.5942,6.5904,6.5904,6.5904,6.5904,6.5904,6.5904,6.5904,6.5904,6.5904,6.5904,6.5904,6.5904,6.5904,6.5904,6.5904,6.5904,6.5904,6.5904,6.5904,6.5904,6.5904,6.5904,6.5904,6.5904,6.5904,6.5904,6.5904,6.5904,6.5904,6.5904,6.5904,6.5904,6.5904,6.5904,6.5904,6.5904,6.5904,6.5904,6.5904,6.5904,6.5705,6.5436,6.4999,6.49,6.4819,6.4856,6.4739,6.4538,6.4455,6.4247,6.3979,6.3834,6.3702,6.3602,6.359,6.359,6.359,6.359,6.359,6.359,6.359,6.359,6.359,6.359,6.3568,6.3545,6.3488,6.3428,6.3394,6.3301,6.3302,6.3279,6.3267,6.3231,6.3135,6.3075,6.3039,6.3026,6.2966,6.2966,6.2892,6.2867,6.2818,6.2805,6.2805,6.2805,6.2793,6.2793,6.2768,6.2695,6.2071,6.1251,6.0224,5.9159,5.851,5.8253,5.8107,5.7997,5.7997,5.7997,5.7997,5.7997,5.7962,5.7939,5.7822,7.0898,7.086,7.0398,7.0014,6.959,6.8629,6.7789,6.7096,6.6635,6.6173,6.5981,6.5904,6.5904,6.5904,6.5904,6.5904,6.5904,6.5904,6.5904,6.5904,6.5904,6.5904,6.5904,6.5904,6.5904,6.5904,6.5904,6.5904,6.5904,6.5904,6.5904,6.5904,6.5904,6.5904,6.5904,6.5904,6.5904,6.5904,6.5904,6.5904,6.5904,6.5904,6.5904,6.5904,6.5904,6.5904,6.5904,6.5904,6.5904,6.5904,6.5897,6.5865,6.5793,6.5681,6.553,6.5421,6.5172,6.4908,6.4689,6.4395,6.4125,6.3953,6.378,6.3658,6.3613,6.359,6.359,6.359,6.359,6.359,6.3579,6.3557,6.3534,6.3511,6.3465,6.3431,6.3407,6.3336,6.3302,6.3194,6.3135,6.3111,6.3111,6.3063,6.3002,6.2929,6.2917,6.288,6.2818,6.2805,6.2793,6.2793,6.2793,6.2793,6.2793,6.2793,6.2793,6.2793,6.2793,6.2793,6.2242,6.1545,6.0774,5.982,5.9049,5.8499,5.851,5.8327,5.7997,5.7997,5.7997,5.7997,5.7973,5.7881,5.7751,7.0898,7.0898,7.0898,7.0475,6.9898,6.9667,6.8783,6.7596,6.7135,6.6673,6.6173,6.5942,6.5904,6.5904,6.5904,6.5904,6.5904,6.5904,6.5904,6.5904,6.5904,6.5904,6.5904,6.5904,6.5904,6.5904,6.5904,6.5904,6.5904,6.5904,6.5904,6.5904,6.5904,6.5904,6.5904,6.5904,6.5904,6.5904,6.5904,6.5904,6.5904,6.5904,6.5904,6.5904,6.5904,6.5904,6.5904,6.5904,6.5904,6.5904,6.5904,6.5872,6.58,6.5694,6.5559,6.542,6.5267,6.5082,6.4897,6.4577,6.4317,6.4104,6.391,6.3784,6.3647,6.359,6.3557,6.3557,6.3568,6.3522,6.3511,6.3454,6.337,6.3384,6.3254,6.3242,6.3289,6.3242,6.3159,6.3184,6.3039,6.299,6.2953,6.288,6.2805,6.2867,6.2842,6.283,6.2805,6.2793,6.2793,6.2793,6.2793,6.2793,6.2793,6.2793,6.2793,6.2793,6.2793,6.2719,6.2328,6.1741,6.1263,6.0603,5.9869,5.9416,5.9306,5.8939,5.851,5.8253,5.8425,5.8253,5.8022,5.7834,5.7667,7.0898,7.0898,7.0898,7.0821,7.0552,6.9975,6.9475,6.9013,6.7673,6.7096,6.675,6.6205,6.5942,6.5942,6.5942,6.5904,6.5904,6.5904,6.5904,6.5904,6.5904,6.5904,6.5942,6.6013,6.5936,6.5936,6.5904,6.5897,6.5936,6.5981,6.5904,6.5904,6.5904,6.5904,6.5904,6.5904,6.5904,6.5904,6.5904,6.5904,6.5904,6.5904,6.5904,6.5904,6.5904,6.5904,6.5904,6.5904,6.5904,6.5904,6.5897,6.5878,6.5859,6.5762,6.5681,6.5544,6.5444,6.5258,6.4981,6.4707,6.4396,6.4254,6.3985,6.3769,6.3773,6.3557,6.3477,6.3405,6.3336,6.3289,6.3289,6.3254,6.323,6.3206,6.3123,6.3051,6.3075,6.3063,6.3002,6.2917,6.2867,6.2842,6.2842,6.2842,6.2793,6.2793,6.2793,6.2793,6.2793,6.2793,6.2793,6.2793,6.2793,6.2793,6.2793,6.2793,6.2793,6.2793,6.2793,6.2793,6.2401,6.2108,6.1704,6.1227,6.0664,6.037,6.015,5.993,5.9538,5.9233,5.8854,5.8634,5.8404,5.8043,5.7655,7.0898,7.0898,7.0898,7.0898,7.0821,7.0437,7.0052,6.959,6.8783,6.809,6.759,6.6821,6.6481,6.6442,6.6096,6.5904,6.5904,6.5904,6.6096,6.6365,6.6519,6.6712,6.7051,6.7013,6.6936,6.6628,6.6936,6.6859,6.659,6.6442,6.6282,6.5904,6.5942,6.5904,6.5904,6.5942,6.5904,6.5904,6.5904,6.5904,6.5904,6.5904,6.5904,6.5904,6.5904,6.5904,6.5904,6.5904,6.5878,6.5859,6.5852,6.5865,6.5885,6.5833,6.5773,6.5681,6.5516,6.5383,6.5115,6.4859,6.4568,6.4277,6.399,6.3764,6.3658,6.3451,6.3359,6.3301,6.323,6.3183,6.3183,6.3123,6.3111,6.3075,6.2978,6.2904,6.2904,6.2904,6.288,6.2805,6.2805,6.2805,6.2793,6.2793,6.2793,6.2793,6.2793,6.2793,6.2793,6.2793,6.2793,6.2793,6.2793,6.2793,6.2793,6.2793,6.2793,6.2793,6.2793,6.2793,6.2646,6.2438,6.2218,6.1814,6.1398,6.1153,6.0933,6.075,6.0456,6.0052,5.96,5.9234,5.887,5.8519,5.7984,7.0898,7.0898,7.0898,7.0898,7.0898,7.086,7.0514,6.9975,6.9744,6.9122,6.8545,6.7667,6.7321,6.7173,6.6705,6.632,6.6359,6.6397,6.6859,6.7244,6.7321,6.7628,6.8084,6.8282,6.8205,6.7596,6.7936,6.7859,6.7436,6.7244,6.7051,6.6436,6.6327,6.6551,6.6397,6.632,6.6513,6.6551,6.6551,6.6513,6.6474,6.6474,6.6474,6.6513,6.6513,6.6513,6.6551,6.6462,6.6282,6.6031,6.5972,6.5922,6.5833,6.582,6.5767,6.5753,6.5583,6.5398,6.5242,6.5019,6.4707,6.4289,6.4025,6.3797,6.3565,6.3394,6.3277,6.3183,6.3111,6.3087,6.3111,6.3026,6.2978,6.2953,6.2867,6.2805,6.2793,6.2793,6.2805,6.2805,6.2793,6.2793,6.2793,6.2793,6.2793,6.2793,6.2793,6.2793,6.2793,6.2793,6.2793,6.2793,6.2793,6.2793,6.2793,6.2793,6.2793,6.2793,6.2793,6.2793,6.2793,6.2683,6.2511,6.2499,6.2205,6.1924,6.1704,6.152,6.1227,6.075,6.0444,6.0163,5.9639,5.9055,5.8421,7.0898,7.0898,7.0898,7.0898,7.0898,7.0898,7.0783,7.0591,7.0014,6.9629,6.9398,6.8584,6.8199,6.8122,6.8084,6.793,6.7737,6.7699,6.793,6.816,6.8199,6.8391,6.8699,6.9206,6.9321,6.9129,6.8891,6.8468,6.8237,6.816,6.7968,6.793,6.7859,6.7814,6.7776,6.7968,6.7744,6.7667,6.7705,6.7699,6.7744,6.7744,6.7699,6.7699,6.7692,6.7731,6.7833,6.7838,6.7567,6.6907,6.6769,6.6364,6.5942,6.5737,6.5671,6.5566,6.5523,6.5413,6.5242,6.5078,6.4862,6.4539,6.4216,6.3947,6.3714,6.3405,6.3194,6.3051,6.2941,6.288,6.2867,6.2867,6.2842,6.283,6.2818,6.2793,6.2793,6.2793,6.2793,6.2793,6.2793,6.2793,6.2793,6.2793,6.2793,6.2793,6.2793,6.2793,6.2793,6.2793,6.2793,6.2793,6.2793,6.2793,6.2793,6.2793,6.2793,6.2793,6.2793,6.2793,6.2793,6.2793,6.2756,6.2683,6.2683,6.2499,6.2352,6.2205,6.1961,6.152,6.1312,6.1117,6.0335,5.9565,5.887,7.1591,7.1514,7.1091,7.0898,7.0898,7.0898,7.0898,7.086,7.0475,7.0321,7.009,6.9475,6.9052,6.893,6.8545,6.8391,6.843,6.8391,6.866,6.893,6.9084,6.9353,6.9584,7.0129,7.0244,7.0206,6.986,6.9398,6.9122,6.9084,6.8853,6.843,6.8391,6.8391,6.8391,6.8314,6.843,6.843,6.843,6.843,6.843,6.843,6.843,6.8423,6.8428,6.8338,6.8324,6.8308,6.8014,6.7633,6.7474,6.6978,6.6458,6.6106,6.5968,6.5645,6.5509,6.5413,6.525,6.5103,6.4842,6.4539,6.4274,6.3995,6.3714,6.3407,6.3111,6.2941,6.2867,6.2793,6.2805,6.2793,6.2793,6.2793,6.2793,6.2793,6.2793,6.2793,6.2793,6.2793,6.2793,6.2793,6.2793,6.2793,6.2793,6.2793,6.2793,6.2793,6.2793,6.2793,6.2793,6.2793,6.2793,6.2793,6.2793,6.2793,6.2793,6.2793,6.2793,6.2793,6.2793,6.2793,6.2793,6.2793,6.2793,6.2793,6.2756,6.2536,6.2389,6.2316,6.212,6.174,6.0883,6.0088,5.9415,7.2437,7.2399,7.1514,7.1168,7.1129,7.0975,7.0898,7.0898,7.086,7.086,7.0821,7.0244,6.9937,6.9783,6.9353,6.8968,6.8891,6.8968,6.9391,6.9821,6.9937,7.0321,7.0706,7.0898,7.0821,7.0744,7.0706,7.0591,7.0052,6.9937,6.9513,6.9276,6.8968,6.8891,6.9007,6.914,6.8916,6.8871,6.8851,6.8851,6.8851,6.8851,6.8889,6.8851,6.8835,6.8876,6.8985,6.8958,6.8662,6.8418,6.8189,6.7852,6.711,6.6789,6.6422,6.5899,6.5616,6.5436,6.5298,6.5153,6.4886,6.4549,6.4287,6.4027,6.3669,6.3347,6.3051,6.2855,6.2793,6.2793,6.2793,6.2793,6.2793,6.2793,6.2793,6.2793,6.2793,6.2793,6.2793,6.2793,6.2793,6.2793,6.2829,6.2793,6.2793,6.2793,6.2793,6.2793,6.2793,6.2793,6.2793,6.2793,6.2793,6.2793,6.2793,6.2793,6.2793,6.2793,6.2793,6.2793,6.2793,6.2793,6.2793,6.2793,6.2793,6.2793,6.2793,6.2793,6.2646,6.2609,6.2731,6.2423,6.1587,6.0754,5.9983,7.3353,7.3276,7.2399,7.2059,7.1944,7.1245,7.0937,7.0937,7.0937,7.0898,7.0898,7.0783,7.0667,7.0629,7.0591,7.0514,7.0514,7.0398,7.0398,7.0591,7.0629,7.0706,7.086,7.0898,7.0898,7.0898,7.0898,7.086,7.0654,7.0615,7.0661,7.043,7.0301,7.0507,7.021,7.013,7.0539,7.0441,7.0359,7.033,7.0292,7.0292,7.0292,7.0292,7.0277,7.0186,7.0094,6.9988,6.9773,6.9192,6.9091,6.8639,6.7821,6.7056,6.6751,6.6392,6.5918,6.5383,6.5328,6.53,6.5179,6.4878,6.4651,6.4193,6.3981,6.3596,6.326,6.283,6.2866,6.2903,6.2976,6.2866,6.2829,6.2976,6.316,6.3086,6.3013,6.349,6.3417,6.3062,6.3172,6.2939,6.2829,6.2829,6.2793,6.2793,6.2793,6.2793,6.2793,6.2793,6.2793,6.2793,6.2793,6.2793,6.2793,6.2793,6.2793,6.2793,6.2793,6.2793,6.2793,6.2793,6.2793,6.2793,6.2793,6.2793,6.2793,6.2793,6.2793,6.2755,6.2717,6.259,6.235,6.1467,6.0441,7.4623,7.4084,7.3283,7.2937,7.2822,7.2021,7.1636,7.1521,7.1129,7.0898,7.0898,7.0898,7.0898,7.0898,7.0898,7.086,7.0898,7.0898,7.0898,7.0898,7.0898,7.0898,7.0898,7.0898,7.0898,7.0898,7.0891,7.0871,7.0857,7.0843,7.0836,7.0836,7.0801,7.0688,7.0794,7.0743,7.0729,7.0683,7.0699,7.0715,7.0715,7.0715,7.0715,7.0708,7.0662,7.0639,7.0616,7.0515,7.0361,6.9932,6.9892,6.9502,6.8814,6.8279,6.7973,6.7324,6.7064,6.6368,6.5557,6.5705,6.5699,6.5677,6.5596,6.5618,6.5042,6.4632,6.4132,6.3601,6.3539,6.3539,6.3539,6.3539,6.382,6.3967,6.3967,6.404,6.404,6.4187,6.4297,6.387,6.3503,6.3319,6.3123,6.2976,6.2939,6.2793,6.2793,6.2793,6.2793,6.2793,6.2793,6.2793,6.2793,6.2793,6.2793,6.2793,6.2793,6.2793,6.2793,6.2793,6.2793,6.2793,6.2793,6.2793,6.2793,6.2793,6.2793,6.2793,6.278,6.2717,6.2641,6.25,6.2321,6.1587,6.0596,7.563,7.4969,7.4123,7.3815,7.3699,7.286,7.236,7.2098,7.1514,7.1129,7.0937,7.0898,7.0898,7.0898,7.0898,7.0898,7.0898,7.0898,7.0898,7.0898,7.0898,7.0898,7.0898,7.0898,7.0898,7.0898,7.0898,7.0864,7.0815,7.0779,7.0765,7.0796,7.076,7.0692,7.0677,7.0693,7.067,7.0601,7.0601,7.0593,7.0601,7.0601,7.0601,7.0624,7.0593,7.0546,7.0538,7.0451,7.0381,7.0381,7.0342,6.999,6.954,6.9158,6.8776,6.8241,6.7905,6.727,6.6618,6.65,6.6586,6.6594,6.6511,6.6384,6.5938,6.5791,6.5472,6.4522,6.4396,6.4396,6.4383,6.4383,6.4604,6.4884,6.5105,6.5251,6.5288,6.5141,6.4995,6.4628,6.4237,6.3906,6.3649,6.3306,6.3086,6.2866,6.2793,6.2793,6.2793,6.2793,6.2793,6.2793,6.2793,6.2793,6.2793,6.2793,6.2793,6.2793,6.2793,6.2793,6.2793,6.2793,6.2793,6.2793,6.2793,6.2793,6.2793,6.278,6.2755,6.2667,6.2565,6.2423,6.2109,6.1485,6.0933,7.5976,7.5822,7.4976,7.4623,7.4546,7.3776,7.2976,7.2437,7.2213,7.1668,7.1091,7.0898,7.0898,7.0898,7.0898,7.0898,7.0898,7.0898,7.0898,7.0898,7.0898,7.0898,7.0898,7.0898,7.0891,7.0891,7.0878,7.0843,7.0787,7.0737,7.073,7.0715,7.0678,7.07,7.0678,7.0616,7.0561,7.0483,7.0467,7.0459,7.0459,7.0459,7.0451,7.0451,7.0435,7.0419,7.0419,7.0411,7.0411,7.0411,7.0411,7.0411,7.0067,6.9655,6.9273,6.9082,6.8585,6.8118,6.7849,6.7632,6.7546,6.7378,6.7181,6.6994,6.6614,6.6071,6.5669,6.5469,6.5292,6.5228,6.5228,6.5251,6.5375,6.5705,6.5925,6.5912,6.5888,6.5742,6.5558,6.5288,6.5031,6.4751,6.4347,6.4053,6.327,6.2976,6.2793,6.2793,6.2793,6.2793,6.2793,6.2793,6.2793,6.2793,6.2793,6.2793,6.2793,6.2793,6.2793,6.2793,6.2793,6.2793,6.2793,6.2793,6.2793,6.2793,6.278,6.2755,6.2705,6.2616,6.2488,6.2331,6.2089,6.1633,6.1239,7.5976,7.5976,7.563,7.5515,7.5438,7.4591,7.4046,7.3668,7.3206,7.2514,7.1668,7.1168,7.0898,7.0937,7.0898,7.0898,7.0898,7.0898,7.0898,7.0898,7.0898,7.0898,7.0898,7.0962,7.0878,7.092,7.0867,7.0758,7.0678,7.0655,7.0562,7.0531,7.0531,7.0515,7.0491,7.0499,7.0451,7.0427,7.0411,7.0411,7.0411,7.0411,7.0411,7.0411,7.0411,7.0411,7.0411,7.0411,7.0411,7.0411,7.0411,7.0411,7.0449,7.0067,6.9999,6.996,6.9502,6.9387,6.9218,6.8946,6.8633,6.8811,6.8566,6.8147,6.7597,6.7441,6.6914,6.654,6.6127,6.6048,6.6035,6.6072,6.6219,6.6549,6.6696,6.6623,6.6549,6.6439,6.6292,6.6109,6.5925,6.5668,6.5264,6.4861,6.3943,6.3123,6.2939,6.2829,6.2903,6.2829,6.2793,6.2793,6.2793,6.2793,6.2793,6.2793,6.2793,6.2793,6.2793,6.2793,6.2793,6.2793,6.2793,6.2793,6.2793,6.2793,6.2768,6.2717,6.2629,6.2526,6.2384,6.2212,6.196,6.1706,6.1548,7.5976,7.5976,7.5976,7.5976,7.5899,7.5361,7.493,7.4623,7.4084,7.3392,7.2552,7.1937,7.1668,7.1668,7.1706,7.1514,7.1475,7.1321,7.1129,7.1091,7.1168,7.1245,7.1353,7.1563,7.179,7.1478,7.1173,7.1099,7.103,7.0738,7.0538,7.0451,7.0411,7.0419,7.0419,7.0411,7.0411,7.0411,7.0411,7.0411,7.0411,7.0411,7.0411,7.0411,7.0411,7.0411,7.0411,7.0411,7.0411,7.0411,7.0411,7.0411,7.0487,7.061,7.0763,7.0763,7.0763,7.0754,7.0547,7.0006,6.9538,6.9569,6.9451,6.9149,6.8915,6.8577,6.7889,6.7318,6.7053,6.6896,6.6869,6.688,6.6953,6.726,6.7297,6.726,6.7297,6.7223,6.7076,6.693,6.6733,6.6549,6.5888,6.5448,6.4897,6.4016,6.3613,6.3466,6.3356,6.3172,6.2793,6.2793,6.2793,6.2793,6.2793,6.2866,6.2939,6.2793,6.2793,6.2793,6.2793,6.2829,6.2829,6.2793,6.2793,6.2793,6.2743,6.2654,6.2539,6.2423,6.2265,6.2128,6.2051,6.186,6.1897,7.5976,7.5976,7.5976,7.5976,7.5976,7.5976,7.5476,7.4853,7.4623,7.4161,7.3469,7.3276,7.3199,7.3199,7.3007,7.2706,7.2245,7.2129,7.186,7.1552,7.1898,7.2136,7.2332,7.2597,7.2707,7.2915,7.2395,7.185,7.1764,7.1097,7.0743,7.0512,7.0525,7.0411,7.0411,7.0411,7.0411,7.0411,7.0411,7.0411,7.0411,7.0411,7.0411,7.0411,7.0411,7.0411,7.0411,7.0411,7.0411,7.0411,7.0411,7.0411,7.0449,7.0992,7.1268,7.1344,7.1421,7.1497,7.1489,7.068,7.022,6.9937,6.9738,6.9488,6.9192,6.8869,6.8505,6.7876,6.7771,6.7663,6.7657,6.759,6.7627,6.7664,6.7664,6.77,6.77,6.77,6.748,6.737,6.7444,6.737,6.6586,6.5962,6.5668,6.5081,6.4494,6.4176,6.398,6.3833,6.3527,6.349,6.3527,6.3527,6.3563,6.316,6.305,6.2903,6.2939,6.3099,6.2976,6.2903,6.2866,6.2829,6.2793,6.2793,6.2692,6.259,6.2436,6.2328,6.2154,6.2019,6.2005,6.2028,6.2028,7.5976,7.5976,7.5976,7.5976,7.5976,7.5976,7.5822,7.5476,7.4976,7.4546,7.4199,7.3776,7.3507,7.3507,7.3546,7.3392,7.3129,7.3046,7.2738,7.2661,7.293,7.294,7.3097,7.3245,7.3331,7.3138,7.2769,7.2644,7.2562,7.1737,7.1377,7.1229,7.0877,7.0411,7.0411,7.0411,7.0411,7.0411,7.0411,7.0411,7.0411,7.0411,7.0411,7.0411,7.0411,7.0411,7.0411,7.0411,7.0411,7.0411,7.0411,7.0411,7.0411,7.0916,7.0954,7.0916,7.0877,7.0839,7.0793,7.0399,7.026,7.0048,6.9835,6.9552,6.9209,6.8892,6.8589,6.8321,6.807,6.7899,6.7704,6.7664,6.7664,6.7664,6.77,6.77,6.77,6.77,6.7627,6.759,6.7627,6.7627,6.715,6.6769,6.6476,6.6182,6.5645,6.5118,6.4861,6.4861,6.4664,6.4664,6.4664,6.4591,6.4407,6.404,6.4004,6.4114,6.3906,6.3735,6.3539,6.3123,6.2903,6.2793,6.2793,6.278,6.2667,6.2526,6.2318,6.2181,6.206,6.2028,6.2028,6.2028,6.2028,7.5976,7.5976,7.5976,7.5976,7.5976,7.5976,7.5976,7.5899,7.5399,7.5168,7.5053,7.4584,7.4392,7.4392,7.4353,7.4091,7.3969,7.393,7.3584,7.3615,7.3786,7.3788,7.3828,7.3952,7.425,7.3885,7.3568,7.345,7.3369,7.2567,7.2185,7.1994,7.1565,7.1565,7.1289,7.0984,7.0411,7.0411,7.0411,7.0411,7.0411,7.0411,7.0411,7.0411,7.0411,7.0411,7.0411,7.0411,7.0411,7.0449,7.0449,7.0449,7.0487,7.0686,7.0801,7.0839,7.0869,7.0754,7.0525,7.0449,7.0302,7.0138,6.992,6.9651,6.9347,6.9034,6.8754,6.8456,6.817,6.7952,6.7807,6.7767,6.77,6.77,6.77,6.77,6.77,6.77,6.77,6.77,6.77,6.77,6.77,6.7627,6.737,6.7113,6.6819,6.6256,6.5729,6.5618,6.5545,6.5508,6.5398,6.5178,6.5068,6.4995,6.5031,6.5251,6.4897,6.436,6.3796,6.3319,6.305,6.2793,6.2793,6.2755,6.2629,6.2462,6.2278,6.2168,6.2033,6.2028,6.2028,6.2028,6.2028,7.5976,7.5976,7.5976,7.5976,7.5976,7.5976,7.5976,7.5976,7.5976,7.5938,7.5938,7.5822,7.5668,7.5822,7.5861,7.5438,7.4861,7.4776,7.4392,7.4139,7.4487,7.4566,7.4797,7.5093,7.505,7.503,7.4758,7.4265,7.4163,7.3399,7.3017,7.2864,7.2635,7.252,7.2138,7.1603,7.0869,7.0754,7.0487,7.0449,7.0411,7.0411,7.0411,7.0411,7.0411,7.0411,7.0449,7.0533,7.0563,7.0602,7.064,7.0602,7.0793,7.1298,7.1535,7.1612,7.1489,7.0992,7.0563,7.0411,7.0361,7.0234,7.0076,6.991,6.9592,6.9198,6.8892,6.8577,6.8272,6.807,6.7926,6.7807,6.77,6.77,6.77,6.77,6.77,6.77,6.77,6.77,6.77,6.77,6.77,6.77,6.77,6.7554,6.726,6.7076,6.6549,6.6145,6.6072,6.5999,6.5852,6.5655,6.5618,6.5888,6.5999,6.6219,6.5338,6.4751,6.4127,6.3723,6.3392,6.3172,6.2903,6.2754,6.2552,6.241,6.2278,6.2168,6.2019,6.2028,6.2028,6.2028,6.2028,7.5976,7.5976,7.5976,7.5976,7.5976,7.5976,7.5976,7.5976,7.5976,7.5976,7.5976,7.5976,7.5976,7.5976,7.5976,7.5822,7.5707,7.563,7.5515,7.5408,7.5272,7.5365,7.544,7.5504,7.5574,7.5447,7.5221,7.5013,7.4889,7.424,7.3476,7.3055,7.3246,7.317,7.2979,7.252,7.1947,7.1374,7.0954,7.0716,7.0602,7.064,7.0602,7.064,7.064,7.064,7.0678,7.1107,7.1259,7.1336,7.1909,7.2176,7.2291,7.1956,7.1573,7.0839,7.0716,7.0602,7.0449,7.0411,7.0484,7.0497,7.0255,6.992,6.9622,6.9369,6.9024,6.866,6.8334,6.807,6.7926,6.7807,6.7727,6.77,6.77,6.77,6.77,6.77,6.77,6.77,6.77,6.77,6.77,6.77,6.77,6.77,6.7627,6.748,6.7297,6.6843,6.6659,6.6586,6.6586,6.6476,6.6769,6.7026,6.7063,6.6966,6.6072,6.5448,6.5301,6.4824,6.4053,6.3539,6.327,6.2874,6.2449,6.2344,6.2315,6.2141,6.2028,6.2028,6.2028,6.2028,6.2028,7.5976,7.5976,7.5976,7.5976,7.5976,7.5976,7.5976,7.5976,7.5976,7.5976,7.5976,7.5976,7.5976,7.5976,7.5976,7.5976,7.5938,7.5899,7.5861,7.5839,7.5902,7.5718,7.5676,7.5616,7.557,7.5527,7.5509,7.5395,7.5356,7.5089,7.4393,7.4172,7.3981,7.3981,7.3943,7.3667,7.3208,7.2597,7.2062,7.1519,7.1366,7.1374,7.1412,7.1328,7.1336,7.1328,7.1366,7.1985,7.2138,7.2223,7.2864,7.2979,7.2949,7.2452,7.2147,7.1642,7.1642,7.168,7.1595,7.1515,7.1358,7.1225,7.0979,7.0906,7.031,6.9885,6.9218,6.8684,6.8334,6.8068,6.7926,6.7807,6.7754,6.77,6.77,6.77,6.77,6.77,6.77,6.77,6.77,6.77,6.77,6.77,6.77,6.77,6.77,6.7627,6.759,6.7407,6.7297,6.726,6.737,6.7444,6.77,6.77,6.7554,6.726,6.6673,6.6219,6.6256,6.5668,6.4677,6.409,6.3686,6.3214,6.2691,6.2456,6.2341,6.2154,6.2028,6.2028,6.2028,6.2028,6.2028,7.5976,7.5976,7.5976,7.5976,7.5976,7.5976,7.5976,7.5976,7.5976,7.5976,7.5976,7.5976,7.5976,7.5976,7.5976,7.5976,7.5976,7.5976,7.6,7.6,7.5818,7.57,7.5666,7.5566,7.5535,7.5518,7.5509,7.5509,7.5509,7.5318,7.5242,7.5509,7.5318,7.5165,7.4974,7.4584,7.4201,7.401,7.3476,7.3055,7.2788,7.2864,7.2979,7.2864,7.2826,7.2826,7.2902,7.3017,7.3093,7.3093,7.3246,7.3361,7.317,7.3132,7.3017,7.2788,7.2597,7.2542,7.2478,7.2427,7.2462,7.2431,7.2462,7.1963,7.1168,7.047,6.9821,6.9454,6.9187,6.8906,6.8773,6.8603,6.8522,6.8288,6.8091,6.7921,6.7737,6.77,6.77,6.77,6.77,6.77,6.77,6.77,6.77,6.77,6.77,6.77,6.77,6.77,6.77,6.77,6.77,6.77,6.77,6.77,6.77,6.7407,6.7003,6.6893,6.6806,6.6109,6.5154,6.4701,6.4235,6.358,6.3059,6.2857,6.2543,6.2114,6.2028,6.2028,6.2028,6.2028,6.2028,7.5976,7.5976,7.5976,7.5976,7.5976,7.5976,7.5976,7.5976,7.5976,7.5976,7.5976,7.5976,7.5976,7.5976,7.5976,7.5976,7.5976,7.6,7.597,7.5918,7.5771,7.569,7.5633,7.5532,7.5518,7.5509,7.5509,7.5509,7.5509,7.5509,7.5509,7.5509,7.5509,7.5509,7.5509,7.5089,7.5051,7.4974,7.4783,7.4057,7.3369,7.3093,7.2979,7.3055,7.3093,7.3208,7.3323,7.3667,7.3819,7.3964,7.4622,7.4507,7.3972,7.3934,7.359,7.317,7.3208,7.3212,7.3152,7.309,7.2991,7.2643,7.2409,7.2109,7.1697,7.1175,7.0773,7.0449,7.0089,6.9782,6.957,6.9398,6.9229,6.8898,6.8568,6.8238,6.7847,6.7737,6.7737,6.77,6.77,6.77,6.77,6.77,6.77,6.77,6.77,6.77,6.77,6.77,6.77,6.77,6.77,6.77,6.77,6.77,6.77,6.77,6.7407,6.737,6.737,6.6696,6.5962,6.5372,6.4807,6.4223,6.3726,6.3324,6.2958,6.2409,6.2028,6.2028,6.2028,6.2028,6.2028,7.5976,7.5976,7.5976,7.5976,7.5976,7.5976,7.5976,7.5976,7.5976,7.5976,7.5976,7.5976,7.5976,7.5976,7.5976,7.5976,7.5969,7.597,7.594,7.5872,7.5739,7.5658,7.5574,7.5553,7.5527,7.5509,7.5509,7.5509,7.5509,7.5509,7.5509,7.5509,7.5509,7.5509,7.5509,7.5509,7.5509,7.5471,7.5509,7.4936,7.4019,7.4019,7.4095,7.4095,7.4095,7.4057,7.421,7.4545,7.466,7.4813,7.5204,7.5204,7.486,7.4775,7.4545,7.4316,7.4193,7.4044,7.3879,7.3724,7.3574,7.3323,7.3118,7.3093,7.2912,7.2379,7.1516,7.1104,7.0391,7.0039,6.993,6.9756,6.9743,6.9522,6.9339,6.9119,6.8471,6.7994,6.7847,6.77,6.77,6.77,6.77,6.77,6.77,6.77,6.77,6.77,6.77,6.77,6.77,6.77,6.77,6.77,6.77,6.77,6.77,6.77,6.77,6.7627,6.748,6.7247,6.683,6.6143,6.555,6.5075,6.4612,6.4012,6.3403,6.2844,6.2404,6.2028,6.2028,6.2064,6.2028,7.5976,7.5976,7.5976,7.5976,7.5976,7.5976,7.5976,7.5976,7.5976,7.5976,7.5976,7.5976,7.5976,7.5976,7.5976,7.5976,7.5954,7.594,7.5902,7.5833,7.5674,7.5608,7.5557,7.5544,7.5527,7.5509,7.5509,7.5509,7.5509,7.5509,7.5509,7.5509,7.5509,7.5509,7.5509,7.5509,7.5509,7.5509,7.5509,7.5509,7.5433,7.5509,7.5318,7.5395,7.5509,7.5509,7.5471,7.5471,7.5471,7.5471,7.5433,7.5395,7.5395,7.528,7.5318,7.5127,7.5089,7.5057,7.5025,7.4791,7.4711,7.463,7.4403,7.4052,7.375,7.3156,7.2269,7.1651,7.0917,7.062,7.051,7.0491,7.044,7.0183,7.0073,6.9779,6.9009,6.8274,6.8068,6.7811,6.77,6.77,6.77,6.77,6.77,6.77,6.77,6.77,6.77,6.77,6.77,6.77,6.77,6.77,6.77,6.77,6.77,6.77,6.77,6.77,6.7627,6.748,6.721,6.689,6.632,6.5852,6.5227,6.4567,6.397,6.3446,6.2888,6.2476,6.2317,6.2281,6.2064,7.5976,7.5976,7.5976,7.5976,7.5976,7.5976,7.5976,7.5976,7.5976,7.5976,7.5976,7.5976,7.5976,7.5976,7.5976,7.5969,7.5985,7.5918,7.581,7.57,7.5633,7.5557,7.5514,7.5535,7.5518,7.5509,7.5509,7.5509,7.5509,7.5509,7.5509,7.5509,7.5509,7.5509,7.5509,7.5509,7.5509,7.5509,7.5509,7.5509,7.5509,7.5509,7.5509,7.5509,7.5509,7.5509,7.5509,7.5509,7.5509,7.5509,7.5509,7.5509,7.5509,7.5509,7.5509,7.5509,7.5509,7.5412,7.5237,7.5085,7.4917,7.4627,7.4275,7.3971,7.3653,7.33,7.269,7.2434,7.1945,7.1903,7.1841,7.1812,7.1725,7.1027,7.0697,7.0,6.9229,6.8788,6.8458,6.8091,6.7737,6.7737,6.77,6.77,6.77,6.77,6.77,6.77,6.77,6.77,6.77,6.77,6.77,6.77,6.77,6.77,6.77,6.77,6.77,6.77,6.77,6.77,6.7467,6.7197,6.6998,6.6623,6.5938,6.5221,6.4777,6.4243,6.3504,6.3033,6.2838,6.2585,6.2404]}]]